<?xml version="1.0" encoding="UTF-8" standalone="no" ?><gpx xmlns="http://www.topografix.com/GPX/1/1" xmlns:gpxx="http://www.garmin.com/xmlschemas/GpxExtensions/v3" xmlns:wptx1="http://www.garmin.com/xmlschemas/WaypointExtension/v1" xmlns:gpxtpx="http://www.garmin.com/xmlschemas/TrackPointExtension/v1" creator="GuideVTT.com" version="1.1" xmlns:xsi="http://www.w3.org/2001/XMLSchema-instance" xsi:schemaLocation="http://www.topografix.com/GPX/1/1 http://www.topografix.com/GPX/1/1/gpx.xsd http://www.garmin.com/xmlschemas/GpxExtensions/v3 http://www8.garmin.com/xmlschemas/GpxExtensionsv3.xsd http://www.garmin.com/xmlschemas/WaypointExtension/v1 http://www8.garmin.com/xmlschemas/WaypointExtensionv1.xsd http://www.garmin.com/xmlschemas/TrackPointExtension/v1 http://www.garmin.com/xmlschemas/TrackPointExtensionv1.xsd">
<metadata><link href="http://www.garmin.com"><text>Garmin International</text></link><time>2013-06-22T15:13:50Z</time></metadata>
<trk><name>00001_20110424.gpx</name><extensions><gpxx:TrackExtension><gpxx:DisplayColor>Cyan</gpxx:DisplayColor></gpxx:TrackExtension></extensions><trkseg>
<trkpt lat="42.290607" lon="3.279605"><ele></ele><time>2014-4-4T21:58:39Z</time></trkpt>
<trkpt lat="42.290653" lon="3.279682"><ele></ele><time>2014-4-4T21:58:42Z</time></trkpt>
<trkpt lat="42.290562" lon="3.279792"><ele></ele><time>2014-4-4T21:58:45Z</time></trkpt>
<trkpt lat="42.290473" lon="3.279852"><ele></ele><time>2014-4-4T21:58:48Z</time></trkpt>
<trkpt lat="42.290367" lon="3.279930"><ele></ele><time>2014-4-4T21:58:51Z</time></trkpt>
<trkpt lat="42.290157" lon="3.280200"><ele></ele><time>2014-4-4T21:58:54Z</time></trkpt>
<trkpt lat="42.290177" lon="3.280327"><ele></ele><time>2014-4-4T21:58:57Z</time></trkpt>
<trkpt lat="42.290210" lon="3.280437"><ele></ele><time>2014-4-4T21:59:0Z</time></trkpt>
<trkpt lat="42.290233" lon="3.280522"><ele></ele><time>2014-4-4T21:59:3Z</time></trkpt>
<trkpt lat="42.290173" lon="3.280595"><ele></ele><time>2014-4-4T21:59:6Z</time></trkpt>
<trkpt lat="42.290088" lon="3.280670"><ele></ele><time>2014-4-4T21:59:9Z</time></trkpt>
<trkpt lat="42.290012" lon="3.280737"><ele></ele><time>2014-4-4T21:59:12Z</time></trkpt>
<trkpt lat="42.289997" lon="3.280785"><ele></ele><time>2014-4-4T21:59:15Z</time></trkpt>
<trkpt lat="42.290002" lon="3.280798"><ele></ele><time>2014-4-4T21:59:18Z</time></trkpt>
<trkpt lat="42.290002" lon="3.280778"><ele></ele><time>2014-4-4T21:59:21Z</time></trkpt>
<trkpt lat="42.290012" lon="3.280777"><ele></ele><time>2014-4-4T21:59:24Z</time></trkpt>
<trkpt lat="42.290005" lon="3.280775"><ele></ele><time>2014-4-4T21:59:27Z</time></trkpt>
<trkpt lat="42.290002" lon="3.280777"><ele></ele><time>2014-4-4T21:59:30Z</time></trkpt>
<trkpt lat="42.289993" lon="3.280778"><ele></ele><time>2014-4-4T21:59:33Z</time></trkpt>
<trkpt lat="42.289967" lon="3.280785"><ele></ele><time>2014-4-4T21:59:36Z</time></trkpt>
<trkpt lat="42.289952" lon="3.280813"><ele></ele><time>2014-4-4T21:59:39Z</time></trkpt>
<trkpt lat="42.289948" lon="3.280823"><ele></ele><time>2014-4-4T21:59:42Z</time></trkpt>
<trkpt lat="42.289952" lon="3.280813"><ele></ele><time>2014-4-4T21:59:45Z</time></trkpt>
<trkpt lat="42.289955" lon="3.280808"><ele></ele><time>2014-4-4T21:59:48Z</time></trkpt>
<trkpt lat="42.289955" lon="3.280803"><ele></ele><time>2014-4-4T21:59:51Z</time></trkpt>
<trkpt lat="42.289955" lon="3.280795"><ele></ele><time>2014-4-4T21:59:54Z</time></trkpt>
<trkpt lat="42.289958" lon="3.280792"><ele></ele><time>2014-4-4T21:59:57Z</time></trkpt>
<trkpt lat="42.289958" lon="3.280790"><ele></ele><time>2014-4-4T22:0:0Z</time></trkpt>
<trkpt lat="42.289958" lon="3.280790"><ele></ele><time>2014-4-4T22:0:3Z</time></trkpt>
<trkpt lat="42.289963" lon="3.280790"><ele></ele><time>2014-4-4T22:0:6Z</time></trkpt>
<trkpt lat="42.289963" lon="3.280788"><ele></ele><time>2014-4-4T22:0:9Z</time></trkpt>
<trkpt lat="42.289970" lon="3.280773"><ele></ele><time>2014-4-4T22:0:12Z</time></trkpt>
<trkpt lat="42.290023" lon="3.280702"><ele></ele><time>2014-4-4T22:0:15Z</time></trkpt>
<trkpt lat="42.290085" lon="3.280628"><ele></ele><time>2014-4-4T22:0:18Z</time></trkpt>
<trkpt lat="42.290165" lon="3.280535"><ele></ele><time>2014-4-4T22:0:21Z</time></trkpt>
<trkpt lat="42.290253" lon="3.280478"><ele></ele><time>2014-4-4T22:0:24Z</time></trkpt>
<trkpt lat="42.290355" lon="3.280398"><ele></ele><time>2014-4-4T22:0:27Z</time></trkpt>
<trkpt lat="42.290470" lon="3.280307"><ele></ele><time>2014-4-4T22:0:30Z</time></trkpt>
<trkpt lat="42.290592" lon="3.280365"><ele></ele><time>2014-4-4T22:0:33Z</time></trkpt>
<trkpt lat="42.290710" lon="3.280540"><ele></ele><time>2014-4-4T22:0:36Z</time></trkpt>
<trkpt lat="42.290795" lon="3.280747"><ele></ele><time>2014-4-4T22:0:39Z</time></trkpt>
<trkpt lat="42.290828" lon="3.280617"><ele></ele><time>2014-4-4T22:0:42Z</time></trkpt>
<trkpt lat="42.290843" lon="3.280402"><ele></ele><time>2014-4-4T22:0:45Z</time></trkpt>
<trkpt lat="42.290935" lon="3.280520"><ele></ele><time>2014-4-4T22:0:48Z</time></trkpt>
<trkpt lat="42.291008" lon="3.280530"><ele></ele><time>2014-4-4T22:0:51Z</time></trkpt>
<trkpt lat="42.290977" lon="3.280302"><ele></ele><time>2014-4-4T22:0:54Z</time></trkpt>
<trkpt lat="42.291065" lon="3.279918"><ele></ele><time>2014-4-4T22:0:57Z</time></trkpt>
<trkpt lat="42.291225" lon="3.279525"><ele></ele><time>2014-4-4T22:1:0Z</time></trkpt>
<trkpt lat="42.291195" lon="3.279085"><ele></ele><time>2014-4-4T22:1:3Z</time></trkpt>
<trkpt lat="42.291012" lon="3.278830"><ele></ele><time>2014-4-4T22:1:6Z</time></trkpt>
<trkpt lat="42.290867" lon="3.278645"><ele></ele><time>2014-4-4T22:1:9Z</time></trkpt>
<trkpt lat="42.290783" lon="3.278407"><ele></ele><time>2014-4-4T22:1:12Z</time></trkpt>
<trkpt lat="42.290500" lon="3.278283"><ele></ele><time>2014-4-4T22:1:15Z</time></trkpt>
<trkpt lat="42.290248" lon="3.278228"><ele></ele><time>2014-4-4T22:1:18Z</time></trkpt>
<trkpt lat="42.290070" lon="3.278222"><ele></ele><time>2014-4-4T22:1:21Z</time></trkpt>
<trkpt lat="42.289943" lon="3.278155"><ele></ele><time>2014-4-4T22:1:24Z</time></trkpt>
<trkpt lat="42.289768" lon="3.278120"><ele></ele><time>2014-4-4T22:1:27Z</time></trkpt>
<trkpt lat="42.289597" lon="3.278055"><ele></ele><time>2014-4-4T22:1:30Z</time></trkpt>
<trkpt lat="42.289467" lon="3.277950"><ele></ele><time>2014-4-4T22:1:33Z</time></trkpt>
<trkpt lat="42.289363" lon="3.277772"><ele></ele><time>2014-4-4T22:1:36Z</time></trkpt>
<trkpt lat="42.289363" lon="3.277695"><ele></ele><time>2014-4-4T22:1:39Z</time></trkpt>
<trkpt lat="42.289272" lon="3.277693"><ele></ele><time>2014-4-4T22:1:42Z</time></trkpt>
<trkpt lat="42.289132" lon="3.277733"><ele></ele><time>2014-4-4T22:1:45Z</time></trkpt>
<trkpt lat="42.288945" lon="3.277792"><ele></ele><time>2014-4-4T22:1:48Z</time></trkpt>
<trkpt lat="42.288783" lon="3.277850"><ele></ele><time>2014-4-4T22:1:51Z</time></trkpt>
<trkpt lat="42.288665" lon="3.277800"><ele></ele><time>2014-4-4T22:1:54Z</time></trkpt>
<trkpt lat="42.288555" lon="3.277643"><ele></ele><time>2014-4-4T22:1:57Z</time></trkpt>
<trkpt lat="42.288445" lon="3.277405"><ele></ele><time>2014-4-4T22:2:0Z</time></trkpt>
<trkpt lat="42.288280" lon="3.277227"><ele></ele><time>2014-4-4T22:2:3Z</time></trkpt>
<trkpt lat="42.288070" lon="3.277140"><ele></ele><time>2014-4-4T22:2:6Z</time></trkpt>
<trkpt lat="42.287835" lon="3.277207"><ele></ele><time>2014-4-4T22:2:9Z</time></trkpt>
<trkpt lat="42.287608" lon="3.277313"><ele></ele><time>2014-4-4T22:2:12Z</time></trkpt>
<trkpt lat="42.287427" lon="3.277260"><ele></ele><time>2014-4-4T22:2:15Z</time></trkpt>
<trkpt lat="42.287422" lon="3.276952"><ele></ele><time>2014-4-4T22:2:18Z</time></trkpt>
<trkpt lat="42.287475" lon="3.276625"><ele></ele><time>2014-4-4T22:2:21Z</time></trkpt>
<trkpt lat="42.287510" lon="3.276300"><ele></ele><time>2014-4-4T22:2:24Z</time></trkpt>
<trkpt lat="42.287433" lon="3.276032"><ele></ele><time>2014-4-4T22:2:27Z</time></trkpt>
<trkpt lat="42.287208" lon="3.275920"><ele></ele><time>2014-4-4T22:2:30Z</time></trkpt>
<trkpt lat="42.286998" lon="3.276040"><ele></ele><time>2014-4-4T22:2:33Z</time></trkpt>
<trkpt lat="42.286805" lon="3.276232"><ele></ele><time>2014-4-4T22:2:36Z</time></trkpt>
<trkpt lat="42.286602" lon="3.276367"><ele></ele><time>2014-4-4T22:2:39Z</time></trkpt>
<trkpt lat="42.286377" lon="3.276467"><ele></ele><time>2014-4-4T22:2:42Z</time></trkpt>
<trkpt lat="42.286167" lon="3.276588"><ele></ele><time>2014-4-4T22:2:45Z</time></trkpt>
<trkpt lat="42.285977" lon="3.276655"><ele></ele><time>2014-4-4T22:2:48Z</time></trkpt>
<trkpt lat="42.285882" lon="3.276503"><ele></ele><time>2014-4-4T22:2:51Z</time></trkpt>
<trkpt lat="42.285808" lon="3.276292"><ele></ele><time>2014-4-4T22:2:54Z</time></trkpt>
<trkpt lat="42.285678" lon="3.276135"><ele></ele><time>2014-4-4T22:2:57Z</time></trkpt>
<trkpt lat="42.285580" lon="3.275957"><ele></ele><time>2014-4-4T22:3:0Z</time></trkpt>
<trkpt lat="42.285423" lon="3.275763"><ele></ele><time>2014-4-4T22:3:3Z</time></trkpt>
<trkpt lat="42.285293" lon="3.275642"><ele></ele><time>2014-4-4T22:3:6Z</time></trkpt>
<trkpt lat="42.285133" lon="3.275702"><ele></ele><time>2014-4-4T22:3:9Z</time></trkpt>
<trkpt lat="42.284965" lon="3.275708"><ele></ele><time>2014-4-4T22:3:12Z</time></trkpt>
<trkpt lat="42.284828" lon="3.275538"><ele></ele><time>2014-4-4T22:3:15Z</time></trkpt>
<trkpt lat="42.284542" lon="3.275357"><ele></ele><time>2014-4-4T22:3:18Z</time></trkpt>
<trkpt lat="42.284240" lon="3.275292"><ele></ele><time>2014-4-4T22:3:21Z</time></trkpt>
<trkpt lat="42.283958" lon="3.275438"><ele></ele><time>2014-4-4T22:3:24Z</time></trkpt>
<trkpt lat="42.283692" lon="3.275643"><ele></ele><time>2014-4-4T22:3:27Z</time></trkpt>
<trkpt lat="42.283458" lon="3.275782"><ele></ele><time>2014-4-4T22:3:30Z</time></trkpt>
<trkpt lat="42.283242" lon="3.275845"><ele></ele><time>2014-4-4T22:3:33Z</time></trkpt>
<trkpt lat="42.283058" lon="3.275725"><ele></ele><time>2014-4-4T22:3:36Z</time></trkpt>
<trkpt lat="42.282890" lon="3.275552"><ele></ele><time>2014-4-4T22:3:39Z</time></trkpt>
<trkpt lat="42.282692" lon="3.275498"><ele></ele><time>2014-4-4T22:3:42Z</time></trkpt>
<trkpt lat="42.282520" lon="3.275505"><ele></ele><time>2014-4-4T22:3:45Z</time></trkpt>
<trkpt lat="42.282378" lon="3.275527"><ele></ele><time>2014-4-4T22:3:48Z</time></trkpt>
<trkpt lat="42.282262" lon="3.275578"><ele></ele><time>2014-4-4T22:3:51Z</time></trkpt>
<trkpt lat="42.282162" lon="3.275607"><ele></ele><time>2014-4-4T22:3:54Z</time></trkpt>
<trkpt lat="42.282055" lon="3.275592"><ele></ele><time>2014-4-4T22:3:57Z</time></trkpt>
<trkpt lat="42.281963" lon="3.275593"><ele></ele><time>2014-4-4T22:4:0Z</time></trkpt>
<trkpt lat="42.281872" lon="3.275590"><ele></ele><time>2014-4-4T22:4:3Z</time></trkpt>
<trkpt lat="42.281765" lon="3.275572"><ele></ele><time>2014-4-4T22:4:6Z</time></trkpt>
<trkpt lat="42.281677" lon="3.275537"><ele></ele><time>2014-4-4T22:4:9Z</time></trkpt>
<trkpt lat="42.281597" lon="3.275508"><ele></ele><time>2014-4-4T22:4:12Z</time></trkpt>
<trkpt lat="42.281513" lon="3.275493"><ele></ele><time>2014-4-4T22:4:15Z</time></trkpt>
<trkpt lat="42.281433" lon="3.275480"><ele></ele><time>2014-4-4T22:4:18Z</time></trkpt>
<trkpt lat="42.281353" lon="3.275437"><ele></ele><time>2014-4-4T22:4:21Z</time></trkpt>
<trkpt lat="42.281285" lon="3.275393"><ele></ele><time>2014-4-4T22:4:24Z</time></trkpt>
<trkpt lat="42.281247" lon="3.275303"><ele></ele><time>2014-4-4T22:4:27Z</time></trkpt>
<trkpt lat="42.281223" lon="3.275198"><ele></ele><time>2014-4-4T22:4:30Z</time></trkpt>
<trkpt lat="42.281205" lon="3.275085"><ele></ele><time>2014-4-4T22:4:33Z</time></trkpt>
<trkpt lat="42.281178" lon="3.274990"><ele></ele><time>2014-4-4T22:4:36Z</time></trkpt>
<trkpt lat="42.281155" lon="3.274890"><ele></ele><time>2014-4-4T22:4:39Z</time></trkpt>
<trkpt lat="42.281170" lon="3.274783"><ele></ele><time>2014-4-4T22:4:42Z</time></trkpt>
<trkpt lat="42.281182" lon="3.274683"><ele></ele><time>2014-4-4T22:4:45Z</time></trkpt>
<trkpt lat="42.281182" lon="3.274583"><ele></ele><time>2014-4-4T22:4:48Z</time></trkpt>
<trkpt lat="42.281178" lon="3.274480"><ele></ele><time>2014-4-4T22:4:51Z</time></trkpt>
<trkpt lat="42.281173" lon="3.274382"><ele></ele><time>2014-4-4T22:4:54Z</time></trkpt>
<trkpt lat="42.281155" lon="3.274287"><ele></ele><time>2014-4-4T22:4:57Z</time></trkpt>
<trkpt lat="42.281123" lon="3.274193"><ele></ele><time>2014-4-4T22:5:0Z</time></trkpt>
<trkpt lat="42.281087" lon="3.274120"><ele></ele><time>2014-4-4T22:5:3Z</time></trkpt>
<trkpt lat="42.281025" lon="3.274062"><ele></ele><time>2014-4-4T22:5:6Z</time></trkpt>
<trkpt lat="42.280957" lon="3.274025"><ele></ele><time>2014-4-4T22:5:9Z</time></trkpt>
<trkpt lat="42.280877" lon="3.274007"><ele></ele><time>2014-4-4T22:5:12Z</time></trkpt>
<trkpt lat="42.280803" lon="3.273990"><ele></ele><time>2014-4-4T22:5:15Z</time></trkpt>
<trkpt lat="42.280743" lon="3.273942"><ele></ele><time>2014-4-4T22:5:18Z</time></trkpt>
<trkpt lat="42.280673" lon="3.273898"><ele></ele><time>2014-4-4T22:5:21Z</time></trkpt>
<trkpt lat="42.280605" lon="3.273888"><ele></ele><time>2014-4-4T22:5:24Z</time></trkpt>
<trkpt lat="42.280582" lon="3.273975"><ele></ele><time>2014-4-4T22:5:27Z</time></trkpt>
<trkpt lat="42.280582" lon="3.274073"><ele></ele><time>2014-4-4T22:5:30Z</time></trkpt>
<trkpt lat="42.280598" lon="3.274173"><ele></ele><time>2014-4-4T22:5:33Z</time></trkpt>
<trkpt lat="42.280578" lon="3.274278"><ele></ele><time>2014-4-4T22:5:36Z</time></trkpt>
<trkpt lat="42.280533" lon="3.274368"><ele></ele><time>2014-4-4T22:5:39Z</time></trkpt>
<trkpt lat="42.280465" lon="3.274422"><ele></ele><time>2014-4-4T22:5:42Z</time></trkpt>
<trkpt lat="42.280380" lon="3.274470"><ele></ele><time>2014-4-4T22:5:45Z</time></trkpt>
<trkpt lat="42.280303" lon="3.274518"><ele></ele><time>2014-4-4T22:5:48Z</time></trkpt>
<trkpt lat="42.280228" lon="3.274582"><ele></ele><time>2014-4-4T22:5:51Z</time></trkpt>
<trkpt lat="42.280148" lon="3.274637"><ele></ele><time>2014-4-4T22:5:54Z</time></trkpt>
<trkpt lat="42.280072" lon="3.274693"><ele></ele><time>2014-4-4T22:5:57Z</time></trkpt>
<trkpt lat="42.279987" lon="3.274753"><ele></ele><time>2014-4-4T22:6:0Z</time></trkpt>
<trkpt lat="42.279907" lon="3.274810"><ele></ele><time>2014-4-4T22:6:3Z</time></trkpt>
<trkpt lat="42.279815" lon="3.274848"><ele></ele><time>2014-4-4T22:6:6Z</time></trkpt>
<trkpt lat="42.279735" lon="3.274835"><ele></ele><time>2014-4-4T22:6:9Z</time></trkpt>
<trkpt lat="42.279693" lon="3.274730"><ele></ele><time>2014-4-4T22:6:12Z</time></trkpt>
<trkpt lat="42.279720" lon="3.274612"><ele></ele><time>2014-4-4T22:6:15Z</time></trkpt>
<trkpt lat="42.279767" lon="3.274518"><ele></ele><time>2014-4-4T22:6:18Z</time></trkpt>
<trkpt lat="42.279808" lon="3.274422"><ele></ele><time>2014-4-4T22:6:21Z</time></trkpt>
<trkpt lat="42.279850" lon="3.274317"><ele></ele><time>2014-4-4T22:6:24Z</time></trkpt>
<trkpt lat="42.279880" lon="3.274203"><ele></ele><time>2014-4-4T22:6:27Z</time></trkpt>
<trkpt lat="42.279915" lon="3.274095"><ele></ele><time>2014-4-4T22:6:30Z</time></trkpt>
<trkpt lat="42.279945" lon="3.273990"><ele></ele><time>2014-4-4T22:6:33Z</time></trkpt>
<trkpt lat="42.279960" lon="3.273875"><ele></ele><time>2014-4-4T22:6:36Z</time></trkpt>
<trkpt lat="42.279960" lon="3.273752"><ele></ele><time>2014-4-4T22:6:39Z</time></trkpt>
<trkpt lat="42.279953" lon="3.273632"><ele></ele><time>2014-4-4T22:6:42Z</time></trkpt>
<trkpt lat="42.279922" lon="3.273518"><ele></ele><time>2014-4-4T22:6:45Z</time></trkpt>
<trkpt lat="42.279880" lon="3.273418"><ele></ele><time>2014-4-4T22:6:48Z</time></trkpt>
<trkpt lat="42.279835" lon="3.273302"><ele></ele><time>2014-4-4T22:6:51Z</time></trkpt>
<trkpt lat="42.279793" lon="3.273197"><ele></ele><time>2014-4-4T22:6:54Z</time></trkpt>
<trkpt lat="42.279750" lon="3.273093"><ele></ele><time>2014-4-4T22:6:57Z</time></trkpt>
<trkpt lat="42.279708" lon="3.272997"><ele></ele><time>2014-4-4T22:7:0Z</time></trkpt>
<trkpt lat="42.279640" lon="3.272917"><ele></ele><time>2014-4-4T22:7:3Z</time></trkpt>
<trkpt lat="42.279557" lon="3.272880"><ele></ele><time>2014-4-4T22:7:6Z</time></trkpt>
<trkpt lat="42.279465" lon="3.272855"><ele></ele><time>2014-4-4T22:7:9Z</time></trkpt>
<trkpt lat="42.279397" lon="3.272782"><ele></ele><time>2014-4-4T22:7:12Z</time></trkpt>
<trkpt lat="42.279362" lon="3.272672"><ele></ele><time>2014-4-4T22:7:15Z</time></trkpt>
<trkpt lat="42.279370" lon="3.272545"><ele></ele><time>2014-4-4T22:7:18Z</time></trkpt>
<trkpt lat="42.279343" lon="3.272433"><ele></ele><time>2014-4-4T22:7:21Z</time></trkpt>
<trkpt lat="42.279317" lon="3.272330"><ele></ele><time>2014-4-4T22:7:24Z</time></trkpt>
<trkpt lat="42.279285" lon="3.272227"><ele></ele><time>2014-4-4T22:7:27Z</time></trkpt>
<trkpt lat="42.279240" lon="3.272132"><ele></ele><time>2014-4-4T22:7:30Z</time></trkpt>
<trkpt lat="42.279193" lon="3.272045"><ele></ele><time>2014-4-4T22:7:33Z</time></trkpt>
<trkpt lat="42.279148" lon="3.271948"><ele></ele><time>2014-4-4T22:7:36Z</time></trkpt>
<trkpt lat="42.279098" lon="3.271857"><ele></ele><time>2014-4-4T22:7:39Z</time></trkpt>
<trkpt lat="42.279057" lon="3.271753"><ele></ele><time>2014-4-4T22:7:42Z</time></trkpt>
<trkpt lat="42.279018" lon="3.271642"><ele></ele><time>2014-4-4T22:7:45Z</time></trkpt>
<trkpt lat="42.278950" lon="3.271558"><ele></ele><time>2014-4-4T22:7:48Z</time></trkpt>
<trkpt lat="42.278873" lon="3.271493"><ele></ele><time>2014-4-4T22:7:51Z</time></trkpt>
<trkpt lat="42.278820" lon="3.271397"><ele></ele><time>2014-4-4T22:7:54Z</time></trkpt>
<trkpt lat="42.278838" lon="3.271277"><ele></ele><time>2014-4-4T22:7:57Z</time></trkpt>
<trkpt lat="42.278885" lon="3.271175"><ele></ele><time>2014-4-4T22:8:0Z</time></trkpt>
<trkpt lat="42.278930" lon="3.271078"><ele></ele><time>2014-4-4T22:8:3Z</time></trkpt>
<trkpt lat="42.278957" lon="3.270972"><ele></ele><time>2014-4-4T22:8:6Z</time></trkpt>
<trkpt lat="42.278968" lon="3.270862"><ele></ele><time>2014-4-4T22:8:9Z</time></trkpt>
<trkpt lat="42.278980" lon="3.270742"><ele></ele><time>2014-4-4T22:8:12Z</time></trkpt>
<trkpt lat="42.278988" lon="3.270625"><ele></ele><time>2014-4-4T22:8:15Z</time></trkpt>
<trkpt lat="42.278992" lon="3.270512"><ele></ele><time>2014-4-4T22:8:18Z</time></trkpt>
<trkpt lat="42.278968" lon="3.270407"><ele></ele><time>2014-4-4T22:8:21Z</time></trkpt>
<trkpt lat="42.278900" lon="3.270347"><ele></ele><time>2014-4-4T22:8:24Z</time></trkpt>
<trkpt lat="42.278817" lon="3.270403"><ele></ele><time>2014-4-4T22:8:27Z</time></trkpt>
<trkpt lat="42.278732" lon="3.270490"><ele></ele><time>2014-4-4T22:8:30Z</time></trkpt>
<trkpt lat="42.278625" lon="3.270478"><ele></ele><time>2014-4-4T22:8:33Z</time></trkpt>
<trkpt lat="42.278542" lon="3.270397"><ele></ele><time>2014-4-4T22:8:36Z</time></trkpt>
<trkpt lat="42.278522" lon="3.270265"><ele></ele><time>2014-4-4T22:8:39Z</time></trkpt>
<trkpt lat="42.278473" lon="3.270173"><ele></ele><time>2014-4-4T22:8:42Z</time></trkpt>
<trkpt lat="42.278378" lon="3.270197"><ele></ele><time>2014-4-4T22:8:45Z</time></trkpt>
<trkpt lat="42.278302" lon="3.270277"><ele></ele><time>2014-4-4T22:8:48Z</time></trkpt>
<trkpt lat="42.278233" lon="3.270357"><ele></ele><time>2014-4-4T22:8:51Z</time></trkpt>
<trkpt lat="42.278163" lon="3.270437"><ele></ele><time>2014-4-4T22:8:54Z</time></trkpt>
<trkpt lat="42.278088" lon="3.270508"><ele></ele><time>2014-4-4T22:8:57Z</time></trkpt>
<trkpt lat="42.278030" lon="3.270600"><ele></ele><time>2014-4-4T22:9:0Z</time></trkpt>
<trkpt lat="42.278023" lon="3.270725"><ele></ele><time>2014-4-4T22:9:3Z</time></trkpt>
<trkpt lat="42.278012" lon="3.270842"><ele></ele><time>2014-4-4T22:9:6Z</time></trkpt>
<trkpt lat="42.277953" lon="3.270910"><ele></ele><time>2014-4-4T22:9:9Z</time></trkpt>
<trkpt lat="42.277882" lon="3.270865"><ele></ele><time>2014-4-4T22:9:12Z</time></trkpt>
<trkpt lat="42.277843" lon="3.270750"><ele></ele><time>2014-4-4T22:9:15Z</time></trkpt>
<trkpt lat="42.277863" lon="3.270620"><ele></ele><time>2014-4-4T22:9:18Z</time></trkpt>
<trkpt lat="42.277878" lon="3.270507"><ele></ele><time>2014-4-4T22:9:21Z</time></trkpt>
<trkpt lat="42.277882" lon="3.270377"><ele></ele><time>2014-4-4T22:9:24Z</time></trkpt>
<trkpt lat="42.277867" lon="3.270255"><ele></ele><time>2014-4-4T22:9:27Z</time></trkpt>
<trkpt lat="42.277828" lon="3.270150"><ele></ele><time>2014-4-4T22:9:30Z</time></trkpt>
<trkpt lat="42.277733" lon="3.270103"><ele></ele><time>2014-4-4T22:9:33Z</time></trkpt>
<trkpt lat="42.277648" lon="3.270032"><ele></ele><time>2014-4-4T22:9:36Z</time></trkpt>
<trkpt lat="42.277588" lon="3.269918"><ele></ele><time>2014-4-4T22:9:39Z</time></trkpt>
<trkpt lat="42.277512" lon="3.269810"><ele></ele><time>2014-4-4T22:9:42Z</time></trkpt>
<trkpt lat="42.277462" lon="3.269677"><ele></ele><time>2014-4-4T22:9:45Z</time></trkpt>
<trkpt lat="42.277412" lon="3.269545"><ele></ele><time>2014-4-4T22:9:48Z</time></trkpt>
<trkpt lat="42.277340" lon="3.269443"><ele></ele><time>2014-4-4T22:9:51Z</time></trkpt>
<trkpt lat="42.277222" lon="3.269430"><ele></ele><time>2014-4-4T22:9:54Z</time></trkpt>
<trkpt lat="42.277107" lon="3.269428"><ele></ele><time>2014-4-4T22:9:57Z</time></trkpt>
<trkpt lat="42.277012" lon="3.269357"><ele></ele><time>2014-4-4T22:10:0Z</time></trkpt>
<trkpt lat="42.276947" lon="3.269245"><ele></ele><time>2014-4-4T22:10:3Z</time></trkpt>
<trkpt lat="42.276882" lon="3.269138"><ele></ele><time>2014-4-4T22:10:6Z</time></trkpt>
<trkpt lat="42.276817" lon="3.269060"><ele></ele><time>2014-4-4T22:10:9Z</time></trkpt>
<trkpt lat="42.276825" lon="3.268933"><ele></ele><time>2014-4-4T22:10:12Z</time></trkpt>
<trkpt lat="42.276828" lon="3.268818"><ele></ele><time>2014-4-4T22:10:15Z</time></trkpt>
<trkpt lat="42.276837" lon="3.268702"><ele></ele><time>2014-4-4T22:10:18Z</time></trkpt>
<trkpt lat="42.276882" lon="3.268608"><ele></ele><time>2014-4-4T22:10:21Z</time></trkpt>
<trkpt lat="42.276935" lon="3.268515"><ele></ele><time>2014-4-4T22:10:24Z</time></trkpt>
<trkpt lat="42.276997" lon="3.268428"><ele></ele><time>2014-4-4T22:10:27Z</time></trkpt>
<trkpt lat="42.277042" lon="3.268335"><ele></ele><time>2014-4-4T22:10:30Z</time></trkpt>
<trkpt lat="42.277077" lon="3.268227"><ele></ele><time>2014-4-4T22:10:33Z</time></trkpt>
<trkpt lat="42.277112" lon="3.268113"><ele></ele><time>2014-4-4T22:10:36Z</time></trkpt>
<trkpt lat="42.277142" lon="3.267983"><ele></ele><time>2014-4-4T22:10:39Z</time></trkpt>
<trkpt lat="42.277165" lon="3.267838"><ele></ele><time>2014-4-4T22:10:42Z</time></trkpt>
<trkpt lat="42.277180" lon="3.267702"><ele></ele><time>2014-4-4T22:10:45Z</time></trkpt>
<trkpt lat="42.277207" lon="3.267567"><ele></ele><time>2014-4-4T22:10:48Z</time></trkpt>
<trkpt lat="42.277225" lon="3.267432"><ele></ele><time>2014-4-4T22:10:51Z</time></trkpt>
<trkpt lat="42.277275" lon="3.267285"><ele></ele><time>2014-4-4T22:10:54Z</time></trkpt>
<trkpt lat="42.277287" lon="3.267157"><ele></ele><time>2014-4-4T22:10:57Z</time></trkpt>
<trkpt lat="42.277287" lon="3.267035"><ele></ele><time>2014-4-4T22:11:0Z</time></trkpt>
<trkpt lat="42.277257" lon="3.266922"><ele></ele><time>2014-4-4T22:11:3Z</time></trkpt>
<trkpt lat="42.277177" lon="3.266840"><ele></ele><time>2014-4-4T22:11:6Z</time></trkpt>
<trkpt lat="42.277088" lon="3.266813"><ele></ele><time>2014-4-4T22:11:9Z</time></trkpt>
<trkpt lat="42.277000" lon="3.266835"><ele></ele><time>2014-4-4T22:11:12Z</time></trkpt>
<trkpt lat="42.276940" lon="3.266943"><ele></ele><time>2014-4-4T22:11:15Z</time></trkpt>
<trkpt lat="42.276902" lon="3.267077"><ele></ele><time>2014-4-4T22:11:18Z</time></trkpt>
<trkpt lat="42.276843" lon="3.267197"><ele></ele><time>2014-4-4T22:11:21Z</time></trkpt>
<trkpt lat="42.276763" lon="3.267287"><ele></ele><time>2014-4-4T22:11:24Z</time></trkpt>
<trkpt lat="42.276688" lon="3.267380"><ele></ele><time>2014-4-4T22:11:27Z</time></trkpt>
<trkpt lat="42.276612" lon="3.267478"><ele></ele><time>2014-4-4T22:11:30Z</time></trkpt>
<trkpt lat="42.276532" lon="3.267575"><ele></ele><time>2014-4-4T22:11:33Z</time></trkpt>
<trkpt lat="42.276452" lon="3.267613"><ele></ele><time>2014-4-4T22:11:36Z</time></trkpt>
<trkpt lat="42.276382" lon="3.267537"><ele></ele><time>2014-4-4T22:11:39Z</time></trkpt>
<trkpt lat="42.276390" lon="3.267405"><ele></ele><time>2014-4-4T22:11:42Z</time></trkpt>
<trkpt lat="42.276425" lon="3.267290"><ele></ele><time>2014-4-4T22:11:45Z</time></trkpt>
<trkpt lat="42.276420" lon="3.267167"><ele></ele><time>2014-4-4T22:11:48Z</time></trkpt>
<trkpt lat="42.276402" lon="3.267045"><ele></ele><time>2014-4-4T22:11:51Z</time></trkpt>
<trkpt lat="42.276390" lon="3.266925"><ele></ele><time>2014-4-4T22:11:54Z</time></trkpt>
<trkpt lat="42.276390" lon="3.266803"><ele></ele><time>2014-4-4T22:11:57Z</time></trkpt>
<trkpt lat="42.276360" lon="3.266688"><ele></ele><time>2014-4-4T22:12:0Z</time></trkpt>
<trkpt lat="42.276310" lon="3.266588"><ele></ele><time>2014-4-4T22:12:3Z</time></trkpt>
<trkpt lat="42.276253" lon="3.266497"><ele></ele><time>2014-4-4T22:12:6Z</time></trkpt>
<trkpt lat="42.276183" lon="3.266420"><ele></ele><time>2014-4-4T22:12:9Z</time></trkpt>
<trkpt lat="42.276100" lon="3.266378"><ele></ele><time>2014-4-4T22:12:12Z</time></trkpt>
<trkpt lat="42.276012" lon="3.266402"><ele></ele><time>2014-4-4T22:12:15Z</time></trkpt>
<trkpt lat="42.275982" lon="3.266515"><ele></ele><time>2014-4-4T22:12:18Z</time></trkpt>
<trkpt lat="42.276035" lon="3.266632"><ele></ele><time>2014-4-4T22:12:21Z</time></trkpt>
<trkpt lat="42.276055" lon="3.266758"><ele></ele><time>2014-4-4T22:12:24Z</time></trkpt>
<trkpt lat="42.276038" lon="3.266882"><ele></ele><time>2014-4-4T22:12:27Z</time></trkpt>
<trkpt lat="42.275997" lon="3.266995"><ele></ele><time>2014-4-4T22:12:30Z</time></trkpt>
<trkpt lat="42.275922" lon="3.267077"><ele></ele><time>2014-4-4T22:12:33Z</time></trkpt>
<trkpt lat="42.275830" lon="3.267102"><ele></ele><time>2014-4-4T22:12:36Z</time></trkpt>
<trkpt lat="42.275723" lon="3.267083"><ele></ele><time>2014-4-4T22:12:39Z</time></trkpt>
<trkpt lat="42.275632" lon="3.267100"><ele></ele><time>2014-4-4T22:12:42Z</time></trkpt>
<trkpt lat="42.275558" lon="3.267210"><ele></ele><time>2014-4-4T22:12:45Z</time></trkpt>
<trkpt lat="42.275482" lon="3.267288"><ele></ele><time>2014-4-4T22:12:48Z</time></trkpt>
<trkpt lat="42.275410" lon="3.267380"><ele></ele><time>2014-4-4T22:12:51Z</time></trkpt>
<trkpt lat="42.275342" lon="3.267472"><ele></ele><time>2014-4-4T22:12:54Z</time></trkpt>
<trkpt lat="42.275272" lon="3.267567"><ele></ele><time>2014-4-4T22:12:57Z</time></trkpt>
<trkpt lat="42.275197" lon="3.267652"><ele></ele><time>2014-4-4T22:13:0Z</time></trkpt>
<trkpt lat="42.275105" lon="3.267685"><ele></ele><time>2014-4-4T22:13:3Z</time></trkpt>
<trkpt lat="42.275025" lon="3.267615"><ele></ele><time>2014-4-4T22:13:6Z</time></trkpt>
<trkpt lat="42.274972" lon="3.267517"><ele></ele><time>2014-4-4T22:13:9Z</time></trkpt>
<trkpt lat="42.274952" lon="3.267393"><ele></ele><time>2014-4-4T22:13:12Z</time></trkpt>
<trkpt lat="42.274990" lon="3.267258"><ele></ele><time>2014-4-4T22:13:15Z</time></trkpt>
<trkpt lat="42.275047" lon="3.267142"><ele></ele><time>2014-4-4T22:13:18Z</time></trkpt>
<trkpt lat="42.275082" lon="3.267032"><ele></ele><time>2014-4-4T22:13:21Z</time></trkpt>
<trkpt lat="42.275105" lon="3.266915"><ele></ele><time>2014-4-4T22:13:24Z</time></trkpt>
<trkpt lat="42.275132" lon="3.266802"><ele></ele><time>2014-4-4T22:13:27Z</time></trkpt>
<trkpt lat="42.275153" lon="3.266682"><ele></ele><time>2014-4-4T22:13:30Z</time></trkpt>
<trkpt lat="42.275120" lon="3.266568"><ele></ele><time>2014-4-4T22:13:33Z</time></trkpt>
<trkpt lat="42.275055" lon="3.266490"><ele></ele><time>2014-4-4T22:13:36Z</time></trkpt>
<trkpt lat="42.274967" lon="3.266472"><ele></ele><time>2014-4-4T22:13:39Z</time></trkpt>
<trkpt lat="42.274887" lon="3.266430"><ele></ele><time>2014-4-4T22:13:42Z</time></trkpt>
<trkpt lat="42.274807" lon="3.266370"><ele></ele><time>2014-4-4T22:13:45Z</time></trkpt>
<trkpt lat="42.274723" lon="3.266318"><ele></ele><time>2014-4-4T22:13:48Z</time></trkpt>
<trkpt lat="42.274632" lon="3.266250"><ele></ele><time>2014-4-4T22:13:51Z</time></trkpt>
<trkpt lat="42.274540" lon="3.266215"><ele></ele><time>2014-4-4T22:13:54Z</time></trkpt>
<trkpt lat="42.274452" lon="3.266192"><ele></ele><time>2014-4-4T22:13:57Z</time></trkpt>
<trkpt lat="42.274365" lon="3.266160"><ele></ele><time>2014-4-4T22:14:0Z</time></trkpt>
<trkpt lat="42.274288" lon="3.266088"><ele></ele><time>2014-4-4T22:14:3Z</time></trkpt>
<trkpt lat="42.274242" lon="3.265982"><ele></ele><time>2014-4-4T22:14:6Z</time></trkpt>
<trkpt lat="42.274178" lon="3.265855"><ele></ele><time>2014-4-4T22:14:9Z</time></trkpt>
<trkpt lat="42.274078" lon="3.265842"><ele></ele><time>2014-4-4T22:14:12Z</time></trkpt>
<trkpt lat="42.273990" lon="3.265942"><ele></ele><time>2014-4-4T22:14:15Z</time></trkpt>
<trkpt lat="42.273903" lon="3.266052"><ele></ele><time>2014-4-4T22:14:18Z</time></trkpt>
<trkpt lat="42.273785" lon="3.266132"><ele></ele><time>2014-4-4T22:14:21Z</time></trkpt>
<trkpt lat="42.273658" lon="3.266190"><ele></ele><time>2014-4-4T22:14:24Z</time></trkpt>
<trkpt lat="42.273525" lon="3.266168"><ele></ele><time>2014-4-4T22:14:27Z</time></trkpt>
<trkpt lat="42.273410" lon="3.266070"><ele></ele><time>2014-4-4T22:14:30Z</time></trkpt>
<trkpt lat="42.273293" lon="3.265933"><ele></ele><time>2014-4-4T22:14:33Z</time></trkpt>
<trkpt lat="42.273175" lon="3.265793"><ele></ele><time>2014-4-4T22:14:36Z</time></trkpt>
<trkpt lat="42.273040" lon="3.265735"><ele></ele><time>2014-4-4T22:14:39Z</time></trkpt>
<trkpt lat="42.272938" lon="3.265605"><ele></ele><time>2014-4-4T22:14:42Z</time></trkpt>
<trkpt lat="42.272858" lon="3.265457"><ele></ele><time>2014-4-4T22:14:45Z</time></trkpt>
<trkpt lat="42.272755" lon="3.265312"><ele></ele><time>2014-4-4T22:14:48Z</time></trkpt>
<trkpt lat="42.272633" lon="3.265415"><ele></ele><time>2014-4-4T22:14:51Z</time></trkpt>
<trkpt lat="42.272643" lon="3.265642"><ele></ele><time>2014-4-4T22:14:54Z</time></trkpt>
<trkpt lat="42.272613" lon="3.265838"><ele></ele><time>2014-4-4T22:14:57Z</time></trkpt>
<trkpt lat="42.272545" lon="3.265997"><ele></ele><time>2014-4-4T22:15:0Z</time></trkpt>
<trkpt lat="42.272507" lon="3.266172"><ele></ele><time>2014-4-4T22:15:3Z</time></trkpt>
<trkpt lat="42.272480" lon="3.266378"><ele></ele><time>2014-4-4T22:15:6Z</time></trkpt>
<trkpt lat="42.272453" lon="3.266583"><ele></ele><time>2014-4-4T22:15:9Z</time></trkpt>
<trkpt lat="42.272408" lon="3.266757"><ele></ele><time>2014-4-4T22:15:12Z</time></trkpt>
<trkpt lat="42.272320" lon="3.266890"><ele></ele><time>2014-4-4T22:15:15Z</time></trkpt>
<trkpt lat="42.272210" lon="3.266968"><ele></ele><time>2014-4-4T22:15:18Z</time></trkpt>
<trkpt lat="42.272087" lon="3.267048"><ele></ele><time>2014-4-4T22:15:21Z</time></trkpt>
<trkpt lat="42.271962" lon="3.267120"><ele></ele><time>2014-4-4T22:15:24Z</time></trkpt>
<trkpt lat="42.271862" lon="3.267253"><ele></ele><time>2014-4-4T22:15:27Z</time></trkpt>
<trkpt lat="42.271767" lon="3.267413"><ele></ele><time>2014-4-4T22:15:30Z</time></trkpt>
<trkpt lat="42.271675" lon="3.267552"><ele></ele><time>2014-4-4T22:15:33Z</time></trkpt>
<trkpt lat="42.271583" lon="3.267683"><ele></ele><time>2014-4-4T22:15:36Z</time></trkpt>
<trkpt lat="42.271473" lon="3.267757"><ele></ele><time>2014-4-4T22:15:39Z</time></trkpt>
<trkpt lat="42.271373" lon="3.267850"><ele></ele><time>2014-4-4T22:15:42Z</time></trkpt>
<trkpt lat="42.271255" lon="3.267925"><ele></ele><time>2014-4-4T22:15:45Z</time></trkpt>
<trkpt lat="42.271145" lon="3.268005"><ele></ele><time>2014-4-4T22:15:48Z</time></trkpt>
<trkpt lat="42.271008" lon="3.268050"><ele></ele><time>2014-4-4T22:15:51Z</time></trkpt>
<trkpt lat="42.270852" lon="3.268097"><ele></ele><time>2014-4-4T22:15:54Z</time></trkpt>
<trkpt lat="42.270707" lon="3.268138"><ele></ele><time>2014-4-4T22:15:57Z</time></trkpt>
<trkpt lat="42.270550" lon="3.268190"><ele></ele><time>2014-4-4T22:16:0Z</time></trkpt>
<trkpt lat="42.270408" lon="3.268265"><ele></ele><time>2014-4-4T22:16:3Z</time></trkpt>
<trkpt lat="42.270260" lon="3.268342"><ele></ele><time>2014-4-4T22:16:6Z</time></trkpt>
<trkpt lat="42.270100" lon="3.268400"><ele></ele><time>2014-4-4T22:16:9Z</time></trkpt>
<trkpt lat="42.269940" lon="3.268305"><ele></ele><time>2014-4-4T22:16:12Z</time></trkpt>
<trkpt lat="42.269955" lon="3.268065"><ele></ele><time>2014-4-4T22:16:15Z</time></trkpt>
<trkpt lat="42.270053" lon="3.267837"><ele></ele><time>2014-4-4T22:16:18Z</time></trkpt>
<trkpt lat="42.269970" lon="3.267635"><ele></ele><time>2014-4-4T22:16:21Z</time></trkpt>
<trkpt lat="42.269843" lon="3.267585"><ele></ele><time>2014-4-4T22:16:24Z</time></trkpt>
<trkpt lat="42.269722" lon="3.267587"><ele></ele><time>2014-4-4T22:16:27Z</time></trkpt>
<trkpt lat="42.269608" lon="3.267590"><ele></ele><time>2014-4-4T22:16:30Z</time></trkpt>
<trkpt lat="42.269493" lon="3.267610"><ele></ele><time>2014-4-4T22:16:33Z</time></trkpt>
<trkpt lat="42.269387" lon="3.267650"><ele></ele><time>2014-4-4T22:16:36Z</time></trkpt>
<trkpt lat="42.269272" lon="3.267667"><ele></ele><time>2014-4-4T22:16:39Z</time></trkpt>
<trkpt lat="42.269162" lon="3.267700"><ele></ele><time>2014-4-4T22:16:42Z</time></trkpt>
<trkpt lat="42.269058" lon="3.267733"><ele></ele><time>2014-4-4T22:16:45Z</time></trkpt>
<trkpt lat="42.268952" lon="3.267777"><ele></ele><time>2014-4-4T22:16:48Z</time></trkpt>
<trkpt lat="42.268840" lon="3.267817"><ele></ele><time>2014-4-4T22:16:51Z</time></trkpt>
<trkpt lat="42.268730" lon="3.267862"><ele></ele><time>2014-4-4T22:16:54Z</time></trkpt>
<trkpt lat="42.268623" lon="3.267843"><ele></ele><time>2014-4-4T22:16:57Z</time></trkpt>
<trkpt lat="42.268505" lon="3.267820"><ele></ele><time>2014-4-4T22:17:0Z</time></trkpt>
<trkpt lat="42.268398" lon="3.267787"><ele></ele><time>2014-4-4T22:17:3Z</time></trkpt>
<trkpt lat="42.268307" lon="3.267697"><ele></ele><time>2014-4-4T22:17:6Z</time></trkpt>
<trkpt lat="42.268295" lon="3.267540"><ele></ele><time>2014-4-4T22:17:9Z</time></trkpt>
<trkpt lat="42.268345" lon="3.267398"><ele></ele><time>2014-4-4T22:17:12Z</time></trkpt>
<trkpt lat="42.268398" lon="3.267255"><ele></ele><time>2014-4-4T22:17:15Z</time></trkpt>
<trkpt lat="42.268448" lon="3.267110"><ele></ele><time>2014-4-4T22:17:18Z</time></trkpt>
<trkpt lat="42.268502" lon="3.266970"><ele></ele><time>2014-4-4T22:17:21Z</time></trkpt>
<trkpt lat="42.268535" lon="3.266840"><ele></ele><time>2014-4-4T22:17:24Z</time></trkpt>
<trkpt lat="42.268573" lon="3.266712"><ele></ele><time>2014-4-4T22:17:27Z</time></trkpt>
<trkpt lat="42.268623" lon="3.266580"><ele></ele><time>2014-4-4T22:17:30Z</time></trkpt>
<trkpt lat="42.268665" lon="3.266440"><ele></ele><time>2014-4-4T22:17:33Z</time></trkpt>
<trkpt lat="42.268723" lon="3.266293"><ele></ele><time>2014-4-4T22:17:36Z</time></trkpt>
<trkpt lat="42.268803" lon="3.266138"><ele></ele><time>2014-4-4T22:17:39Z</time></trkpt>
<trkpt lat="42.268830" lon="3.265917"><ele></ele><time>2014-4-4T22:17:42Z</time></trkpt>
<trkpt lat="42.268692" lon="3.265782"><ele></ele><time>2014-4-4T22:17:45Z</time></trkpt>
<trkpt lat="42.268493" lon="3.265825"><ele></ele><time>2014-4-4T22:17:48Z</time></trkpt>
<trkpt lat="42.268310" lon="3.265852"><ele></ele><time>2014-4-4T22:17:51Z</time></trkpt>
<trkpt lat="42.268173" lon="3.265758"><ele></ele><time>2014-4-4T22:17:54Z</time></trkpt>
<trkpt lat="42.268090" lon="3.265562"><ele></ele><time>2014-4-4T22:17:57Z</time></trkpt>
<trkpt lat="42.268063" lon="3.265292"><ele></ele><time>2014-4-4T22:18:0Z</time></trkpt>
<trkpt lat="42.268108" lon="3.264982"><ele></ele><time>2014-4-4T22:18:3Z</time></trkpt>
<trkpt lat="42.268123" lon="3.264642"><ele></ele><time>2014-4-4T22:18:6Z</time></trkpt>
<trkpt lat="42.268070" lon="3.264338"><ele></ele><time>2014-4-4T22:18:9Z</time></trkpt>
<trkpt lat="42.268002" lon="3.264078"><ele></ele><time>2014-4-4T22:18:12Z</time></trkpt>
<trkpt lat="42.267952" lon="3.263823"><ele></ele><time>2014-4-4T22:18:15Z</time></trkpt>
<trkpt lat="42.267945" lon="3.263550"><ele></ele><time>2014-4-4T22:18:18Z</time></trkpt>
<trkpt lat="42.267818" lon="3.263382"><ele></ele><time>2014-4-4T22:18:21Z</time></trkpt>
<trkpt lat="42.267590" lon="3.263458"><ele></ele><time>2014-4-4T22:18:24Z</time></trkpt>
<trkpt lat="42.267297" lon="3.263582"><ele></ele><time>2014-4-4T22:18:27Z</time></trkpt>
<trkpt lat="42.267002" lon="3.263602"><ele></ele><time>2014-4-4T22:18:30Z</time></trkpt>
<trkpt lat="42.266743" lon="3.263775"><ele></ele><time>2014-4-4T22:18:33Z</time></trkpt>
<trkpt lat="42.266513" lon="3.264073"><ele></ele><time>2014-4-4T22:18:36Z</time></trkpt>
<trkpt lat="42.266327" lon="3.264387"><ele></ele><time>2014-4-4T22:18:39Z</time></trkpt>
<trkpt lat="42.266113" lon="3.264683"><ele></ele><time>2014-4-4T22:18:42Z</time></trkpt>
<trkpt lat="42.265885" lon="3.264938"><ele></ele><time>2014-4-4T22:18:45Z</time></trkpt>
<trkpt lat="42.265652" lon="3.265163"><ele></ele><time>2014-4-4T22:18:48Z</time></trkpt>
<trkpt lat="42.265423" lon="3.265368"><ele></ele><time>2014-4-4T22:18:51Z</time></trkpt>
<trkpt lat="42.265163" lon="3.265582"><ele></ele><time>2014-4-4T22:18:54Z</time></trkpt>
<trkpt lat="42.264888" lon="3.265742"><ele></ele><time>2014-4-4T22:18:57Z</time></trkpt>
<trkpt lat="42.264622" lon="3.265668"><ele></ele><time>2014-4-4T22:19:0Z</time></trkpt>
<trkpt lat="42.264527" lon="3.265410"><ele></ele><time>2014-4-4T22:19:3Z</time></trkpt>
<trkpt lat="42.264497" lon="3.265147"><ele></ele><time>2014-4-4T22:19:6Z</time></trkpt>
<trkpt lat="42.264432" lon="3.264885"><ele></ele><time>2014-4-4T22:19:9Z</time></trkpt>
<trkpt lat="42.264340" lon="3.264640"><ele></ele><time>2014-4-4T22:19:12Z</time></trkpt>
<trkpt lat="42.264248" lon="3.264393"><ele></ele><time>2014-4-4T22:19:15Z</time></trkpt>
<trkpt lat="42.264168" lon="3.264123"><ele></ele><time>2014-4-4T22:19:18Z</time></trkpt>
<trkpt lat="42.263985" lon="3.263943"><ele></ele><time>2014-4-4T22:19:21Z</time></trkpt>
<trkpt lat="42.263745" lon="3.263920"><ele></ele><time>2014-4-4T22:19:24Z</time></trkpt>
<trkpt lat="42.263573" lon="3.263777"><ele></ele><time>2014-4-4T22:19:27Z</time></trkpt>
<trkpt lat="42.263485" lon="3.263568"><ele></ele><time>2014-4-4T22:19:30Z</time></trkpt>
<trkpt lat="42.263488" lon="3.263353"><ele></ele><time>2014-4-4T22:19:33Z</time></trkpt>
<trkpt lat="42.263488" lon="3.263140"><ele></ele><time>2014-4-4T22:19:36Z</time></trkpt>
<trkpt lat="42.263515" lon="3.262938"><ele></ele><time>2014-4-4T22:19:39Z</time></trkpt>
<trkpt lat="42.263562" lon="3.262720"><ele></ele><time>2014-4-4T22:19:42Z</time></trkpt>
<trkpt lat="42.263565" lon="3.262488"><ele></ele><time>2014-4-4T22:19:45Z</time></trkpt>
<trkpt lat="42.263583" lon="3.262290"><ele></ele><time>2014-4-4T22:19:48Z</time></trkpt>
<trkpt lat="42.263615" lon="3.262078"><ele></ele><time>2014-4-4T22:19:51Z</time></trkpt>
<trkpt lat="42.263638" lon="3.261858"><ele></ele><time>2014-4-4T22:19:54Z</time></trkpt>
<trkpt lat="42.263645" lon="3.261662"><ele></ele><time>2014-4-4T22:19:57Z</time></trkpt>
<trkpt lat="42.263648" lon="3.261468"><ele></ele><time>2014-4-4T22:20:0Z</time></trkpt>
<trkpt lat="42.263642" lon="3.261275"><ele></ele><time>2014-4-4T22:20:3Z</time></trkpt>
<trkpt lat="42.263618" lon="3.261095"><ele></ele><time>2014-4-4T22:20:6Z</time></trkpt>
<trkpt lat="42.263657" lon="3.260922"><ele></ele><time>2014-4-4T22:20:9Z</time></trkpt>
<trkpt lat="42.263707" lon="3.260720"><ele></ele><time>2014-4-4T22:20:12Z</time></trkpt>
<trkpt lat="42.263775" lon="3.260512"><ele></ele><time>2014-4-4T22:20:15Z</time></trkpt>
<trkpt lat="42.263878" lon="3.260317"><ele></ele><time>2014-4-4T22:20:18Z</time></trkpt>
<trkpt lat="42.264000" lon="3.260185"><ele></ele><time>2014-4-4T22:20:21Z</time></trkpt>
<trkpt lat="42.264118" lon="3.260017"><ele></ele><time>2014-4-4T22:20:24Z</time></trkpt>
<trkpt lat="42.264195" lon="3.259913"><ele></ele><time>2014-4-4T22:20:27Z</time></trkpt>
<trkpt lat="42.264202" lon="3.259902"><ele></ele><time>2014-4-4T22:20:30Z</time></trkpt>
<trkpt lat="42.264207" lon="3.259905"><ele></ele><time>2014-4-4T22:20:33Z</time></trkpt>
<trkpt lat="42.264213" lon="3.259907"><ele></ele><time>2014-4-4T22:20:36Z</time></trkpt>
<trkpt lat="42.264225" lon="3.259887"><ele></ele><time>2014-4-4T22:20:39Z</time></trkpt>
<trkpt lat="42.264243" lon="3.259837"><ele></ele><time>2014-4-4T22:20:42Z</time></trkpt>
<trkpt lat="42.264320" lon="3.259763"><ele></ele><time>2014-4-4T22:20:45Z</time></trkpt>
<trkpt lat="42.264450" lon="3.259675"><ele></ele><time>2014-4-4T22:20:48Z</time></trkpt>
<trkpt lat="42.264625" lon="3.259600"><ele></ele><time>2014-4-4T22:20:51Z</time></trkpt>
<trkpt lat="42.264793" lon="3.259493"><ele></ele><time>2014-4-4T22:20:54Z</time></trkpt>
<trkpt lat="42.264927" lon="3.259292"><ele></ele><time>2014-4-4T22:20:57Z</time></trkpt>
<trkpt lat="42.265048" lon="3.259050"><ele></ele><time>2014-4-4T22:21:0Z</time></trkpt>
<trkpt lat="42.265155" lon="3.258830"><ele></ele><time>2014-4-4T22:21:3Z</time></trkpt>
<trkpt lat="42.265247" lon="3.258630"><ele></ele><time>2014-4-4T22:21:6Z</time></trkpt>
<trkpt lat="42.265320" lon="3.258433"><ele></ele><time>2014-4-4T22:21:9Z</time></trkpt>
<trkpt lat="42.265338" lon="3.258223"><ele></ele><time>2014-4-4T22:21:12Z</time></trkpt>
<trkpt lat="42.265335" lon="3.258018"><ele></ele><time>2014-4-4T22:21:15Z</time></trkpt>
<trkpt lat="42.265335" lon="3.257800"><ele></ele><time>2014-4-4T22:21:18Z</time></trkpt>
<trkpt lat="42.265343" lon="3.257583"><ele></ele><time>2014-4-4T22:21:21Z</time></trkpt>
<trkpt lat="42.265358" lon="3.257367"><ele></ele><time>2014-4-4T22:21:24Z</time></trkpt>
<trkpt lat="42.265377" lon="3.257138"><ele></ele><time>2014-4-4T22:21:27Z</time></trkpt>
<trkpt lat="42.265403" lon="3.256897"><ele></ele><time>2014-4-4T22:21:30Z</time></trkpt>
<trkpt lat="42.265462" lon="3.256658"><ele></ele><time>2014-4-4T22:21:33Z</time></trkpt>
<trkpt lat="42.265530" lon="3.256422"><ele></ele><time>2014-4-4T22:21:36Z</time></trkpt>
<trkpt lat="42.265602" lon="3.256187"><ele></ele><time>2014-4-4T22:21:39Z</time></trkpt>
<trkpt lat="42.265675" lon="3.255948"><ele></ele><time>2014-4-4T22:21:42Z</time></trkpt>
<trkpt lat="42.265740" lon="3.255710"><ele></ele><time>2014-4-4T22:21:45Z</time></trkpt>
<trkpt lat="42.265832" lon="3.255498"><ele></ele><time>2014-4-4T22:21:48Z</time></trkpt>
<trkpt lat="42.265987" lon="3.255365"><ele></ele><time>2014-4-4T22:21:51Z</time></trkpt>
<trkpt lat="42.266185" lon="3.255290"><ele></ele><time>2014-4-4T22:21:54Z</time></trkpt>
<trkpt lat="42.266407" lon="3.255182"><ele></ele><time>2014-4-4T22:21:57Z</time></trkpt>
<trkpt lat="42.266643" lon="3.255103"><ele></ele><time>2014-4-4T22:22:0Z</time></trkpt>
<trkpt lat="42.266888" lon="3.255108"><ele></ele><time>2014-4-4T22:22:3Z</time></trkpt>
<trkpt lat="42.267105" lon="3.255022"><ele></ele><time>2014-4-4T22:22:6Z</time></trkpt>
<trkpt lat="42.267128" lon="3.254713"><ele></ele><time>2014-4-4T22:22:9Z</time></trkpt>
<trkpt lat="42.267167" lon="3.254413"><ele></ele><time>2014-4-4T22:22:12Z</time></trkpt>
<trkpt lat="42.267312" lon="3.254152"><ele></ele><time>2014-4-4T22:22:15Z</time></trkpt>
<trkpt lat="42.267517" lon="3.253992"><ele></ele><time>2014-4-4T22:22:18Z</time></trkpt>
<trkpt lat="42.267783" lon="3.253912"><ele></ele><time>2014-4-4T22:22:21Z</time></trkpt>
<trkpt lat="42.267987" lon="3.253853"><ele></ele><time>2014-4-4T22:22:24Z</time></trkpt>
<trkpt lat="42.268127" lon="3.253835"><ele></ele><time>2014-4-4T22:22:27Z</time></trkpt>
<trkpt lat="42.268185" lon="3.253623"><ele></ele><time>2014-4-4T22:22:30Z</time></trkpt>
<trkpt lat="42.268037" lon="3.253340"><ele></ele><time>2014-4-4T22:22:33Z</time></trkpt>
<trkpt lat="42.267853" lon="3.253057"><ele></ele><time>2014-4-4T22:22:36Z</time></trkpt>
<trkpt lat="42.267792" lon="3.252700"><ele></ele><time>2014-4-4T22:22:39Z</time></trkpt>
<trkpt lat="42.267898" lon="3.252295"><ele></ele><time>2014-4-4T22:22:42Z</time></trkpt>
<trkpt lat="42.267960" lon="3.251840"><ele></ele><time>2014-4-4T22:22:45Z</time></trkpt>
<trkpt lat="42.267845" lon="3.251388"><ele></ele><time>2014-4-4T22:22:48Z</time></trkpt>
<trkpt lat="42.267608" lon="3.251027"><ele></ele><time>2014-4-4T22:22:51Z</time></trkpt>
<trkpt lat="42.267357" lon="3.250635"><ele></ele><time>2014-4-4T22:22:54Z</time></trkpt>
<trkpt lat="42.267182" lon="3.250182"><ele></ele><time>2014-4-4T22:22:57Z</time></trkpt>
<trkpt lat="42.267315" lon="3.249655"><ele></ele><time>2014-4-4T22:23:0Z</time></trkpt>
<trkpt lat="42.267552" lon="3.249242"><ele></ele><time>2014-4-4T22:23:3Z</time></trkpt>
<trkpt lat="42.267495" lon="3.248968"><ele></ele><time>2014-4-4T22:23:6Z</time></trkpt>
<trkpt lat="42.267193" lon="3.249030"><ele></ele><time>2014-4-4T22:23:9Z</time></trkpt>
<trkpt lat="42.266853" lon="3.249162"><ele></ele><time>2014-4-4T22:23:12Z</time></trkpt>
<trkpt lat="42.266510" lon="3.249178"><ele></ele><time>2014-4-4T22:23:15Z</time></trkpt>
<trkpt lat="42.266125" lon="3.249220"><ele></ele><time>2014-4-4T22:23:18Z</time></trkpt>
<trkpt lat="42.265728" lon="3.249353"><ele></ele><time>2014-4-4T22:23:21Z</time></trkpt>
<trkpt lat="42.265338" lon="3.249478"><ele></ele><time>2014-4-4T22:23:24Z</time></trkpt>
<trkpt lat="42.264968" lon="3.249272"><ele></ele><time>2014-4-4T22:23:27Z</time></trkpt>
<trkpt lat="42.264637" lon="3.248853"><ele></ele><time>2014-4-4T22:23:30Z</time></trkpt>
<trkpt lat="42.264297" lon="3.248468"><ele></ele><time>2014-4-4T22:23:33Z</time></trkpt>
<trkpt lat="42.264083" lon="3.248075"><ele></ele><time>2014-4-4T22:23:36Z</time></trkpt>
<trkpt lat="42.264142" lon="3.247583"><ele></ele><time>2014-4-4T22:23:39Z</time></trkpt>
<trkpt lat="42.263878" lon="3.247383"><ele></ele><time>2014-4-4T22:23:42Z</time></trkpt>
<trkpt lat="42.263512" lon="3.247297"><ele></ele><time>2014-4-4T22:23:45Z</time></trkpt>
<trkpt lat="42.263138" lon="3.247033"><ele></ele><time>2014-4-4T22:23:48Z</time></trkpt>
<trkpt lat="42.262902" lon="3.246663"><ele></ele><time>2014-4-4T22:23:51Z</time></trkpt>
<trkpt lat="42.262955" lon="3.246148"><ele></ele><time>2014-4-4T22:23:54Z</time></trkpt>
<trkpt lat="42.262772" lon="3.245705"><ele></ele><time>2014-4-4T22:23:57Z</time></trkpt>
<trkpt lat="42.262410" lon="3.245490"><ele></ele><time>2014-4-4T22:24:0Z</time></trkpt>
<trkpt lat="42.262112" lon="3.245215"><ele></ele><time>2014-4-4T22:24:3Z</time></trkpt>
<trkpt lat="42.262020" lon="3.244730"><ele></ele><time>2014-4-4T22:24:6Z</time></trkpt>
<trkpt lat="42.262248" lon="3.244327"><ele></ele><time>2014-4-4T22:24:9Z</time></trkpt>
<trkpt lat="42.262508" lon="3.243973"><ele></ele><time>2014-4-4T22:24:12Z</time></trkpt>
<trkpt lat="42.262657" lon="3.243747"><ele></ele><time>2014-4-4T22:24:15Z</time></trkpt>
<trkpt lat="42.262417" lon="3.243745"><ele></ele><time>2014-4-4T22:24:18Z</time></trkpt>
<trkpt lat="42.262120" lon="3.244002"><ele></ele><time>2014-4-4T22:24:21Z</time></trkpt>
<trkpt lat="42.261760" lon="3.244182"><ele></ele><time>2014-4-4T22:24:24Z</time></trkpt>
<trkpt lat="42.261555" lon="3.244658"><ele></ele><time>2014-4-4T22:24:27Z</time></trkpt>
<trkpt lat="42.261375" lon="3.245133"><ele></ele><time>2014-4-4T22:24:30Z</time></trkpt>
<trkpt lat="42.261227" lon="3.245608"><ele></ele><time>2014-4-4T22:24:33Z</time></trkpt>
<trkpt lat="42.261342" lon="3.246050"><ele></ele><time>2014-4-4T22:24:36Z</time></trkpt>
<trkpt lat="42.261668" lon="3.246363"><ele></ele><time>2014-4-4T22:24:39Z</time></trkpt>
<trkpt lat="42.261688" lon="3.246858"><ele></ele><time>2014-4-4T22:24:42Z</time></trkpt>
<trkpt lat="42.261685" lon="3.247395"><ele></ele><time>2014-4-4T22:24:45Z</time></trkpt>
<trkpt lat="42.261768" lon="3.247915"><ele></ele><time>2014-4-4T22:24:48Z</time></trkpt>
<trkpt lat="42.261943" lon="3.248357"><ele></ele><time>2014-4-4T22:24:51Z</time></trkpt>
<trkpt lat="42.261753" lon="3.248605"><ele></ele><time>2014-4-4T22:24:54Z</time></trkpt>
<trkpt lat="42.261433" lon="3.248650"><ele></ele><time>2014-4-4T22:24:57Z</time></trkpt>
<trkpt lat="42.261093" lon="3.248748"><ele></ele><time>2014-4-4T22:25:0Z</time></trkpt>
<trkpt lat="42.260753" lon="3.248992"><ele></ele><time>2014-4-4T22:25:3Z</time></trkpt>
<trkpt lat="42.260398" lon="3.249148"><ele></ele><time>2014-4-4T22:25:6Z</time></trkpt>
<trkpt lat="42.260147" lon="3.249352"><ele></ele><time>2014-4-4T22:25:9Z</time></trkpt>
<trkpt lat="42.260125" lon="3.249190"><ele></ele><time>2014-4-4T22:25:12Z</time></trkpt>
<trkpt lat="42.260338" lon="3.248983"><ele></ele><time>2014-4-4T22:25:15Z</time></trkpt>
<trkpt lat="42.260647" lon="3.248762"><ele></ele><time>2014-4-4T22:25:18Z</time></trkpt>
<trkpt lat="42.260913" lon="3.248458"><ele></ele><time>2014-4-4T22:25:21Z</time></trkpt>
<trkpt lat="42.261203" lon="3.248222"><ele></ele><time>2014-4-4T22:25:24Z</time></trkpt>
<trkpt lat="42.261170" lon="3.247840"><ele></ele><time>2014-4-4T22:25:27Z</time></trkpt>
<trkpt lat="42.260972" lon="3.247422"><ele></ele><time>2014-4-4T22:25:30Z</time></trkpt>
<trkpt lat="42.260838" lon="3.246965"><ele></ele><time>2014-4-4T22:25:33Z</time></trkpt>
<trkpt lat="42.260528" lon="3.246768"><ele></ele><time>2014-4-4T22:25:36Z</time></trkpt>
<trkpt lat="42.260333" lon="3.246683"><ele></ele><time>2014-4-4T22:25:39Z</time></trkpt>
<trkpt lat="42.260288" lon="3.246663"><ele></ele><time>2014-4-4T22:25:42Z</time></trkpt>
<trkpt lat="42.260288" lon="3.246663"><ele></ele><time>2014-4-4T22:25:45Z</time></trkpt>
<trkpt lat="42.260277" lon="3.246657"><ele></ele><time>2014-4-4T22:25:48Z</time></trkpt>
<trkpt lat="42.260253" lon="3.246678"><ele></ele><time>2014-4-4T22:25:51Z</time></trkpt>
<trkpt lat="42.260182" lon="3.246657"><ele></ele><time>2014-4-4T22:25:54Z</time></trkpt>
<trkpt lat="42.260037" lon="3.246608"><ele></ele><time>2014-4-4T22:25:57Z</time></trkpt>
<trkpt lat="42.259937" lon="3.246422"><ele></ele><time>2014-4-4T22:26:0Z</time></trkpt>
<trkpt lat="42.259845" lon="3.246190"><ele></ele><time>2014-4-4T22:26:3Z</time></trkpt>
<trkpt lat="42.259765" lon="3.245932"><ele></ele><time>2014-4-4T22:26:6Z</time></trkpt>
<trkpt lat="42.259773" lon="3.245670"><ele></ele><time>2014-4-4T22:26:9Z</time></trkpt>
<trkpt lat="42.259877" lon="3.245520"><ele></ele><time>2014-4-4T22:26:12Z</time></trkpt>
<trkpt lat="42.259995" lon="3.245375"><ele></ele><time>2014-4-4T22:26:15Z</time></trkpt>
<trkpt lat="42.260120" lon="3.245242"><ele></ele><time>2014-4-4T22:26:18Z</time></trkpt>
<trkpt lat="42.260197" lon="3.245113"><ele></ele><time>2014-4-4T22:26:21Z</time></trkpt>
<trkpt lat="42.260268" lon="3.245007"><ele></ele><time>2014-4-4T22:26:24Z</time></trkpt>
<trkpt lat="42.260327" lon="3.244873"><ele></ele><time>2014-4-4T22:26:27Z</time></trkpt>
<trkpt lat="42.260323" lon="3.244717"><ele></ele><time>2014-4-4T22:26:30Z</time></trkpt>
<trkpt lat="42.260212" lon="3.244662"><ele></ele><time>2014-4-4T22:26:33Z</time></trkpt>
<trkpt lat="42.260108" lon="3.244750"><ele></ele><time>2014-4-4T22:26:36Z</time></trkpt>
<trkpt lat="42.260033" lon="3.244882"><ele></ele><time>2014-4-4T22:26:39Z</time></trkpt>
<trkpt lat="42.259963" lon="3.245022"><ele></ele><time>2014-4-4T22:26:42Z</time></trkpt>
<trkpt lat="42.259880" lon="3.245150"><ele></ele><time>2014-4-4T22:26:45Z</time></trkpt>
<trkpt lat="42.259785" lon="3.245288"><ele></ele><time>2014-4-4T22:26:48Z</time></trkpt>
<trkpt lat="42.259700" lon="3.245433"><ele></ele><time>2014-4-4T22:26:51Z</time></trkpt>
<trkpt lat="42.259590" lon="3.245533"><ele></ele><time>2014-4-4T22:26:54Z</time></trkpt>
<trkpt lat="42.259453" lon="3.245583"><ele></ele><time>2014-4-4T22:26:57Z</time></trkpt>
<trkpt lat="42.259315" lon="3.245577"><ele></ele><time>2014-4-4T22:27:0Z</time></trkpt>
<trkpt lat="42.259178" lon="3.245533"><ele></ele><time>2014-4-4T22:27:3Z</time></trkpt>
<trkpt lat="42.259037" lon="3.245435"><ele></ele><time>2014-4-4T22:27:6Z</time></trkpt>
<trkpt lat="42.258915" lon="3.245445"><ele></ele><time>2014-4-4T22:27:9Z</time></trkpt>
<trkpt lat="42.258853" lon="3.245587"><ele></ele><time>2014-4-4T22:27:12Z</time></trkpt>
<trkpt lat="42.258885" lon="3.245745"><ele></ele><time>2014-4-4T22:27:15Z</time></trkpt>
<trkpt lat="42.258953" lon="3.245883"><ele></ele><time>2014-4-4T22:27:18Z</time></trkpt>
<trkpt lat="42.259010" lon="3.246020"><ele></ele><time>2014-4-4T22:27:21Z</time></trkpt>
<trkpt lat="42.259060" lon="3.246148"><ele></ele><time>2014-4-4T22:27:24Z</time></trkpt>
<trkpt lat="42.259105" lon="3.246253"><ele></ele><time>2014-4-4T22:27:27Z</time></trkpt>
<trkpt lat="42.259117" lon="3.246387"><ele></ele><time>2014-4-4T22:27:30Z</time></trkpt>
<trkpt lat="42.259137" lon="3.246547"><ele></ele><time>2014-4-4T22:27:33Z</time></trkpt>
<trkpt lat="42.259148" lon="3.246682"><ele></ele><time>2014-4-4T22:27:36Z</time></trkpt>
<trkpt lat="42.259155" lon="3.246817"><ele></ele><time>2014-4-4T22:27:39Z</time></trkpt>
<trkpt lat="42.259175" lon="3.246948"><ele></ele><time>2014-4-4T22:27:42Z</time></trkpt>
<trkpt lat="42.259178" lon="3.247073"><ele></ele><time>2014-4-4T22:27:45Z</time></trkpt>
<trkpt lat="42.259190" lon="3.247210"><ele></ele><time>2014-4-4T22:27:48Z</time></trkpt>
<trkpt lat="42.259175" lon="3.247332"><ele></ele><time>2014-4-4T22:27:51Z</time></trkpt>
<trkpt lat="42.259143" lon="3.247445"><ele></ele><time>2014-4-4T22:27:54Z</time></trkpt>
<trkpt lat="42.259083" lon="3.247543"><ele></ele><time>2014-4-4T22:27:57Z</time></trkpt>
<trkpt lat="42.258983" lon="3.247605"><ele></ele><time>2014-4-4T22:28:0Z</time></trkpt>
<trkpt lat="42.258885" lon="3.247643"><ele></ele><time>2014-4-4T22:28:3Z</time></trkpt>
<trkpt lat="42.258788" lon="3.247660"><ele></ele><time>2014-4-4T22:28:6Z</time></trkpt>
<trkpt lat="42.258702" lon="3.247670"><ele></ele><time>2014-4-4T22:28:9Z</time></trkpt>
<trkpt lat="42.258622" lon="3.247675"><ele></ele><time>2014-4-4T22:28:12Z</time></trkpt>
<trkpt lat="42.258530" lon="3.247688"><ele></ele><time>2014-4-4T22:28:15Z</time></trkpt>
<trkpt lat="42.258430" lon="3.247700"><ele></ele><time>2014-4-4T22:28:18Z</time></trkpt>
<trkpt lat="42.258332" lon="3.247725"><ele></ele><time>2014-4-4T22:28:21Z</time></trkpt>
<trkpt lat="42.258213" lon="3.247777"><ele></ele><time>2014-4-4T22:28:24Z</time></trkpt>
<trkpt lat="42.258110" lon="3.247835"><ele></ele><time>2014-4-4T22:28:27Z</time></trkpt>
<trkpt lat="42.258022" lon="3.247893"><ele></ele><time>2014-4-4T22:28:30Z</time></trkpt>
<trkpt lat="42.257947" lon="3.247975"><ele></ele><time>2014-4-4T22:28:33Z</time></trkpt>
<trkpt lat="42.257870" lon="3.248077"><ele></ele><time>2014-4-4T22:28:36Z</time></trkpt>
<trkpt lat="42.257790" lon="3.248203"><ele></ele><time>2014-4-4T22:28:39Z</time></trkpt>
<trkpt lat="42.257702" lon="3.248327"><ele></ele><time>2014-4-4T22:28:42Z</time></trkpt>
<trkpt lat="42.257598" lon="3.248442"><ele></ele><time>2014-4-4T22:28:45Z</time></trkpt>
<trkpt lat="42.257485" lon="3.248577"><ele></ele><time>2014-4-4T22:28:48Z</time></trkpt>
<trkpt lat="42.257385" lon="3.248700"><ele></ele><time>2014-4-4T22:28:51Z</time></trkpt>
<trkpt lat="42.257298" lon="3.248813"><ele></ele><time>2014-4-4T22:28:54Z</time></trkpt>
<trkpt lat="42.257222" lon="3.248923"><ele></ele><time>2014-4-4T22:28:57Z</time></trkpt>
<trkpt lat="42.257137" lon="3.249037"><ele></ele><time>2014-4-4T22:29:0Z</time></trkpt>
<trkpt lat="42.257050" lon="3.249145"><ele></ele><time>2014-4-4T22:29:3Z</time></trkpt>
<trkpt lat="42.256950" lon="3.249240"><ele></ele><time>2014-4-4T22:29:6Z</time></trkpt>
<trkpt lat="42.256828" lon="3.249282"><ele></ele><time>2014-4-4T22:29:9Z</time></trkpt>
<trkpt lat="42.256710" lon="3.249255"><ele></ele><time>2014-4-4T22:29:12Z</time></trkpt>
<trkpt lat="42.256592" lon="3.249178"><ele></ele><time>2014-4-4T22:29:15Z</time></trkpt>
<trkpt lat="42.256508" lon="3.249067"><ele></ele><time>2014-4-4T22:29:18Z</time></trkpt>
<trkpt lat="42.256462" lon="3.248925"><ele></ele><time>2014-4-4T22:29:21Z</time></trkpt>
<trkpt lat="42.256423" lon="3.248792"><ele></ele><time>2014-4-4T22:29:24Z</time></trkpt>
<trkpt lat="42.256382" lon="3.248657"><ele></ele><time>2014-4-4T22:29:27Z</time></trkpt>
<trkpt lat="42.256328" lon="3.248550"><ele></ele><time>2014-4-4T22:29:30Z</time></trkpt>
<trkpt lat="42.256222" lon="3.248480"><ele></ele><time>2014-4-4T22:29:33Z</time></trkpt>
<trkpt lat="42.256097" lon="3.248495"><ele></ele><time>2014-4-4T22:29:36Z</time></trkpt>
<trkpt lat="42.255988" lon="3.248550"><ele></ele><time>2014-4-4T22:29:39Z</time></trkpt>
<trkpt lat="42.255887" lon="3.248617"><ele></ele><time>2014-4-4T22:29:42Z</time></trkpt>
<trkpt lat="42.255772" lon="3.248652"><ele></ele><time>2014-4-4T22:29:45Z</time></trkpt>
<trkpt lat="42.255645" lon="3.248712"><ele></ele><time>2014-4-4T22:29:48Z</time></trkpt>
<trkpt lat="42.255547" lon="3.248800"><ele></ele><time>2014-4-4T22:29:51Z</time></trkpt>
<trkpt lat="42.255458" lon="3.248905"><ele></ele><time>2014-4-4T22:29:54Z</time></trkpt>
<trkpt lat="42.255367" lon="3.248993"><ele></ele><time>2014-4-4T22:29:57Z</time></trkpt>
<trkpt lat="42.255280" lon="3.249078"><ele></ele><time>2014-4-4T22:30:0Z</time></trkpt>
<trkpt lat="42.255192" lon="3.249162"><ele></ele><time>2014-4-4T22:30:3Z</time></trkpt>
<trkpt lat="42.255100" lon="3.249257"><ele></ele><time>2014-4-4T22:30:6Z</time></trkpt>
<trkpt lat="42.255005" lon="3.249318"><ele></ele><time>2014-4-4T22:30:9Z</time></trkpt>
<trkpt lat="42.254905" lon="3.249360"><ele></ele><time>2014-4-4T22:30:12Z</time></trkpt>
<trkpt lat="42.254803" lon="3.249397"><ele></ele><time>2014-4-4T22:30:15Z</time></trkpt>
<trkpt lat="42.254700" lon="3.249435"><ele></ele><time>2014-4-4T22:30:18Z</time></trkpt>
<trkpt lat="42.254585" lon="3.249468"><ele></ele><time>2014-4-4T22:30:21Z</time></trkpt>
<trkpt lat="42.254467" lon="3.249490"><ele></ele><time>2014-4-4T22:30:24Z</time></trkpt>
<trkpt lat="42.254353" lon="3.249493"><ele></ele><time>2014-4-4T22:30:27Z</time></trkpt>
<trkpt lat="42.254235" lon="3.249472"><ele></ele><time>2014-4-4T22:30:30Z</time></trkpt>
<trkpt lat="42.254138" lon="3.249403"><ele></ele><time>2014-4-4T22:30:33Z</time></trkpt>
<trkpt lat="42.254047" lon="3.249303"><ele></ele><time>2014-4-4T22:30:36Z</time></trkpt>
<trkpt lat="42.253972" lon="3.249190"><ele></ele><time>2014-4-4T22:30:39Z</time></trkpt>
<trkpt lat="42.253910" lon="3.249048"><ele></ele><time>2014-4-4T22:30:42Z</time></trkpt>
<trkpt lat="42.253818" lon="3.248905"><ele></ele><time>2014-4-4T22:30:45Z</time></trkpt>
<trkpt lat="42.253703" lon="3.248730"><ele></ele><time>2014-4-4T22:30:48Z</time></trkpt>
<trkpt lat="42.253552" lon="3.248518"><ele></ele><time>2014-4-4T22:30:51Z</time></trkpt>
<trkpt lat="42.253395" lon="3.248307"><ele></ele><time>2014-4-4T22:30:54Z</time></trkpt>
<trkpt lat="42.253360" lon="3.248022"><ele></ele><time>2014-4-4T22:30:57Z</time></trkpt>
<trkpt lat="42.253345" lon="3.247732"><ele></ele><time>2014-4-4T22:31:0Z</time></trkpt>
<trkpt lat="42.253098" lon="3.247770"><ele></ele><time>2014-4-4T22:31:3Z</time></trkpt>
<trkpt lat="42.252803" lon="3.247840"><ele></ele><time>2014-4-4T22:31:6Z</time></trkpt>
<trkpt lat="42.252557" lon="3.247620"><ele></ele><time>2014-4-4T22:31:9Z</time></trkpt>
<trkpt lat="42.252602" lon="3.247252"><ele></ele><time>2014-4-4T22:31:12Z</time></trkpt>
<trkpt lat="42.252593" lon="3.246982"><ele></ele><time>2014-4-4T22:31:15Z</time></trkpt>
<trkpt lat="42.252365" lon="3.247133"><ele></ele><time>2014-4-4T22:31:18Z</time></trkpt>
<trkpt lat="42.252122" lon="3.247338"><ele></ele><time>2014-4-4T22:31:21Z</time></trkpt>
<trkpt lat="42.251873" lon="3.247535"><ele></ele><time>2014-4-4T22:31:24Z</time></trkpt>
<trkpt lat="42.251583" lon="3.247605"><ele></ele><time>2014-4-4T22:31:27Z</time></trkpt>
<trkpt lat="42.251258" lon="3.247588"><ele></ele><time>2014-4-4T22:31:30Z</time></trkpt>
<trkpt lat="42.250930" lon="3.247705"><ele></ele><time>2014-4-4T22:31:33Z</time></trkpt>
<trkpt lat="42.250583" lon="3.247773"><ele></ele><time>2014-4-4T22:31:36Z</time></trkpt>
<trkpt lat="42.250325" lon="3.248123"><ele></ele><time>2014-4-4T22:31:39Z</time></trkpt>
<trkpt lat="42.250077" lon="3.248467"><ele></ele><time>2014-4-4T22:31:42Z</time></trkpt>
<trkpt lat="42.249725" lon="3.248535"><ele></ele><time>2014-4-4T22:31:45Z</time></trkpt>
<trkpt lat="42.249405" lon="3.248727"><ele></ele><time>2014-4-4T22:31:48Z</time></trkpt>
<trkpt lat="42.249278" lon="3.249178"><ele></ele><time>2014-4-4T22:31:51Z</time></trkpt>
<trkpt lat="42.249000" lon="3.249472"><ele></ele><time>2014-4-4T22:31:54Z</time></trkpt>
<trkpt lat="42.248680" lon="3.249453"><ele></ele><time>2014-4-4T22:31:57Z</time></trkpt>
<trkpt lat="42.248463" lon="3.249057"><ele></ele><time>2014-4-4T22:32:0Z</time></trkpt>
<trkpt lat="42.248325" lon="3.248575"><ele></ele><time>2014-4-4T22:32:3Z</time></trkpt>
<trkpt lat="42.248260" lon="3.248043"><ele></ele><time>2014-4-4T22:32:6Z</time></trkpt>
<trkpt lat="42.248200" lon="3.247532"><ele></ele><time>2014-4-4T22:32:9Z</time></trkpt>
<trkpt lat="42.247848" lon="3.247463"><ele></ele><time>2014-4-4T22:32:12Z</time></trkpt>
<trkpt lat="42.247768" lon="3.247205"><ele></ele><time>2014-4-4T22:32:15Z</time></trkpt>
<trkpt lat="42.247940" lon="3.246798"><ele></ele><time>2014-4-4T22:32:18Z</time></trkpt>
<trkpt lat="42.248218" lon="3.246367"><ele></ele><time>2014-4-4T22:32:21Z</time></trkpt>
<trkpt lat="42.248612" lon="3.246197"><ele></ele><time>2014-4-4T22:32:24Z</time></trkpt>
<trkpt lat="42.248970" lon="3.246398"><ele></ele><time>2014-4-4T22:32:27Z</time></trkpt>
<trkpt lat="42.249332" lon="3.246418"><ele></ele><time>2014-4-4T22:32:30Z</time></trkpt>
<trkpt lat="42.249645" lon="3.246093"><ele></ele><time>2014-4-4T22:32:33Z</time></trkpt>
<trkpt lat="42.249955" lon="3.245728"><ele></ele><time>2014-4-4T22:32:36Z</time></trkpt>
<trkpt lat="42.250328" lon="3.245547"><ele></ele><time>2014-4-4T22:32:39Z</time></trkpt>
<trkpt lat="42.250672" lon="3.245460"><ele></ele><time>2014-4-4T22:32:42Z</time></trkpt>
<trkpt lat="42.250985" lon="3.245435"><ele></ele><time>2014-4-4T22:32:45Z</time></trkpt>
<trkpt lat="42.251122" lon="3.244995"><ele></ele><time>2014-4-4T22:32:48Z</time></trkpt>
<trkpt lat="42.251012" lon="3.244477"><ele></ele><time>2014-4-4T22:32:51Z</time></trkpt>
<trkpt lat="42.251258" lon="3.244050"><ele></ele><time>2014-4-4T22:32:54Z</time></trkpt>
<trkpt lat="42.251575" lon="3.243708"><ele></ele><time>2014-4-4T22:32:57Z</time></trkpt>
<trkpt lat="42.251607" lon="3.243278"><ele></ele><time>2014-4-4T22:33:0Z</time></trkpt>
<trkpt lat="42.251305" lon="3.243222"><ele></ele><time>2014-4-4T22:33:3Z</time></trkpt>
<trkpt lat="42.251095" lon="3.243100"><ele></ele><time>2014-4-4T22:33:6Z</time></trkpt>
<trkpt lat="42.250942" lon="3.242940"><ele></ele><time>2014-4-4T22:33:9Z</time></trkpt>
<trkpt lat="42.250808" lon="3.242783"><ele></ele><time>2014-4-4T22:33:12Z</time></trkpt>
<trkpt lat="42.250702" lon="3.242632"><ele></ele><time>2014-4-4T22:33:15Z</time></trkpt>
<trkpt lat="42.250642" lon="3.242397"><ele></ele><time>2014-4-4T22:33:18Z</time></trkpt>
<trkpt lat="42.250652" lon="3.242167"><ele></ele><time>2014-4-4T22:33:21Z</time></trkpt>
<trkpt lat="42.250752" lon="3.241948"><ele></ele><time>2014-4-4T22:33:24Z</time></trkpt>
<trkpt lat="42.250885" lon="3.241738"><ele></ele><time>2014-4-4T22:33:27Z</time></trkpt>
<trkpt lat="42.251057" lon="3.241527"><ele></ele><time>2014-4-4T22:33:30Z</time></trkpt>
<trkpt lat="42.251217" lon="3.241297"><ele></ele><time>2014-4-4T22:33:33Z</time></trkpt>
<trkpt lat="42.251382" lon="3.241043"><ele></ele><time>2014-4-4T22:33:36Z</time></trkpt>
<trkpt lat="42.251510" lon="3.240763"><ele></ele><time>2014-4-4T22:33:39Z</time></trkpt>
<trkpt lat="42.251617" lon="3.240442"><ele></ele><time>2014-4-4T22:33:42Z</time></trkpt>
<trkpt lat="42.251747" lon="3.240093"><ele></ele><time>2014-4-4T22:33:45Z</time></trkpt>
<trkpt lat="42.251873" lon="3.239718"><ele></ele><time>2014-4-4T22:33:48Z</time></trkpt>
<trkpt lat="42.251953" lon="3.239305"><ele></ele><time>2014-4-4T22:33:51Z</time></trkpt>
<trkpt lat="42.252167" lon="3.238997"><ele></ele><time>2014-4-4T22:33:54Z</time></trkpt>
<trkpt lat="42.252217" lon="3.238570"><ele></ele><time>2014-4-4T22:33:57Z</time></trkpt>
<trkpt lat="42.251977" lon="3.238422"><ele></ele><time>2014-4-4T22:34:0Z</time></trkpt>
<trkpt lat="42.251805" lon="3.238387"><ele></ele><time>2014-4-4T22:34:3Z</time></trkpt>
<trkpt lat="42.251693" lon="3.238238"><ele></ele><time>2014-4-4T22:34:6Z</time></trkpt>
<trkpt lat="42.251633" lon="3.238058"><ele></ele><time>2014-4-4T22:34:9Z</time></trkpt>
<trkpt lat="42.251553" lon="3.237908"><ele></ele><time>2014-4-4T22:34:12Z</time></trkpt>
<trkpt lat="42.251442" lon="3.237802"><ele></ele><time>2014-4-4T22:34:15Z</time></trkpt>
<trkpt lat="42.251338" lon="3.237732"><ele></ele><time>2014-4-4T22:34:18Z</time></trkpt>
<trkpt lat="42.251237" lon="3.237675"><ele></ele><time>2014-4-4T22:34:21Z</time></trkpt>
<trkpt lat="42.251122" lon="3.237640"><ele></ele><time>2014-4-4T22:34:24Z</time></trkpt>
<trkpt lat="42.250995" lon="3.237635"><ele></ele><time>2014-4-4T22:34:27Z</time></trkpt>
<trkpt lat="42.250877" lon="3.237657"><ele></ele><time>2014-4-4T22:34:30Z</time></trkpt>
<trkpt lat="42.250770" lon="3.237625"><ele></ele><time>2014-4-4T22:34:33Z</time></trkpt>
<trkpt lat="42.250668" lon="3.237575"><ele></ele><time>2014-4-4T22:34:36Z</time></trkpt>
<trkpt lat="42.250560" lon="3.237555"><ele></ele><time>2014-4-4T22:34:39Z</time></trkpt>
<trkpt lat="42.250465" lon="3.237532"><ele></ele><time>2014-4-4T22:34:42Z</time></trkpt>
<trkpt lat="42.250352" lon="3.237477"><ele></ele><time>2014-4-4T22:34:45Z</time></trkpt>
<trkpt lat="42.250248" lon="3.237425"><ele></ele><time>2014-4-4T22:34:48Z</time></trkpt>
<trkpt lat="42.250148" lon="3.237368"><ele></ele><time>2014-4-4T22:34:51Z</time></trkpt>
<trkpt lat="42.250053" lon="3.237313"><ele></ele><time>2014-4-4T22:34:54Z</time></trkpt>
<trkpt lat="42.249955" lon="3.237272"><ele></ele><time>2014-4-4T22:34:57Z</time></trkpt>
<trkpt lat="42.249863" lon="3.237237"><ele></ele><time>2014-4-4T22:35:0Z</time></trkpt>
<trkpt lat="42.249767" lon="3.237205"><ele></ele><time>2014-4-4T22:35:3Z</time></trkpt>
<trkpt lat="42.249672" lon="3.237187"><ele></ele><time>2014-4-4T22:35:6Z</time></trkpt>
<trkpt lat="42.249573" lon="3.237172"><ele></ele><time>2014-4-4T22:35:9Z</time></trkpt>
<trkpt lat="42.249473" lon="3.237145"><ele></ele><time>2014-4-4T22:35:12Z</time></trkpt>
<trkpt lat="42.249382" lon="3.237095"><ele></ele><time>2014-4-4T22:35:15Z</time></trkpt>
<trkpt lat="42.249278" lon="3.237032"><ele></ele><time>2014-4-4T22:35:18Z</time></trkpt>
<trkpt lat="42.249177" lon="3.236970"><ele></ele><time>2014-4-4T22:35:21Z</time></trkpt>
<trkpt lat="42.249088" lon="3.236902"><ele></ele><time>2014-4-4T22:35:24Z</time></trkpt>
<trkpt lat="42.248988" lon="3.236845"><ele></ele><time>2014-4-4T22:35:27Z</time></trkpt>
<trkpt lat="42.248898" lon="3.236775"><ele></ele><time>2014-4-4T22:35:30Z</time></trkpt>
<trkpt lat="42.248848" lon="3.236655"><ele></ele><time>2014-4-4T22:35:33Z</time></trkpt>
<trkpt lat="42.248837" lon="3.236520"><ele></ele><time>2014-4-4T22:35:36Z</time></trkpt>
<trkpt lat="42.248882" lon="3.236353"><ele></ele><time>2014-4-4T22:35:39Z</time></trkpt>
<trkpt lat="42.248955" lon="3.236180"><ele></ele><time>2014-4-4T22:35:42Z</time></trkpt>
<trkpt lat="42.249047" lon="3.236025"><ele></ele><time>2014-4-4T22:35:45Z</time></trkpt>
<trkpt lat="42.249142" lon="3.235860"><ele></ele><time>2014-4-4T22:35:48Z</time></trkpt>
<trkpt lat="42.249263" lon="3.235692"><ele></ele><time>2014-4-4T22:35:51Z</time></trkpt>
<trkpt lat="42.249402" lon="3.235532"><ele></ele><time>2014-4-4T22:35:54Z</time></trkpt>
<trkpt lat="42.249530" lon="3.235385"><ele></ele><time>2014-4-4T22:35:57Z</time></trkpt>
<trkpt lat="42.249580" lon="3.235150"><ele></ele><time>2014-4-4T22:36:0Z</time></trkpt>
<trkpt lat="42.249467" lon="3.234845"><ele></ele><time>2014-4-4T22:36:3Z</time></trkpt>
<trkpt lat="42.249332" lon="3.234485"><ele></ele><time>2014-4-4T22:36:6Z</time></trkpt>
<trkpt lat="42.249295" lon="3.234073"><ele></ele><time>2014-4-4T22:36:9Z</time></trkpt>
<trkpt lat="42.249317" lon="3.233670"><ele></ele><time>2014-4-4T22:36:12Z</time></trkpt>
<trkpt lat="42.249405" lon="3.233243"><ele></ele><time>2014-4-4T22:36:15Z</time></trkpt>
<trkpt lat="42.249520" lon="3.232848"><ele></ele><time>2014-4-4T22:36:18Z</time></trkpt>
<trkpt lat="42.249757" lon="3.232588"><ele></ele><time>2014-4-4T22:36:21Z</time></trkpt>
<trkpt lat="42.250053" lon="3.232405"><ele></ele><time>2014-4-4T22:36:24Z</time></trkpt>
<trkpt lat="42.250367" lon="3.232165"><ele></ele><time>2014-4-4T22:36:27Z</time></trkpt>
<trkpt lat="42.250507" lon="3.231768"><ele></ele><time>2014-4-4T22:36:30Z</time></trkpt>
<trkpt lat="42.250713" lon="3.231400"><ele></ele><time>2014-4-4T22:36:33Z</time></trkpt>
<trkpt lat="42.251018" lon="3.231068"><ele></ele><time>2014-4-4T22:36:36Z</time></trkpt>
<trkpt lat="42.251338" lon="3.230852"><ele></ele><time>2014-4-4T22:36:39Z</time></trkpt>
<trkpt lat="42.251563" lon="3.230483"><ele></ele><time>2014-4-4T22:36:42Z</time></trkpt>
<trkpt lat="42.251853" lon="3.230185"><ele></ele><time>2014-4-4T22:36:45Z</time></trkpt>
<trkpt lat="42.251877" lon="3.229645"><ele></ele><time>2014-4-4T22:36:48Z</time></trkpt>
<trkpt lat="42.252170" lon="3.229328"><ele></ele><time>2014-4-4T22:36:51Z</time></trkpt>
<trkpt lat="42.252412" lon="3.229038"><ele></ele><time>2014-4-4T22:36:54Z</time></trkpt>
<trkpt lat="42.252590" lon="3.228678"><ele></ele><time>2014-4-4T22:36:57Z</time></trkpt>
<trkpt lat="42.252723" lon="3.228355"><ele></ele><time>2014-4-4T22:37:0Z</time></trkpt>
<trkpt lat="42.252818" lon="3.228070"><ele></ele><time>2014-4-4T22:37:3Z</time></trkpt>
<trkpt lat="42.252895" lon="3.227783"><ele></ele><time>2014-4-4T22:37:6Z</time></trkpt>
<trkpt lat="42.253007" lon="3.227502"><ele></ele><time>2014-4-4T22:37:9Z</time></trkpt>
<trkpt lat="42.253158" lon="3.227250"><ele></ele><time>2014-4-4T22:37:12Z</time></trkpt>
<trkpt lat="42.253193" lon="3.226905"><ele></ele><time>2014-4-4T22:37:15Z</time></trkpt>
<trkpt lat="42.253173" lon="3.226545"><ele></ele><time>2014-4-4T22:37:18Z</time></trkpt>
<trkpt lat="42.253082" lon="3.226228"><ele></ele><time>2014-4-4T22:37:21Z</time></trkpt>
<trkpt lat="42.252922" lon="3.225980"><ele></ele><time>2014-4-4T22:37:24Z</time></trkpt>
<trkpt lat="42.252732" lon="3.225787"><ele></ele><time>2014-4-4T22:37:27Z</time></trkpt>
<trkpt lat="42.252495" lon="3.225733"><ele></ele><time>2014-4-4T22:37:30Z</time></trkpt>
<trkpt lat="42.252297" lon="3.225700"><ele></ele><time>2014-4-4T22:37:33Z</time></trkpt>
<trkpt lat="42.252105" lon="3.225722"><ele></ele><time>2014-4-4T22:37:36Z</time></trkpt>
<trkpt lat="42.251933" lon="3.225755"><ele></ele><time>2014-4-4T22:37:39Z</time></trkpt>
<trkpt lat="42.251762" lon="3.225773"><ele></ele><time>2014-4-4T22:37:42Z</time></trkpt>
<trkpt lat="42.251598" lon="3.225768"><ele></ele><time>2014-4-4T22:37:45Z</time></trkpt>
<trkpt lat="42.251442" lon="3.225767"><ele></ele><time>2014-4-4T22:37:48Z</time></trkpt>
<trkpt lat="42.251285" lon="3.225783"><ele></ele><time>2014-4-4T22:37:51Z</time></trkpt>
<trkpt lat="42.251128" lon="3.225803"><ele></ele><time>2014-4-4T22:37:54Z</time></trkpt>
<trkpt lat="42.250980" lon="3.225828"><ele></ele><time>2014-4-4T22:37:57Z</time></trkpt>
<trkpt lat="42.250828" lon="3.225863"><ele></ele><time>2014-4-4T22:38:0Z</time></trkpt>
<trkpt lat="42.250675" lon="3.225890"><ele></ele><time>2014-4-4T22:38:3Z</time></trkpt>
<trkpt lat="42.250533" lon="3.225912"><ele></ele><time>2014-4-4T22:38:6Z</time></trkpt>
<trkpt lat="42.250393" lon="3.225922"><ele></ele><time>2014-4-4T22:38:9Z</time></trkpt>
<trkpt lat="42.250252" lon="3.225940"><ele></ele><time>2014-4-4T22:38:12Z</time></trkpt>
<trkpt lat="42.250130" lon="3.226007"><ele></ele><time>2014-4-4T22:38:15Z</time></trkpt>
<trkpt lat="42.250015" lon="3.226065"><ele></ele><time>2014-4-4T22:38:18Z</time></trkpt>
<trkpt lat="42.249885" lon="3.226078"><ele></ele><time>2014-4-4T22:38:21Z</time></trkpt>
<trkpt lat="42.249778" lon="3.226028"><ele></ele><time>2014-4-4T22:38:24Z</time></trkpt>
<trkpt lat="42.249710" lon="3.225925"><ele></ele><time>2014-4-4T22:38:27Z</time></trkpt>
<trkpt lat="42.249660" lon="3.225787"><ele></ele><time>2014-4-4T22:38:30Z</time></trkpt>
<trkpt lat="42.249618" lon="3.225632"><ele></ele><time>2014-4-4T22:38:33Z</time></trkpt>
<trkpt lat="42.249562" lon="3.225483"><ele></ele><time>2014-4-4T22:38:36Z</time></trkpt>
<trkpt lat="42.249493" lon="3.225357"><ele></ele><time>2014-4-4T22:38:39Z</time></trkpt>
<trkpt lat="42.249405" lon="3.225242"><ele></ele><time>2014-4-4T22:38:42Z</time></trkpt>
<trkpt lat="42.249313" lon="3.225133"><ele></ele><time>2014-4-4T22:38:45Z</time></trkpt>
<trkpt lat="42.249218" lon="3.225048"><ele></ele><time>2014-4-4T22:38:48Z</time></trkpt>
<trkpt lat="42.249138" lon="3.224940"><ele></ele><time>2014-4-4T22:38:51Z</time></trkpt>
<trkpt lat="42.249058" lon="3.224823"><ele></ele><time>2014-4-4T22:38:54Z</time></trkpt>
<trkpt lat="42.248988" lon="3.224695"><ele></ele><time>2014-4-4T22:38:57Z</time></trkpt>
<trkpt lat="42.248935" lon="3.224552"><ele></ele><time>2014-4-4T22:39:0Z</time></trkpt>
<trkpt lat="42.248878" lon="3.224420"><ele></ele><time>2014-4-4T22:39:3Z</time></trkpt>
<trkpt lat="42.248787" lon="3.224338"><ele></ele><time>2014-4-4T22:39:6Z</time></trkpt>
<trkpt lat="42.248683" lon="3.224315"><ele></ele><time>2014-4-4T22:39:9Z</time></trkpt>
<trkpt lat="42.248588" lon="3.224332"><ele></ele><time>2014-4-4T22:39:12Z</time></trkpt>
<trkpt lat="42.248485" lon="3.224362"><ele></ele><time>2014-4-4T22:39:15Z</time></trkpt>
<trkpt lat="42.248378" lon="3.224445"><ele></ele><time>2014-4-4T22:39:18Z</time></trkpt>
<trkpt lat="42.248322" lon="3.224580"><ele></ele><time>2014-4-4T22:39:21Z</time></trkpt>
<trkpt lat="42.248337" lon="3.224717"><ele></ele><time>2014-4-4T22:39:24Z</time></trkpt>
<trkpt lat="42.248337" lon="3.224870"><ele></ele><time>2014-4-4T22:39:27Z</time></trkpt>
<trkpt lat="42.248325" lon="3.225027"><ele></ele><time>2014-4-4T22:39:30Z</time></trkpt>
<trkpt lat="42.248302" lon="3.225198"><ele></ele><time>2014-4-4T22:39:33Z</time></trkpt>
<trkpt lat="42.248283" lon="3.225357"><ele></ele><time>2014-4-4T22:39:36Z</time></trkpt>
<trkpt lat="42.248265" lon="3.225500"><ele></ele><time>2014-4-4T22:39:39Z</time></trkpt>
<trkpt lat="42.248253" lon="3.225653"><ele></ele><time>2014-4-4T22:39:42Z</time></trkpt>
<trkpt lat="42.248238" lon="3.225810"><ele></ele><time>2014-4-4T22:39:45Z</time></trkpt>
<trkpt lat="42.248227" lon="3.225967"><ele></ele><time>2014-4-4T22:39:48Z</time></trkpt>
<trkpt lat="42.248203" lon="3.226122"><ele></ele><time>2014-4-4T22:39:51Z</time></trkpt>
<trkpt lat="42.248153" lon="3.226273"><ele></ele><time>2014-4-4T22:39:54Z</time></trkpt>
<trkpt lat="42.248097" lon="3.226415"><ele></ele><time>2014-4-4T22:39:57Z</time></trkpt>
<trkpt lat="42.248028" lon="3.226547"><ele></ele><time>2014-4-4T22:40:0Z</time></trkpt>
<trkpt lat="42.247932" lon="3.226652"><ele></ele><time>2014-4-4T22:40:3Z</time></trkpt>
<trkpt lat="42.247837" lon="3.226723"><ele></ele><time>2014-4-4T22:40:6Z</time></trkpt>
<trkpt lat="42.247733" lon="3.226772"><ele></ele><time>2014-4-4T22:40:9Z</time></trkpt>
<trkpt lat="42.247627" lon="3.226807"><ele></ele><time>2014-4-4T22:40:12Z</time></trkpt>
<trkpt lat="42.247513" lon="3.226840"><ele></ele><time>2014-4-4T22:40:15Z</time></trkpt>
<trkpt lat="42.247398" lon="3.226877"><ele></ele><time>2014-4-4T22:40:18Z</time></trkpt>
<trkpt lat="42.247283" lon="3.226910"><ele></ele><time>2014-4-4T22:40:21Z</time></trkpt>
<trkpt lat="42.247177" lon="3.226937"><ele></ele><time>2014-4-4T22:40:24Z</time></trkpt>
<trkpt lat="42.247070" lon="3.226972"><ele></ele><time>2014-4-4T22:40:27Z</time></trkpt>
<trkpt lat="42.247005" lon="3.227037"><ele></ele><time>2014-4-4T22:40:30Z</time></trkpt>
<trkpt lat="42.247010" lon="3.227040"><ele></ele><time>2014-4-4T22:40:33Z</time></trkpt>
<trkpt lat="42.247005" lon="3.227045"><ele></ele><time>2014-4-4T22:40:36Z</time></trkpt>
<trkpt lat="42.247010" lon="3.227053"><ele></ele><time>2014-4-4T22:40:39Z</time></trkpt>
<trkpt lat="42.247005" lon="3.227062"><ele></ele><time>2014-4-4T22:40:42Z</time></trkpt>
<trkpt lat="42.247002" lon="3.227062"><ele></ele><time>2014-4-4T22:40:45Z</time></trkpt>
<trkpt lat="42.247002" lon="3.227063"><ele></ele><time>2014-4-4T22:40:48Z</time></trkpt>
<trkpt lat="42.247005" lon="3.227063"><ele></ele><time>2014-4-4T22:40:51Z</time></trkpt>
<trkpt lat="42.247002" lon="3.227062"><ele></ele><time>2014-4-4T22:40:54Z</time></trkpt>
<trkpt lat="42.246998" lon="3.227060"><ele></ele><time>2014-4-4T22:40:57Z</time></trkpt>
<trkpt lat="42.247005" lon="3.227055"><ele></ele><time>2014-4-4T22:41:0Z</time></trkpt>
<trkpt lat="42.247002" lon="3.227055"><ele></ele><time>2014-4-4T22:41:3Z</time></trkpt>
<trkpt lat="42.246998" lon="3.227057"><ele></ele><time>2014-4-4T22:41:6Z</time></trkpt>
<trkpt lat="42.247005" lon="3.227055"><ele></ele><time>2014-4-4T22:41:9Z</time></trkpt>
<trkpt lat="42.247005" lon="3.227057"><ele></ele><time>2014-4-4T22:41:12Z</time></trkpt>
<trkpt lat="42.246952" lon="3.227110"><ele></ele><time>2014-4-4T22:41:15Z</time></trkpt>
<trkpt lat="42.246898" lon="3.227190"><ele></ele><time>2014-4-4T22:41:18Z</time></trkpt>
<trkpt lat="42.246842" lon="3.227258"><ele></ele><time>2014-4-4T22:41:21Z</time></trkpt>
<trkpt lat="42.246773" lon="3.227328"><ele></ele><time>2014-4-4T22:41:24Z</time></trkpt>
<trkpt lat="42.246708" lon="3.227373"><ele></ele><time>2014-4-4T22:41:27Z</time></trkpt>
<trkpt lat="42.246635" lon="3.227418"><ele></ele><time>2014-4-4T22:41:30Z</time></trkpt>
<trkpt lat="42.246563" lon="3.227455"><ele></ele><time>2014-4-4T22:41:33Z</time></trkpt>
<trkpt lat="42.246478" lon="3.227472"><ele></ele><time>2014-4-4T22:41:36Z</time></trkpt>
<trkpt lat="42.246365" lon="3.227492"><ele></ele><time>2014-4-4T22:41:39Z</time></trkpt>
<trkpt lat="42.246238" lon="3.227542"><ele></ele><time>2014-4-4T22:41:42Z</time></trkpt>
<trkpt lat="42.246125" lon="3.227597"><ele></ele><time>2014-4-4T22:41:45Z</time></trkpt>
<trkpt lat="42.246017" lon="3.227690"><ele></ele><time>2014-4-4T22:41:48Z</time></trkpt>
<trkpt lat="42.245910" lon="3.227790"><ele></ele><time>2014-4-4T22:41:51Z</time></trkpt>
<trkpt lat="42.245812" lon="3.227902"><ele></ele><time>2014-4-4T22:41:54Z</time></trkpt>
<trkpt lat="42.245708" lon="3.227982"><ele></ele><time>2014-4-4T22:41:57Z</time></trkpt>
<trkpt lat="42.245587" lon="3.228005"><ele></ele><time>2014-4-4T22:42:0Z</time></trkpt>
<trkpt lat="42.245475" lon="3.227947"><ele></ele><time>2014-4-4T22:42:3Z</time></trkpt>
<trkpt lat="42.245388" lon="3.227822"><ele></ele><time>2014-4-4T22:42:6Z</time></trkpt>
<trkpt lat="42.245350" lon="3.227650"><ele></ele><time>2014-4-4T22:42:9Z</time></trkpt>
<trkpt lat="42.245362" lon="3.227485"><ele></ele><time>2014-4-4T22:42:12Z</time></trkpt>
<trkpt lat="42.245412" lon="3.227327"><ele></ele><time>2014-4-4T22:42:15Z</time></trkpt>
<trkpt lat="42.245453" lon="3.227180"><ele></ele><time>2014-4-4T22:42:18Z</time></trkpt>
<trkpt lat="42.245507" lon="3.227033"><ele></ele><time>2014-4-4T22:42:21Z</time></trkpt>
<trkpt lat="42.245552" lon="3.226877"><ele></ele><time>2014-4-4T22:42:24Z</time></trkpt>
<trkpt lat="42.245593" lon="3.226725"><ele></ele><time>2014-4-4T22:42:27Z</time></trkpt>
<trkpt lat="42.245637" lon="3.226575"><ele></ele><time>2014-4-4T22:42:30Z</time></trkpt>
<trkpt lat="42.245663" lon="3.226417"><ele></ele><time>2014-4-4T22:42:33Z</time></trkpt>
<trkpt lat="42.245685" lon="3.226262"><ele></ele><time>2014-4-4T22:42:36Z</time></trkpt>
<trkpt lat="42.245705" lon="3.226112"><ele></ele><time>2014-4-4T22:42:39Z</time></trkpt>
<trkpt lat="42.245717" lon="3.225962"><ele></ele><time>2014-4-4T22:42:42Z</time></trkpt>
<trkpt lat="42.245735" lon="3.225808"><ele></ele><time>2014-4-4T22:42:45Z</time></trkpt>
<trkpt lat="42.245747" lon="3.225650"><ele></ele><time>2014-4-4T22:42:48Z</time></trkpt>
<trkpt lat="42.245747" lon="3.225500"><ele></ele><time>2014-4-4T22:42:51Z</time></trkpt>
<trkpt lat="42.245747" lon="3.225343"><ele></ele><time>2014-4-4T22:42:54Z</time></trkpt>
<trkpt lat="42.245747" lon="3.225190"><ele></ele><time>2014-4-4T22:42:57Z</time></trkpt>
<trkpt lat="42.245747" lon="3.225033"><ele></ele><time>2014-4-4T22:43:0Z</time></trkpt>
<trkpt lat="42.245747" lon="3.224875"><ele></ele><time>2014-4-4T22:43:3Z</time></trkpt>
<trkpt lat="42.245738" lon="3.224720"><ele></ele><time>2014-4-4T22:43:6Z</time></trkpt>
<trkpt lat="42.245723" lon="3.224568"><ele></ele><time>2014-4-4T22:43:9Z</time></trkpt>
<trkpt lat="42.245697" lon="3.224422"><ele></ele><time>2014-4-4T22:43:12Z</time></trkpt>
<trkpt lat="42.245652" lon="3.224278"><ele></ele><time>2014-4-4T22:43:15Z</time></trkpt>
<trkpt lat="42.245587" lon="3.224152"><ele></ele><time>2014-4-4T22:43:18Z</time></trkpt>
<trkpt lat="42.245522" lon="3.224020"><ele></ele><time>2014-4-4T22:43:21Z</time></trkpt>
<trkpt lat="42.245465" lon="3.223880"><ele></ele><time>2014-4-4T22:43:24Z</time></trkpt>
<trkpt lat="42.245422" lon="3.223732"><ele></ele><time>2014-4-4T22:43:27Z</time></trkpt>
<trkpt lat="42.245395" lon="3.223582"><ele></ele><time>2014-4-4T22:43:30Z</time></trkpt>
<trkpt lat="42.245380" lon="3.223443"><ele></ele><time>2014-4-4T22:43:33Z</time></trkpt>
<trkpt lat="42.245368" lon="3.223300"><ele></ele><time>2014-4-4T22:43:36Z</time></trkpt>
<trkpt lat="42.245353" lon="3.223138"><ele></ele><time>2014-4-4T22:43:39Z</time></trkpt>
<trkpt lat="42.245347" lon="3.222988"><ele></ele><time>2014-4-4T22:43:42Z</time></trkpt>
<trkpt lat="42.245327" lon="3.222842"><ele></ele><time>2014-4-4T22:43:45Z</time></trkpt>
<trkpt lat="42.245288" lon="3.222713"><ele></ele><time>2014-4-4T22:43:48Z</time></trkpt>
<trkpt lat="42.245223" lon="3.222600"><ele></ele><time>2014-4-4T22:43:51Z</time></trkpt>
<trkpt lat="42.245128" lon="3.222528"><ele></ele><time>2014-4-4T22:43:54Z</time></trkpt>
<trkpt lat="42.245030" lon="3.222508"><ele></ele><time>2014-4-4T22:43:57Z</time></trkpt>
<trkpt lat="42.244923" lon="3.222527"><ele></ele><time>2014-4-4T22:44:0Z</time></trkpt>
<trkpt lat="42.244797" lon="3.222555"><ele></ele><time>2014-4-4T22:44:3Z</time></trkpt>
<trkpt lat="42.244678" lon="3.222577"><ele></ele><time>2014-4-4T22:44:6Z</time></trkpt>
<trkpt lat="42.244575" lon="3.222582"><ele></ele><time>2014-4-4T22:44:9Z</time></trkpt>
<trkpt lat="42.244465" lon="3.222587"><ele></ele><time>2014-4-4T22:44:12Z</time></trkpt>
<trkpt lat="42.244350" lon="3.222580"><ele></ele><time>2014-4-4T22:44:15Z</time></trkpt>
<trkpt lat="42.244232" lon="3.222552"><ele></ele><time>2014-4-4T22:44:18Z</time></trkpt>
<trkpt lat="42.244113" lon="3.222502"><ele></ele><time>2014-4-4T22:44:21Z</time></trkpt>
<trkpt lat="42.244012" lon="3.222428"><ele></ele><time>2014-4-4T22:44:24Z</time></trkpt>
<trkpt lat="42.243920" lon="3.222320"><ele></ele><time>2014-4-4T22:44:27Z</time></trkpt>
<trkpt lat="42.243858" lon="3.222190"><ele></ele><time>2014-4-4T22:44:30Z</time></trkpt>
<trkpt lat="42.243823" lon="3.222042"><ele></ele><time>2014-4-4T22:44:33Z</time></trkpt>
<trkpt lat="42.243793" lon="3.221897"><ele></ele><time>2014-4-4T22:44:36Z</time></trkpt>
<trkpt lat="42.243787" lon="3.221737"><ele></ele><time>2014-4-4T22:44:39Z</time></trkpt>
<trkpt lat="42.243790" lon="3.221577"><ele></ele><time>2014-4-4T22:44:42Z</time></trkpt>
<trkpt lat="42.243802" lon="3.221420"><ele></ele><time>2014-4-4T22:44:45Z</time></trkpt>
<trkpt lat="42.243835" lon="3.221272"><ele></ele><time>2014-4-4T22:44:48Z</time></trkpt>
<trkpt lat="42.243877" lon="3.221122"><ele></ele><time>2014-4-4T22:44:51Z</time></trkpt>
<trkpt lat="42.243915" lon="3.220983"><ele></ele><time>2014-4-4T22:44:54Z</time></trkpt>
<trkpt lat="42.243953" lon="3.220852"><ele></ele><time>2014-4-4T22:44:57Z</time></trkpt>
<trkpt lat="42.243988" lon="3.220720"><ele></ele><time>2014-4-4T22:45:0Z</time></trkpt>
<trkpt lat="42.244030" lon="3.220583"><ele></ele><time>2014-4-4T22:45:3Z</time></trkpt>
<trkpt lat="42.244038" lon="3.220432"><ele></ele><time>2014-4-4T22:45:6Z</time></trkpt>
<trkpt lat="42.244018" lon="3.220283"><ele></ele><time>2014-4-4T22:45:9Z</time></trkpt>
<trkpt lat="42.243995" lon="3.220145"><ele></ele><time>2014-4-4T22:45:12Z</time></trkpt>
<trkpt lat="42.243965" lon="3.220028"><ele></ele><time>2014-4-4T22:45:15Z</time></trkpt>
<trkpt lat="42.243953" lon="3.219908"><ele></ele><time>2014-4-4T22:45:18Z</time></trkpt>
<trkpt lat="42.243930" lon="3.219760"><ele></ele><time>2014-4-4T22:45:21Z</time></trkpt>
<trkpt lat="42.243985" lon="3.219600"><ele></ele><time>2014-4-4T22:45:24Z</time></trkpt>
<trkpt lat="42.244065" lon="3.219475"><ele></ele><time>2014-4-4T22:45:27Z</time></trkpt>
<trkpt lat="42.244145" lon="3.219438"><ele></ele><time>2014-4-4T22:45:30Z</time></trkpt>
<trkpt lat="42.244247" lon="3.219445"><ele></ele><time>2014-4-4T22:45:33Z</time></trkpt>
<trkpt lat="42.244350" lon="3.219470"><ele></ele><time>2014-4-4T22:45:36Z</time></trkpt>
<trkpt lat="42.244473" lon="3.219413"><ele></ele><time>2014-4-4T22:45:39Z</time></trkpt>
<trkpt lat="42.244545" lon="3.219318"><ele></ele><time>2014-4-4T22:45:42Z</time></trkpt>
<trkpt lat="42.244587" lon="3.219175"><ele></ele><time>2014-4-4T22:45:45Z</time></trkpt>
<trkpt lat="42.244563" lon="3.219033"><ele></ele><time>2014-4-4T22:45:48Z</time></trkpt>
<trkpt lat="42.244507" lon="3.218910"><ele></ele><time>2014-4-4T22:45:51Z</time></trkpt>
<trkpt lat="42.244412" lon="3.218805"><ele></ele><time>2014-4-4T22:45:54Z</time></trkpt>
<trkpt lat="42.244293" lon="3.218815"><ele></ele><time>2014-4-4T22:45:57Z</time></trkpt>
<trkpt lat="42.244187" lon="3.218882"><ele></ele><time>2014-4-4T22:46:0Z</time></trkpt>
<trkpt lat="42.244087" lon="3.218948"><ele></ele><time>2014-4-4T22:46:3Z</time></trkpt>
<trkpt lat="42.243985" lon="3.219022"><ele></ele><time>2014-4-4T22:46:6Z</time></trkpt>
<trkpt lat="42.243873" lon="3.219105"><ele></ele><time>2014-4-4T22:46:9Z</time></trkpt>
<trkpt lat="42.243758" lon="3.219152"><ele></ele><time>2014-4-4T22:46:12Z</time></trkpt>
<trkpt lat="42.243648" lon="3.219182"><ele></ele><time>2014-4-4T22:46:15Z</time></trkpt>
<trkpt lat="42.243527" lon="3.219210"><ele></ele><time>2014-4-4T22:46:18Z</time></trkpt>
<trkpt lat="42.243400" lon="3.219222"><ele></ele><time>2014-4-4T22:46:21Z</time></trkpt>
<trkpt lat="42.243278" lon="3.219218"><ele></ele><time>2014-4-4T22:46:24Z</time></trkpt>
<trkpt lat="42.243157" lon="3.219198"><ele></ele><time>2014-4-4T22:46:27Z</time></trkpt>
<trkpt lat="42.243042" lon="3.219145"><ele></ele><time>2014-4-4T22:46:30Z</time></trkpt>
<trkpt lat="42.242938" lon="3.219078"><ele></ele><time>2014-4-4T22:46:33Z</time></trkpt>
<trkpt lat="42.242847" lon="3.218968"><ele></ele><time>2014-4-4T22:46:36Z</time></trkpt>
<trkpt lat="42.242760" lon="3.218845"><ele></ele><time>2014-4-4T22:46:39Z</time></trkpt>
<trkpt lat="42.242702" lon="3.218693"><ele></ele><time>2014-4-4T22:46:42Z</time></trkpt>
<trkpt lat="42.242642" lon="3.218542"><ele></ele><time>2014-4-4T22:46:45Z</time></trkpt>
<trkpt lat="42.242595" lon="3.218393"><ele></ele><time>2014-4-4T22:46:48Z</time></trkpt>
<trkpt lat="42.242558" lon="3.218263"><ele></ele><time>2014-4-4T22:46:51Z</time></trkpt>
<trkpt lat="42.242508" lon="3.218127"><ele></ele><time>2014-4-4T22:46:54Z</time></trkpt>
<trkpt lat="42.242462" lon="3.217988"><ele></ele><time>2014-4-4T22:46:57Z</time></trkpt>
<trkpt lat="42.242393" lon="3.217868"><ele></ele><time>2014-4-4T22:47:0Z</time></trkpt>
<trkpt lat="42.242302" lon="3.217798"><ele></ele><time>2014-4-4T22:47:3Z</time></trkpt>
<trkpt lat="42.242218" lon="3.217782"><ele></ele><time>2014-4-4T22:47:6Z</time></trkpt>
<trkpt lat="42.242107" lon="3.217793"><ele></ele><time>2014-4-4T22:47:9Z</time></trkpt>
<trkpt lat="42.242000" lon="3.217825"><ele></ele><time>2014-4-4T22:47:12Z</time></trkpt>
<trkpt lat="42.241882" lon="3.217847"><ele></ele><time>2014-4-4T22:47:15Z</time></trkpt>
<trkpt lat="42.241768" lon="3.217860"><ele></ele><time>2014-4-4T22:47:18Z</time></trkpt>
<trkpt lat="42.241668" lon="3.217850"><ele></ele><time>2014-4-4T22:47:21Z</time></trkpt>
<trkpt lat="42.241538" lon="3.217798"><ele></ele><time>2014-4-4T22:47:24Z</time></trkpt>
<trkpt lat="42.241420" lon="3.217707"><ele></ele><time>2014-4-4T22:47:27Z</time></trkpt>
<trkpt lat="42.241345" lon="3.217545"><ele></ele><time>2014-4-4T22:47:30Z</time></trkpt>
<trkpt lat="42.241268" lon="3.217407"><ele></ele><time>2014-4-4T22:47:33Z</time></trkpt>
<trkpt lat="42.241200" lon="3.217273"><ele></ele><time>2014-4-4T22:47:36Z</time></trkpt>
<trkpt lat="42.241127" lon="3.217138"><ele></ele><time>2014-4-4T22:47:39Z</time></trkpt>
<trkpt lat="42.241055" lon="3.217000"><ele></ele><time>2014-4-4T22:47:42Z</time></trkpt>
<trkpt lat="42.240982" lon="3.216862"><ele></ele><time>2014-4-4T22:47:45Z</time></trkpt>
<trkpt lat="42.240917" lon="3.216723"><ele></ele><time>2014-4-4T22:47:48Z</time></trkpt>
<trkpt lat="42.240845" lon="3.216587"><ele></ele><time>2014-4-4T22:47:51Z</time></trkpt>
<trkpt lat="42.240818" lon="3.216427"><ele></ele><time>2014-4-4T22:47:54Z</time></trkpt>
<trkpt lat="42.240825" lon="3.216253"><ele></ele><time>2014-4-4T22:47:57Z</time></trkpt>
<trkpt lat="42.240878" lon="3.216102"><ele></ele><time>2014-4-4T22:48:0Z</time></trkpt>
<trkpt lat="42.240970" lon="3.215987"><ele></ele><time>2014-4-4T22:48:3Z</time></trkpt>
<trkpt lat="42.241085" lon="3.215930"><ele></ele><time>2014-4-4T22:48:6Z</time></trkpt>
<trkpt lat="42.241207" lon="3.215915"><ele></ele><time>2014-4-4T22:48:9Z</time></trkpt>
<trkpt lat="42.241333" lon="3.215905"><ele></ele><time>2014-4-4T22:48:12Z</time></trkpt>
<trkpt lat="42.241455" lon="3.215892"><ele></ele><time>2014-4-4T22:48:15Z</time></trkpt>
<trkpt lat="42.241570" lon="3.215872"><ele></ele><time>2014-4-4T22:48:18Z</time></trkpt>
<trkpt lat="42.241692" lon="3.215850"><ele></ele><time>2014-4-4T22:48:21Z</time></trkpt>
<trkpt lat="42.241813" lon="3.215878"><ele></ele><time>2014-4-4T22:48:24Z</time></trkpt>
<trkpt lat="42.241925" lon="3.215923"><ele></ele><time>2014-4-4T22:48:27Z</time></trkpt>
<trkpt lat="42.242035" lon="3.215977"><ele></ele><time>2014-4-4T22:48:30Z</time></trkpt>
<trkpt lat="42.242150" lon="3.216018"><ele></ele><time>2014-4-4T22:48:33Z</time></trkpt>
<trkpt lat="42.242263" lon="3.216030"><ele></ele><time>2014-4-4T22:48:36Z</time></trkpt>
<trkpt lat="42.242390" lon="3.216043"><ele></ele><time>2014-4-4T22:48:39Z</time></trkpt>
<trkpt lat="42.242512" lon="3.216050"><ele></ele><time>2014-4-4T22:48:42Z</time></trkpt>
<trkpt lat="42.242622" lon="3.216013"><ele></ele><time>2014-4-4T22:48:45Z</time></trkpt>
<trkpt lat="42.242730" lon="3.215942"><ele></ele><time>2014-4-4T22:48:48Z</time></trkpt>
<trkpt lat="42.242817" lon="3.215843"><ele></ele><time>2014-4-4T22:48:51Z</time></trkpt>
<trkpt lat="42.242905" lon="3.215738"><ele></ele><time>2014-4-4T22:48:54Z</time></trkpt>
<trkpt lat="42.242992" lon="3.215628"><ele></ele><time>2014-4-4T22:48:57Z</time></trkpt>
<trkpt lat="42.243092" lon="3.215520"><ele></ele><time>2014-4-4T22:49:0Z</time></trkpt>
<trkpt lat="42.243202" lon="3.215412"><ele></ele><time>2014-4-4T22:49:3Z</time></trkpt>
<trkpt lat="42.243332" lon="3.215333"><ele></ele><time>2014-4-4T22:49:6Z</time></trkpt>
<trkpt lat="42.243500" lon="3.215310"><ele></ele><time>2014-4-4T22:49:9Z</time></trkpt>
<trkpt lat="42.243698" lon="3.215333"><ele></ele><time>2014-4-4T22:49:12Z</time></trkpt>
<trkpt lat="42.243942" lon="3.215370"><ele></ele><time>2014-4-4T22:49:15Z</time></trkpt>
<trkpt lat="42.244193" lon="3.215495"><ele></ele><time>2014-4-4T22:49:18Z</time></trkpt>
<trkpt lat="42.244365" lon="3.215780"><ele></ele><time>2014-4-4T22:49:21Z</time></trkpt>
<trkpt lat="42.244488" lon="3.216125"><ele></ele><time>2014-4-4T22:49:24Z</time></trkpt>
<trkpt lat="42.244622" lon="3.216480"><ele></ele><time>2014-4-4T22:49:27Z</time></trkpt>
<trkpt lat="42.244815" lon="3.216730"><ele></ele><time>2014-4-4T22:49:30Z</time></trkpt>
<trkpt lat="42.245045" lon="3.216808"><ele></ele><time>2014-4-4T22:49:33Z</time></trkpt>
<trkpt lat="42.245213" lon="3.216732"><ele></ele><time>2014-4-4T22:49:36Z</time></trkpt>
<trkpt lat="42.245330" lon="3.216600"><ele></ele><time>2014-4-4T22:49:39Z</time></trkpt>
<trkpt lat="42.245422" lon="3.216417"><ele></ele><time>2014-4-4T22:49:42Z</time></trkpt>
<trkpt lat="42.245518" lon="3.216257"><ele></ele><time>2014-4-4T22:49:45Z</time></trkpt>
<trkpt lat="42.245602" lon="3.216120"><ele></ele><time>2014-4-4T22:49:48Z</time></trkpt>
<trkpt lat="42.245702" lon="3.216013"><ele></ele><time>2014-4-4T22:49:51Z</time></trkpt>
<trkpt lat="42.245808" lon="3.215918"><ele></ele><time>2014-4-4T22:49:54Z</time></trkpt>
<trkpt lat="42.245927" lon="3.215860"><ele></ele><time>2014-4-4T22:49:57Z</time></trkpt>
<trkpt lat="42.246037" lon="3.215807"><ele></ele><time>2014-4-4T22:50:0Z</time></trkpt>
<trkpt lat="42.246135" lon="3.215742"><ele></ele><time>2014-4-4T22:50:3Z</time></trkpt>
<trkpt lat="42.246220" lon="3.215643"><ele></ele><time>2014-4-4T22:50:6Z</time></trkpt>
<trkpt lat="42.246288" lon="3.215527"><ele></ele><time>2014-4-4T22:50:9Z</time></trkpt>
<trkpt lat="42.246342" lon="3.215403"><ele></ele><time>2014-4-4T22:50:12Z</time></trkpt>
<trkpt lat="42.246398" lon="3.215257"><ele></ele><time>2014-4-4T22:50:15Z</time></trkpt>
<trkpt lat="42.246472" lon="3.215118"><ele></ele><time>2014-4-4T22:50:18Z</time></trkpt>
<trkpt lat="42.246570" lon="3.215015"><ele></ele><time>2014-4-4T22:50:21Z</time></trkpt>
<trkpt lat="42.246685" lon="3.214950"><ele></ele><time>2014-4-4T22:50:24Z</time></trkpt>
<trkpt lat="42.246792" lon="3.214905"><ele></ele><time>2014-4-4T22:50:27Z</time></trkpt>
<trkpt lat="42.246902" lon="3.214847"><ele></ele><time>2014-4-4T22:50:30Z</time></trkpt>
<trkpt lat="42.246998" lon="3.214780"><ele></ele><time>2014-4-4T22:50:33Z</time></trkpt>
<trkpt lat="42.247090" lon="3.214700"><ele></ele><time>2014-4-4T22:50:36Z</time></trkpt>
<trkpt lat="42.247182" lon="3.214620"><ele></ele><time>2014-4-4T22:50:39Z</time></trkpt>
<trkpt lat="42.247280" lon="3.214548"><ele></ele><time>2014-4-4T22:50:42Z</time></trkpt>
<trkpt lat="42.247387" lon="3.214558"><ele></ele><time>2014-4-4T22:50:45Z</time></trkpt>
<trkpt lat="42.247490" lon="3.214613"><ele></ele><time>2014-4-4T22:50:48Z</time></trkpt>
<trkpt lat="42.247582" lon="3.214695"><ele></ele><time>2014-4-4T22:50:51Z</time></trkpt>
<trkpt lat="42.247703" lon="3.214738"><ele></ele><time>2014-4-4T22:50:54Z</time></trkpt>
<trkpt lat="42.247815" lon="3.214703"><ele></ele><time>2014-4-4T22:50:57Z</time></trkpt>
<trkpt lat="42.247917" lon="3.214628"><ele></ele><time>2014-4-4T22:51:0Z</time></trkpt>
<trkpt lat="42.248023" lon="3.214542"><ele></ele><time>2014-4-4T22:51:3Z</time></trkpt>
<trkpt lat="42.248130" lon="3.214453"><ele></ele><time>2014-4-4T22:51:6Z</time></trkpt>
<trkpt lat="42.248260" lon="3.214380"><ele></ele><time>2014-4-4T22:51:9Z</time></trkpt>
<trkpt lat="42.248393" lon="3.214298"><ele></ele><time>2014-4-4T22:51:12Z</time></trkpt>
<trkpt lat="42.248520" lon="3.214197"><ele></ele><time>2014-4-4T22:51:15Z</time></trkpt>
<trkpt lat="42.248650" lon="3.214092"><ele></ele><time>2014-4-4T22:51:18Z</time></trkpt>
<trkpt lat="42.248763" lon="3.213958"><ele></ele><time>2014-4-4T22:51:21Z</time></trkpt>
<trkpt lat="42.248887" lon="3.213810"><ele></ele><time>2014-4-4T22:51:24Z</time></trkpt>
<trkpt lat="42.249008" lon="3.213645"><ele></ele><time>2014-4-4T22:51:27Z</time></trkpt>
<trkpt lat="42.249142" lon="3.213473"><ele></ele><time>2014-4-4T22:51:30Z</time></trkpt>
<trkpt lat="42.249278" lon="3.213298"><ele></ele><time>2014-4-4T22:51:33Z</time></trkpt>
<trkpt lat="42.249432" lon="3.213182"><ele></ele><time>2014-4-4T22:51:36Z</time></trkpt>
<trkpt lat="42.249618" lon="3.213125"><ele></ele><time>2014-4-4T22:51:39Z</time></trkpt>
<trkpt lat="42.249778" lon="3.213007"><ele></ele><time>2014-4-4T22:51:42Z</time></trkpt>
<trkpt lat="42.249825" lon="3.212745"><ele></ele><time>2014-4-4T22:51:45Z</time></trkpt>
<trkpt lat="42.249813" lon="3.212425"><ele></ele><time>2014-4-4T22:51:48Z</time></trkpt>
<trkpt lat="42.249920" lon="3.212153"><ele></ele><time>2014-4-4T22:51:51Z</time></trkpt>
<trkpt lat="42.250068" lon="3.211933"><ele></ele><time>2014-4-4T22:51:54Z</time></trkpt>
<trkpt lat="42.250237" lon="3.211743"><ele></ele><time>2014-4-4T22:51:57Z</time></trkpt>
<trkpt lat="42.250427" lon="3.211542"><ele></ele><time>2014-4-4T22:52:0Z</time></trkpt>
<trkpt lat="42.250642" lon="3.211398"><ele></ele><time>2014-4-4T22:52:3Z</time></trkpt>
<trkpt lat="42.250843" lon="3.211402"><ele></ele><time>2014-4-4T22:52:6Z</time></trkpt>
<trkpt lat="42.251030" lon="3.211520"><ele></ele><time>2014-4-4T22:52:9Z</time></trkpt>
<trkpt lat="42.251225" lon="3.211653"><ele></ele><time>2014-4-4T22:52:12Z</time></trkpt>
<trkpt lat="42.251412" lon="3.211720"><ele></ele><time>2014-4-4T22:52:15Z</time></trkpt>
<trkpt lat="42.251568" lon="3.211610"><ele></ele><time>2014-4-4T22:52:18Z</time></trkpt>
<trkpt lat="42.251663" lon="3.211355"><ele></ele><time>2014-4-4T22:52:21Z</time></trkpt>
<trkpt lat="42.251778" lon="3.211100"><ele></ele><time>2014-4-4T22:52:24Z</time></trkpt>
<trkpt lat="42.251950" lon="3.210865"><ele></ele><time>2014-4-4T22:52:27Z</time></trkpt>
<trkpt lat="42.252167" lon="3.210648"><ele></ele><time>2014-4-4T22:52:30Z</time></trkpt>
<trkpt lat="42.252357" lon="3.210387"><ele></ele><time>2014-4-4T22:52:33Z</time></trkpt>
<trkpt lat="42.252300" lon="3.210053"><ele></ele><time>2014-4-4T22:52:36Z</time></trkpt>
<trkpt lat="42.252045" lon="3.209873"><ele></ele><time>2014-4-4T22:52:39Z</time></trkpt>
<trkpt lat="42.251847" lon="3.209603"><ele></ele><time>2014-4-4T22:52:42Z</time></trkpt>
<trkpt lat="42.251785" lon="3.209198"><ele></ele><time>2014-4-4T22:52:45Z</time></trkpt>
<trkpt lat="42.251782" lon="3.208752"><ele></ele><time>2014-4-4T22:52:48Z</time></trkpt>
<trkpt lat="42.252003" lon="3.208455"><ele></ele><time>2014-4-4T22:52:51Z</time></trkpt>
<trkpt lat="42.252335" lon="3.208483"><ele></ele><time>2014-4-4T22:52:54Z</time></trkpt>
<trkpt lat="42.252617" lon="3.208683"><ele></ele><time>2014-4-4T22:52:57Z</time></trkpt>
<trkpt lat="42.252877" lon="3.208860"><ele></ele><time>2014-4-4T22:53:0Z</time></trkpt>
<trkpt lat="42.253093" lon="3.208648"><ele></ele><time>2014-4-4T22:53:3Z</time></trkpt>
<trkpt lat="42.253232" lon="3.208420"><ele></ele><time>2014-4-4T22:53:6Z</time></trkpt>
<trkpt lat="42.253360" lon="3.208152"><ele></ele><time>2014-4-4T22:53:9Z</time></trkpt>
<trkpt lat="42.253353" lon="3.207845"><ele></ele><time>2014-4-4T22:53:12Z</time></trkpt>
<trkpt lat="42.253365" lon="3.207562"><ele></ele><time>2014-4-4T22:53:15Z</time></trkpt>
<trkpt lat="42.253442" lon="3.207227"><ele></ele><time>2014-4-4T22:53:18Z</time></trkpt>
<trkpt lat="42.253552" lon="3.206885"><ele></ele><time>2014-4-4T22:53:21Z</time></trkpt>
<trkpt lat="42.253647" lon="3.206550"><ele></ele><time>2014-4-4T22:53:24Z</time></trkpt>
<trkpt lat="42.253715" lon="3.206223"><ele></ele><time>2014-4-4T22:53:27Z</time></trkpt>
<trkpt lat="42.253768" lon="3.206085"><ele></ele><time>2014-4-4T22:53:30Z</time></trkpt>
<trkpt lat="42.253845" lon="3.206137"><ele></ele><time>2014-4-4T22:53:33Z</time></trkpt>
<trkpt lat="42.253928" lon="3.206207"><ele></ele><time>2014-4-4T22:53:36Z</time></trkpt>
<trkpt lat="42.254010" lon="3.206257"><ele></ele><time>2014-4-4T22:53:39Z</time></trkpt>
<trkpt lat="42.254093" lon="3.206290"><ele></ele><time>2014-4-4T22:53:42Z</time></trkpt>
<trkpt lat="42.254182" lon="3.206318"><ele></ele><time>2014-4-4T22:53:45Z</time></trkpt>
<trkpt lat="42.254262" lon="3.206350"><ele></ele><time>2014-4-4T22:53:48Z</time></trkpt>
<trkpt lat="42.254333" lon="3.206368"><ele></ele><time>2014-4-4T22:53:51Z</time></trkpt>
<trkpt lat="42.254410" lon="3.206412"><ele></ele><time>2014-4-4T22:53:54Z</time></trkpt>
<trkpt lat="42.254487" lon="3.206458"><ele></ele><time>2014-4-4T22:53:57Z</time></trkpt>
<trkpt lat="42.254558" lon="3.206512"><ele></ele><time>2014-4-4T22:54:0Z</time></trkpt>
<trkpt lat="42.254615" lon="3.206563"><ele></ele><time>2014-4-4T22:54:3Z</time></trkpt>
<trkpt lat="42.254665" lon="3.206627"><ele></ele><time>2014-4-4T22:54:6Z</time></trkpt>
<trkpt lat="42.254665" lon="3.206718"><ele></ele><time>2014-4-4T22:54:9Z</time></trkpt>
<trkpt lat="42.254647" lon="3.206827"><ele></ele><time>2014-4-4T22:54:12Z</time></trkpt>
<trkpt lat="42.254608" lon="3.206942"><ele></ele><time>2014-4-4T22:54:15Z</time></trkpt>
<trkpt lat="42.254570" lon="3.207063"><ele></ele><time>2014-4-4T22:54:18Z</time></trkpt>
<trkpt lat="42.254535" lon="3.207182"><ele></ele><time>2014-4-4T22:54:21Z</time></trkpt>
<trkpt lat="42.254493" lon="3.207293"><ele></ele><time>2014-4-4T22:54:24Z</time></trkpt>
<trkpt lat="42.254467" lon="3.207412"><ele></ele><time>2014-4-4T22:54:27Z</time></trkpt>
<trkpt lat="42.254437" lon="3.207525"><ele></ele><time>2014-4-4T22:54:30Z</time></trkpt>
<trkpt lat="42.254402" lon="3.207633"><ele></ele><time>2014-4-4T22:54:33Z</time></trkpt>
<trkpt lat="42.254372" lon="3.207732"><ele></ele><time>2014-4-4T22:54:36Z</time></trkpt>
<trkpt lat="42.254333" lon="3.207832"><ele></ele><time>2014-4-4T22:54:39Z</time></trkpt>
<trkpt lat="42.254298" lon="3.207932"><ele></ele><time>2014-4-4T22:54:42Z</time></trkpt>
<trkpt lat="42.254265" lon="3.208025"><ele></ele><time>2014-4-4T22:54:45Z</time></trkpt>
<trkpt lat="42.254227" lon="3.208115"><ele></ele><time>2014-4-4T22:54:48Z</time></trkpt>
<trkpt lat="42.254192" lon="3.208210"><ele></ele><time>2014-4-4T22:54:51Z</time></trkpt>
<trkpt lat="42.254143" lon="3.208303"><ele></ele><time>2014-4-4T22:54:54Z</time></trkpt>
<trkpt lat="42.254097" lon="3.208400"><ele></ele><time>2014-4-4T22:54:57Z</time></trkpt>
<trkpt lat="42.254055" lon="3.208493"><ele></ele><time>2014-4-4T22:55:0Z</time></trkpt>
<trkpt lat="42.254010" lon="3.208583"><ele></ele><time>2014-4-4T22:55:3Z</time></trkpt>
<trkpt lat="42.253963" lon="3.208670"><ele></ele><time>2014-4-4T22:55:6Z</time></trkpt>
<trkpt lat="42.253913" lon="3.208750"><ele></ele><time>2014-4-4T22:55:9Z</time></trkpt>
<trkpt lat="42.253865" lon="3.208838"><ele></ele><time>2014-4-4T22:55:12Z</time></trkpt>
<trkpt lat="42.253815" lon="3.208927"><ele></ele><time>2014-4-4T22:55:15Z</time></trkpt>
<trkpt lat="42.253757" lon="3.209013"><ele></ele><time>2014-4-4T22:55:18Z</time></trkpt>
<trkpt lat="42.253703" lon="3.209095"><ele></ele><time>2014-4-4T22:55:21Z</time></trkpt>
<trkpt lat="42.253650" lon="3.209182"><ele></ele><time>2014-4-4T22:55:24Z</time></trkpt>
<trkpt lat="42.253605" lon="3.209275"><ele></ele><time>2014-4-4T22:55:27Z</time></trkpt>
<trkpt lat="42.253578" lon="3.209348"><ele></ele><time>2014-4-4T22:55:30Z</time></trkpt>
<trkpt lat="42.253540" lon="3.209467"><ele></ele><time>2014-4-4T22:55:33Z</time></trkpt>
<trkpt lat="42.253505" lon="3.209613"><ele></ele><time>2014-4-4T22:55:36Z</time></trkpt>
<trkpt lat="42.253475" lon="3.209745"><ele></ele><time>2014-4-4T22:55:39Z</time></trkpt>
<trkpt lat="42.253433" lon="3.209860"><ele></ele><time>2014-4-4T22:55:42Z</time></trkpt>
<trkpt lat="42.253392" lon="3.209973"><ele></ele><time>2014-4-4T22:55:45Z</time></trkpt>
<trkpt lat="42.253353" lon="3.210095"><ele></ele><time>2014-4-4T22:55:48Z</time></trkpt>
<trkpt lat="42.253318" lon="3.210210"><ele></ele><time>2014-4-4T22:55:51Z</time></trkpt>
<trkpt lat="42.253280" lon="3.210330"><ele></ele><time>2014-4-4T22:55:54Z</time></trkpt>
<trkpt lat="42.253265" lon="3.210457"><ele></ele><time>2014-4-4T22:55:57Z</time></trkpt>
<trkpt lat="42.253288" lon="3.210595"><ele></ele><time>2014-4-4T22:56:0Z</time></trkpt>
<trkpt lat="42.253383" lon="3.210680"><ele></ele><time>2014-4-4T22:56:3Z</time></trkpt>
<trkpt lat="42.253483" lon="3.210610"><ele></ele><time>2014-4-4T22:56:6Z</time></trkpt>
<trkpt lat="42.253517" lon="3.210477"><ele></ele><time>2014-4-4T22:56:9Z</time></trkpt>
<trkpt lat="42.253490" lon="3.210337"><ele></ele><time>2014-4-4T22:56:12Z</time></trkpt>
<trkpt lat="42.253498" lon="3.210202"><ele></ele><time>2014-4-4T22:56:15Z</time></trkpt>
<trkpt lat="42.253540" lon="3.210085"><ele></ele><time>2014-4-4T22:56:18Z</time></trkpt>
<trkpt lat="42.253605" lon="3.209988"><ele></ele><time>2014-4-4T22:56:21Z</time></trkpt>
<trkpt lat="42.253670" lon="3.209908"><ele></ele><time>2014-4-4T22:56:24Z</time></trkpt>
<trkpt lat="42.253738" lon="3.209820"><ele></ele><time>2014-4-4T22:56:27Z</time></trkpt>
<trkpt lat="42.253815" lon="3.209747"><ele></ele><time>2014-4-4T22:56:30Z</time></trkpt>
<trkpt lat="42.253880" lon="3.209675"><ele></ele><time>2014-4-4T22:56:33Z</time></trkpt>
<trkpt lat="42.253945" lon="3.209607"><ele></ele><time>2014-4-4T22:56:36Z</time></trkpt>
<trkpt lat="42.254020" lon="3.209543"><ele></ele><time>2014-4-4T22:56:39Z</time></trkpt>
<trkpt lat="42.254097" lon="3.209507"><ele></ele><time>2014-4-4T22:56:42Z</time></trkpt>
<trkpt lat="42.254170" lon="3.209478"><ele></ele><time>2014-4-4T22:56:45Z</time></trkpt>
<trkpt lat="42.254242" lon="3.209448"><ele></ele><time>2014-4-4T22:56:48Z</time></trkpt>
<trkpt lat="42.254322" lon="3.209415"><ele></ele><time>2014-4-4T22:56:51Z</time></trkpt>
<trkpt lat="42.254398" lon="3.209372"><ele></ele><time>2014-4-4T22:56:54Z</time></trkpt>
<trkpt lat="42.254475" lon="3.209335"><ele></ele><time>2014-4-4T22:56:57Z</time></trkpt>
<trkpt lat="42.254562" lon="3.209298"><ele></ele><time>2014-4-4T22:57:0Z</time></trkpt>
<trkpt lat="42.254642" lon="3.209255"><ele></ele><time>2014-4-4T22:57:3Z</time></trkpt>
<trkpt lat="42.254715" lon="3.209213"><ele></ele><time>2014-4-4T22:57:6Z</time></trkpt>
<trkpt lat="42.254795" lon="3.209163"><ele></ele><time>2014-4-4T22:57:9Z</time></trkpt>
<trkpt lat="42.254875" lon="3.209120"><ele></ele><time>2014-4-4T22:57:12Z</time></trkpt>
<trkpt lat="42.254955" lon="3.209077"><ele></ele><time>2014-4-4T22:57:15Z</time></trkpt>
<trkpt lat="42.255040" lon="3.209028"><ele></ele><time>2014-4-4T22:57:18Z</time></trkpt>
<trkpt lat="42.255115" lon="3.208978"><ele></ele><time>2014-4-4T22:57:21Z</time></trkpt>
<trkpt lat="42.255200" lon="3.208930"><ele></ele><time>2014-4-4T22:57:24Z</time></trkpt>
<trkpt lat="42.255272" lon="3.208872"><ele></ele><time>2014-4-4T22:57:27Z</time></trkpt>
<trkpt lat="42.255345" lon="3.208810"><ele></ele><time>2014-4-4T22:57:30Z</time></trkpt>
<trkpt lat="42.255413" lon="3.208742"><ele></ele><time>2014-4-4T22:57:33Z</time></trkpt>
<trkpt lat="42.255482" lon="3.208672"><ele></ele><time>2014-4-4T22:57:36Z</time></trkpt>
<trkpt lat="42.255550" lon="3.208595"><ele></ele><time>2014-4-4T22:57:39Z</time></trkpt>
<trkpt lat="42.255623" lon="3.208520"><ele></ele><time>2014-4-4T22:57:42Z</time></trkpt>
<trkpt lat="42.255692" lon="3.208438"><ele></ele><time>2014-4-4T22:57:45Z</time></trkpt>
<trkpt lat="42.255757" lon="3.208365"><ele></ele><time>2014-4-4T22:57:48Z</time></trkpt>
<trkpt lat="42.255828" lon="3.208293"><ele></ele><time>2014-4-4T22:57:51Z</time></trkpt>
<trkpt lat="42.255902" lon="3.208230"><ele></ele><time>2014-4-4T22:57:54Z</time></trkpt>
<trkpt lat="42.255982" lon="3.208182"><ele></ele><time>2014-4-4T22:57:57Z</time></trkpt>
<trkpt lat="42.256058" lon="3.208142"><ele></ele><time>2014-4-4T22:58:0Z</time></trkpt>
<trkpt lat="42.256138" lon="3.208102"><ele></ele><time>2014-4-4T22:58:3Z</time></trkpt>
<trkpt lat="42.256225" lon="3.208067"><ele></ele><time>2014-4-4T22:58:6Z</time></trkpt>
<trkpt lat="42.256310" lon="3.208023"><ele></ele><time>2014-4-4T22:58:9Z</time></trkpt>
<trkpt lat="42.256393" lon="3.207973"><ele></ele><time>2014-4-4T22:58:12Z</time></trkpt>
<trkpt lat="42.256477" lon="3.207928"><ele></ele><time>2014-4-4T22:58:15Z</time></trkpt>
<trkpt lat="42.256562" lon="3.207890"><ele></ele><time>2014-4-4T22:58:18Z</time></trkpt>
<trkpt lat="42.256638" lon="3.207843"><ele></ele><time>2014-4-4T22:58:21Z</time></trkpt>
<trkpt lat="42.256725" lon="3.207812"><ele></ele><time>2014-4-4T22:58:24Z</time></trkpt>
<trkpt lat="42.256813" lon="3.207803"><ele></ele><time>2014-4-4T22:58:27Z</time></trkpt>
<trkpt lat="42.256900" lon="3.207792"><ele></ele><time>2014-4-4T22:58:30Z</time></trkpt>
<trkpt lat="42.257000" lon="3.207803"><ele></ele><time>2014-4-4T22:58:33Z</time></trkpt>
<trkpt lat="42.257098" lon="3.207832"><ele></ele><time>2014-4-4T22:58:36Z</time></trkpt>
<trkpt lat="42.257190" lon="3.207872"><ele></ele><time>2014-4-4T22:58:39Z</time></trkpt>
<trkpt lat="42.257278" lon="3.207913"><ele></ele><time>2014-4-4T22:58:42Z</time></trkpt>
<trkpt lat="42.257362" lon="3.207955"><ele></ele><time>2014-4-4T22:58:45Z</time></trkpt>
<trkpt lat="42.257450" lon="3.207995"><ele></ele><time>2014-4-4T22:58:48Z</time></trkpt>
<trkpt lat="42.257542" lon="3.208033"><ele></ele><time>2014-4-4T22:58:51Z</time></trkpt>
<trkpt lat="42.257637" lon="3.208083"><ele></ele><time>2014-4-4T22:58:54Z</time></trkpt>
<trkpt lat="42.257728" lon="3.208083"><ele></ele><time>2014-4-4T22:58:57Z</time></trkpt>
<trkpt lat="42.257823" lon="3.208098"><ele></ele><time>2014-4-4T22:59:0Z</time></trkpt>
<trkpt lat="42.257923" lon="3.208103"><ele></ele><time>2014-4-4T22:59:3Z</time></trkpt>
<trkpt lat="42.258012" lon="3.208102"><ele></ele><time>2014-4-4T22:59:6Z</time></trkpt>
<trkpt lat="42.258102" lon="3.208093"><ele></ele><time>2014-4-4T22:59:9Z</time></trkpt>
<trkpt lat="42.258198" lon="3.208080"><ele></ele><time>2014-4-4T22:59:12Z</time></trkpt>
<trkpt lat="42.258285" lon="3.208067"><ele></ele><time>2014-4-4T22:59:15Z</time></trkpt>
<trkpt lat="42.258370" lon="3.208048"><ele></ele><time>2014-4-4T22:59:18Z</time></trkpt>
<trkpt lat="42.258457" lon="3.208002"><ele></ele><time>2014-4-4T22:59:21Z</time></trkpt>
<trkpt lat="42.258530" lon="3.207943"><ele></ele><time>2014-4-4T22:59:24Z</time></trkpt>
<trkpt lat="42.258607" lon="3.207882"><ele></ele><time>2014-4-4T22:59:27Z</time></trkpt>
<trkpt lat="42.258682" lon="3.207820"><ele></ele><time>2014-4-4T22:59:30Z</time></trkpt>
<trkpt lat="42.258755" lon="3.207757"><ele></ele><time>2014-4-4T22:59:33Z</time></trkpt>
<trkpt lat="42.258827" lon="3.207702"><ele></ele><time>2014-4-4T22:59:36Z</time></trkpt>
<trkpt lat="42.258903" lon="3.207642"><ele></ele><time>2014-4-4T22:59:39Z</time></trkpt>
<trkpt lat="42.258983" lon="3.207575"><ele></ele><time>2014-4-4T22:59:42Z</time></trkpt>
<trkpt lat="42.259060" lon="3.207515"><ele></ele><time>2014-4-4T22:59:45Z</time></trkpt>
<trkpt lat="42.259132" lon="3.207458"><ele></ele><time>2014-4-4T22:59:48Z</time></trkpt>
<trkpt lat="42.259217" lon="3.207433"><ele></ele><time>2014-4-4T22:59:51Z</time></trkpt>
<trkpt lat="42.259288" lon="3.207375"><ele></ele><time>2014-4-4T22:59:54Z</time></trkpt>
<trkpt lat="42.259368" lon="3.207325"><ele></ele><time>2014-4-4T22:59:57Z</time></trkpt>
<trkpt lat="42.259445" lon="3.207287"><ele></ele><time>2014-4-4T23:0:0Z</time></trkpt>
<trkpt lat="42.259533" lon="3.207262"><ele></ele><time>2014-4-4T23:0:3Z</time></trkpt>
<trkpt lat="42.259617" lon="3.207247"><ele></ele><time>2014-4-4T23:0:6Z</time></trkpt>
<trkpt lat="42.259697" lon="3.207195"><ele></ele><time>2014-4-4T23:0:9Z</time></trkpt>
<trkpt lat="42.259792" lon="3.207168"><ele></ele><time>2014-4-4T23:0:12Z</time></trkpt>
<trkpt lat="42.259888" lon="3.207157"><ele></ele><time>2014-4-4T23:0:15Z</time></trkpt>
<trkpt lat="42.259975" lon="3.207157"><ele></ele><time>2014-4-4T23:0:18Z</time></trkpt>
<trkpt lat="42.260063" lon="3.207155"><ele></ele><time>2014-4-4T23:0:21Z</time></trkpt>
<trkpt lat="42.260158" lon="3.207158"><ele></ele><time>2014-4-4T23:0:24Z</time></trkpt>
<trkpt lat="42.260238" lon="3.207167"><ele></ele><time>2014-4-4T23:0:27Z</time></trkpt>
<trkpt lat="42.260318" lon="3.207173"><ele></ele><time>2014-4-4T23:0:30Z</time></trkpt>
<trkpt lat="42.260407" lon="3.207178"><ele></ele><time>2014-4-4T23:0:33Z</time></trkpt>
<trkpt lat="42.260487" lon="3.207200"><ele></ele><time>2014-4-4T23:0:36Z</time></trkpt>
<trkpt lat="42.260578" lon="3.207225"><ele></ele><time>2014-4-4T23:0:39Z</time></trkpt>
<trkpt lat="42.260667" lon="3.207253"><ele></ele><time>2014-4-4T23:0:42Z</time></trkpt>
<trkpt lat="42.260753" lon="3.207273"><ele></ele><time>2014-4-4T23:0:45Z</time></trkpt>
<trkpt lat="42.260845" lon="3.207277"><ele></ele><time>2014-4-4T23:0:48Z</time></trkpt>
<trkpt lat="42.260945" lon="3.207255"><ele></ele><time>2014-4-4T23:0:51Z</time></trkpt>
<trkpt lat="42.261025" lon="3.207223"><ele></ele><time>2014-4-4T23:0:54Z</time></trkpt>
<trkpt lat="42.261105" lon="3.207182"><ele></ele><time>2014-4-4T23:0:57Z</time></trkpt>
<trkpt lat="42.261185" lon="3.207133"><ele></ele><time>2014-4-4T23:1:0Z</time></trkpt>
<trkpt lat="42.261257" lon="3.207078"><ele></ele><time>2014-4-4T23:1:3Z</time></trkpt>
<trkpt lat="42.261330" lon="3.207025"><ele></ele><time>2014-4-4T23:1:6Z</time></trkpt>
<trkpt lat="42.261398" lon="3.206965"><ele></ele><time>2014-4-4T23:1:9Z</time></trkpt>
<trkpt lat="42.261475" lon="3.206908"><ele></ele><time>2014-4-4T23:1:12Z</time></trkpt>
<trkpt lat="42.261552" lon="3.206852"><ele></ele><time>2014-4-4T23:1:15Z</time></trkpt>
<trkpt lat="42.261623" lon="3.206800"><ele></ele><time>2014-4-4T23:1:18Z</time></trkpt>
<trkpt lat="42.261700" lon="3.206758"><ele></ele><time>2014-4-4T23:1:21Z</time></trkpt>
<trkpt lat="42.261777" lon="3.206725"><ele></ele><time>2014-4-4T23:1:24Z</time></trkpt>
<trkpt lat="42.261852" lon="3.206700"><ele></ele><time>2014-4-4T23:1:27Z</time></trkpt>
<trkpt lat="42.261937" lon="3.206693"><ele></ele><time>2014-4-4T23:1:30Z</time></trkpt>
<trkpt lat="42.262017" lon="3.206708"><ele></ele><time>2014-4-4T23:1:33Z</time></trkpt>
<trkpt lat="42.262103" lon="3.206737"><ele></ele><time>2014-4-4T23:1:36Z</time></trkpt>
<trkpt lat="42.262188" lon="3.206765"><ele></ele><time>2014-4-4T23:1:39Z</time></trkpt>
<trkpt lat="42.262275" lon="3.206790"><ele></ele><time>2014-4-4T23:1:42Z</time></trkpt>
<trkpt lat="42.262360" lon="3.206817"><ele></ele><time>2014-4-4T23:1:45Z</time></trkpt>
<trkpt lat="42.262440" lon="3.206848"><ele></ele><time>2014-4-4T23:1:48Z</time></trkpt>
<trkpt lat="42.262523" lon="3.206883"><ele></ele><time>2014-4-4T23:1:51Z</time></trkpt>
<trkpt lat="42.262600" lon="3.206953"><ele></ele><time>2014-4-4T23:1:54Z</time></trkpt>
<trkpt lat="42.262645" lon="3.207058"><ele></ele><time>2014-4-4T23:1:57Z</time></trkpt>
<trkpt lat="42.262653" lon="3.207187"><ele></ele><time>2014-4-4T23:2:0Z</time></trkpt>
<trkpt lat="42.262677" lon="3.207320"><ele></ele><time>2014-4-4T23:2:3Z</time></trkpt>
<trkpt lat="42.262707" lon="3.207457"><ele></ele><time>2014-4-4T23:2:6Z</time></trkpt>
<trkpt lat="42.262733" lon="3.207590"><ele></ele><time>2014-4-4T23:2:9Z</time></trkpt>
<trkpt lat="42.262772" lon="3.207735"><ele></ele><time>2014-4-4T23:2:12Z</time></trkpt>
<trkpt lat="42.262807" lon="3.207880"><ele></ele><time>2014-4-4T23:2:15Z</time></trkpt>
<trkpt lat="42.262863" lon="3.207997"><ele></ele><time>2014-4-4T23:2:18Z</time></trkpt>
<trkpt lat="42.262887" lon="3.208105"><ele></ele><time>2014-4-4T23:2:21Z</time></trkpt>
<trkpt lat="42.262928" lon="3.208212"><ele></ele><time>2014-4-4T23:2:24Z</time></trkpt>
<trkpt lat="42.262993" lon="3.208303"><ele></ele><time>2014-4-4T23:2:27Z</time></trkpt>
<trkpt lat="42.263062" lon="3.208397"><ele></ele><time>2014-4-4T23:2:30Z</time></trkpt>
<trkpt lat="42.263142" lon="3.208458"><ele></ele><time>2014-4-4T23:2:33Z</time></trkpt>
<trkpt lat="42.263225" lon="3.208503"><ele></ele><time>2014-4-4T23:2:36Z</time></trkpt>
<trkpt lat="42.263317" lon="3.208523"><ele></ele><time>2014-4-4T23:2:39Z</time></trkpt>
<trkpt lat="42.263408" lon="3.208517"><ele></ele><time>2014-4-4T23:2:42Z</time></trkpt>
<trkpt lat="42.263488" lon="3.208485"><ele></ele><time>2014-4-4T23:2:45Z</time></trkpt>
<trkpt lat="42.263557" lon="3.208425"><ele></ele><time>2014-4-4T23:2:48Z</time></trkpt>
<trkpt lat="42.263627" lon="3.208370"><ele></ele><time>2014-4-4T23:2:51Z</time></trkpt>
<trkpt lat="42.263698" lon="3.208317"><ele></ele><time>2014-4-4T23:2:54Z</time></trkpt>
<trkpt lat="42.263767" lon="3.208262"><ele></ele><time>2014-4-4T23:2:57Z</time></trkpt>
<trkpt lat="42.263843" lon="3.208217"><ele></ele><time>2014-4-4T23:3:0Z</time></trkpt>
<trkpt lat="42.263935" lon="3.208182"><ele></ele><time>2014-4-4T23:3:3Z</time></trkpt>
<trkpt lat="42.264027" lon="3.208157"><ele></ele><time>2014-4-4T23:3:6Z</time></trkpt>
<trkpt lat="42.264110" lon="3.208138"><ele></ele><time>2014-4-4T23:3:9Z</time></trkpt>
<trkpt lat="42.264198" lon="3.208133"><ele></ele><time>2014-4-4T23:3:12Z</time></trkpt>
<trkpt lat="42.264282" lon="3.208177"><ele></ele><time>2014-4-4T23:3:15Z</time></trkpt>
<trkpt lat="42.264328" lon="3.208287"><ele></ele><time>2014-4-4T23:3:18Z</time></trkpt>
<trkpt lat="42.264332" lon="3.208423"><ele></ele><time>2014-4-4T23:3:21Z</time></trkpt>
<trkpt lat="42.264325" lon="3.208562"><ele></ele><time>2014-4-4T23:3:24Z</time></trkpt>
<trkpt lat="42.264325" lon="3.208700"><ele></ele><time>2014-4-4T23:3:27Z</time></trkpt>
<trkpt lat="42.264325" lon="3.208853"><ele></ele><time>2014-4-4T23:3:30Z</time></trkpt>
<trkpt lat="42.264317" lon="3.209008"><ele></ele><time>2014-4-4T23:3:33Z</time></trkpt>
<trkpt lat="42.264317" lon="3.209185"><ele></ele><time>2014-4-4T23:3:36Z</time></trkpt>
<trkpt lat="42.264317" lon="3.209370"><ele></ele><time>2014-4-4T23:3:39Z</time></trkpt>
<trkpt lat="42.264320" lon="3.209553"><ele></ele><time>2014-4-4T23:3:42Z</time></trkpt>
<trkpt lat="42.264302" lon="3.209792"><ele></ele><time>2014-4-4T23:3:45Z</time></trkpt>
<trkpt lat="42.264290" lon="3.210068"><ele></ele><time>2014-4-4T23:3:48Z</time></trkpt>
<trkpt lat="42.264222" lon="3.210393"><ele></ele><time>2014-4-4T23:3:51Z</time></trkpt>
<trkpt lat="42.264103" lon="3.210655"><ele></ele><time>2014-4-4T23:3:54Z</time></trkpt>
<trkpt lat="42.264065" lon="3.210895"><ele></ele><time>2014-4-4T23:3:57Z</time></trkpt>
<trkpt lat="42.264083" lon="3.211143"><ele></ele><time>2014-4-4T23:4:0Z</time></trkpt>
<trkpt lat="42.264095" lon="3.211405"><ele></ele><time>2014-4-4T23:4:3Z</time></trkpt>
<trkpt lat="42.264107" lon="3.211693"><ele></ele><time>2014-4-4T23:4:6Z</time></trkpt>
<trkpt lat="42.264122" lon="3.212013"><ele></ele><time>2014-4-4T23:4:9Z</time></trkpt>
<trkpt lat="42.264118" lon="3.212322"><ele></ele><time>2014-4-4T23:4:12Z</time></trkpt>
<trkpt lat="42.264168" lon="3.212570"><ele></ele><time>2014-4-4T23:4:15Z</time></trkpt>
<trkpt lat="42.264217" lon="3.212713"><ele></ele><time>2014-4-4T23:4:18Z</time></trkpt>
<trkpt lat="42.264263" lon="3.212825"><ele></ele><time>2014-4-4T23:4:21Z</time></trkpt>
<trkpt lat="42.264317" lon="3.212930"><ele></ele><time>2014-4-4T23:4:24Z</time></trkpt>
<trkpt lat="42.264373" lon="3.213017"><ele></ele><time>2014-4-4T23:4:27Z</time></trkpt>
<trkpt lat="42.264427" lon="3.213107"><ele></ele><time>2014-4-4T23:4:30Z</time></trkpt>
<trkpt lat="42.264485" lon="3.213183"><ele></ele><time>2014-4-4T23:4:33Z</time></trkpt>
<trkpt lat="42.264542" lon="3.213253"><ele></ele><time>2014-4-4T23:4:36Z</time></trkpt>
<trkpt lat="42.264595" lon="3.213327"><ele></ele><time>2014-4-4T23:4:39Z</time></trkpt>
<trkpt lat="42.264648" lon="3.213390"><ele></ele><time>2014-4-4T23:4:42Z</time></trkpt>
<trkpt lat="42.264695" lon="3.213450"><ele></ele><time>2014-4-4T23:4:45Z</time></trkpt>
<trkpt lat="42.264743" lon="3.213507"><ele></ele><time>2014-4-4T23:4:48Z</time></trkpt>
<trkpt lat="42.264802" lon="3.213570"><ele></ele><time>2014-4-4T23:4:51Z</time></trkpt>
<trkpt lat="42.264867" lon="3.213633"><ele></ele><time>2014-4-4T23:4:54Z</time></trkpt>
<trkpt lat="42.264930" lon="3.213695"><ele></ele><time>2014-4-4T23:4:57Z</time></trkpt>
<trkpt lat="42.264995" lon="3.213752"><ele></ele><time>2014-4-4T23:5:0Z</time></trkpt>
<trkpt lat="42.265065" lon="3.213812"><ele></ele><time>2014-4-4T23:5:3Z</time></trkpt>
<trkpt lat="42.265128" lon="3.213875"><ele></ele><time>2014-4-4T23:5:6Z</time></trkpt>
<trkpt lat="42.265210" lon="3.213948"><ele></ele><time>2014-4-4T23:5:9Z</time></trkpt>
<trkpt lat="42.265270" lon="3.214012"><ele></ele><time>2014-4-4T23:5:12Z</time></trkpt>
<trkpt lat="42.265335" lon="3.214072"><ele></ele><time>2014-4-4T23:5:15Z</time></trkpt>
<trkpt lat="42.265397" lon="3.214133"><ele></ele><time>2014-4-4T23:5:18Z</time></trkpt>
<trkpt lat="42.265457" lon="3.214197"><ele></ele><time>2014-4-4T23:5:21Z</time></trkpt>
<trkpt lat="42.265525" lon="3.214257"><ele></ele><time>2014-4-4T23:5:24Z</time></trkpt>
<trkpt lat="42.265595" lon="3.214308"><ele></ele><time>2014-4-4T23:5:27Z</time></trkpt>
<trkpt lat="42.265663" lon="3.214355"><ele></ele><time>2014-4-4T23:5:30Z</time></trkpt>
<trkpt lat="42.265735" lon="3.214390"><ele></ele><time>2014-4-4T23:5:33Z</time></trkpt>
<trkpt lat="42.265820" lon="3.214397"><ele></ele><time>2014-4-4T23:5:36Z</time></trkpt>
<trkpt lat="42.265897" lon="3.214370"><ele></ele><time>2014-4-4T23:5:39Z</time></trkpt>
<trkpt lat="42.265968" lon="3.214323"><ele></ele><time>2014-4-4T23:5:42Z</time></trkpt>
<trkpt lat="42.266037" lon="3.214262"><ele></ele><time>2014-4-4T23:5:45Z</time></trkpt>
<trkpt lat="42.266105" lon="3.214195"><ele></ele><time>2014-4-4T23:5:48Z</time></trkpt>
<trkpt lat="42.266167" lon="3.214127"><ele></ele><time>2014-4-4T23:5:51Z</time></trkpt>
<trkpt lat="42.266223" lon="3.214055"><ele></ele><time>2014-4-4T23:5:54Z</time></trkpt>
<trkpt lat="42.266282" lon="3.213977"><ele></ele><time>2014-4-4T23:5:57Z</time></trkpt>
<trkpt lat="42.266330" lon="3.213887"><ele></ele><time>2014-4-4T23:6:0Z</time></trkpt>
<trkpt lat="42.266380" lon="3.213797"><ele></ele><time>2014-4-4T23:6:3Z</time></trkpt>
<trkpt lat="42.266430" lon="3.213723"><ele></ele><time>2014-4-4T23:6:6Z</time></trkpt>
<trkpt lat="42.266510" lon="3.213677"><ele></ele><time>2014-4-4T23:6:9Z</time></trkpt>
<trkpt lat="42.266587" lon="3.213697"><ele></ele><time>2014-4-4T23:6:12Z</time></trkpt>
<trkpt lat="42.266647" lon="3.213747"><ele></ele><time>2014-4-4T23:6:15Z</time></trkpt>
<trkpt lat="42.266705" lon="3.213805"><ele></ele><time>2014-4-4T23:6:18Z</time></trkpt>
<trkpt lat="42.266758" lon="3.213865"><ele></ele><time>2014-4-4T23:6:21Z</time></trkpt>
<trkpt lat="42.266818" lon="3.213928"><ele></ele><time>2014-4-4T23:6:24Z</time></trkpt>
<trkpt lat="42.266880" lon="3.213988"><ele></ele><time>2014-4-4T23:6:27Z</time></trkpt>
<trkpt lat="42.266945" lon="3.214053"><ele></ele><time>2014-4-4T23:6:30Z</time></trkpt>
<trkpt lat="42.267007" lon="3.214122"><ele></ele><time>2014-4-4T23:6:33Z</time></trkpt>
<trkpt lat="42.267060" lon="3.214187"><ele></ele><time>2014-4-4T23:6:36Z</time></trkpt>
<trkpt lat="42.267120" lon="3.214252"><ele></ele><time>2014-4-4T23:6:39Z</time></trkpt>
<trkpt lat="42.267178" lon="3.214310"><ele></ele><time>2014-4-4T23:6:42Z</time></trkpt>
<trkpt lat="42.267235" lon="3.214377"><ele></ele><time>2014-4-4T23:6:45Z</time></trkpt>
<trkpt lat="42.267292" lon="3.214455"><ele></ele><time>2014-4-4T23:6:48Z</time></trkpt>
<trkpt lat="42.267350" lon="3.214532"><ele></ele><time>2014-4-4T23:6:51Z</time></trkpt>
<trkpt lat="42.267407" lon="3.214608"><ele></ele><time>2014-4-4T23:6:54Z</time></trkpt>
<trkpt lat="42.267463" lon="3.214677"><ele></ele><time>2014-4-4T23:6:57Z</time></trkpt>
<trkpt lat="42.267525" lon="3.214750"><ele></ele><time>2014-4-4T23:7:0Z</time></trkpt>
<trkpt lat="42.267585" lon="3.214827"><ele></ele><time>2014-4-4T23:7:3Z</time></trkpt>
<trkpt lat="42.267643" lon="3.214898"><ele></ele><time>2014-4-4T23:7:6Z</time></trkpt>
<trkpt lat="42.267697" lon="3.214977"><ele></ele><time>2014-4-4T23:7:9Z</time></trkpt>
<trkpt lat="42.267747" lon="3.215063"><ele></ele><time>2014-4-4T23:7:12Z</time></trkpt>
<trkpt lat="42.267788" lon="3.215162"><ele></ele><time>2014-4-4T23:7:15Z</time></trkpt>
<trkpt lat="42.267818" lon="3.215262"><ele></ele><time>2014-4-4T23:7:18Z</time></trkpt>
<trkpt lat="42.267880" lon="3.215338"><ele></ele><time>2014-4-4T23:7:21Z</time></trkpt>
<trkpt lat="42.267948" lon="3.215400"><ele></ele><time>2014-4-4T23:7:24Z</time></trkpt>
<trkpt lat="42.268028" lon="3.215450"><ele></ele><time>2014-4-4T23:7:27Z</time></trkpt>
<trkpt lat="42.268112" lon="3.215477"><ele></ele><time>2014-4-4T23:7:30Z</time></trkpt>
<trkpt lat="42.268212" lon="3.215495"><ele></ele><time>2014-4-4T23:7:33Z</time></trkpt>
<trkpt lat="42.268295" lon="3.215505"><ele></ele><time>2014-4-4T23:7:36Z</time></trkpt>
<trkpt lat="42.268372" lon="3.215520"><ele></ele><time>2014-4-4T23:7:39Z</time></trkpt>
<trkpt lat="42.268455" lon="3.215538"><ele></ele><time>2014-4-4T23:7:42Z</time></trkpt>
<trkpt lat="42.268535" lon="3.215552"><ele></ele><time>2014-4-4T23:7:45Z</time></trkpt>
<trkpt lat="42.268627" lon="3.215572"><ele></ele><time>2014-4-4T23:7:48Z</time></trkpt>
<trkpt lat="42.268707" lon="3.215600"><ele></ele><time>2014-4-4T23:7:51Z</time></trkpt>
<trkpt lat="42.268792" lon="3.215640"><ele></ele><time>2014-4-4T23:7:54Z</time></trkpt>
<trkpt lat="42.268872" lon="3.215700"><ele></ele><time>2014-4-4T23:7:57Z</time></trkpt>
<trkpt lat="42.268932" lon="3.215785"><ele></ele><time>2014-4-4T23:8:0Z</time></trkpt>
<trkpt lat="42.268993" lon="3.215865"><ele></ele><time>2014-4-4T23:8:3Z</time></trkpt>
<trkpt lat="42.269050" lon="3.215972"><ele></ele><time>2014-4-4T23:8:6Z</time></trkpt>
<trkpt lat="42.269088" lon="3.216095"><ele></ele><time>2014-4-4T23:8:9Z</time></trkpt>
<trkpt lat="42.269147" lon="3.216197"><ele></ele><time>2014-4-4T23:8:12Z</time></trkpt>
<trkpt lat="42.269188" lon="3.216293"><ele></ele><time>2014-4-4T23:8:15Z</time></trkpt>
<trkpt lat="42.269230" lon="3.216392"><ele></ele><time>2014-4-4T23:8:18Z</time></trkpt>
<trkpt lat="42.269268" lon="3.216468"><ele></ele><time>2014-4-4T23:8:21Z</time></trkpt>
<trkpt lat="42.269298" lon="3.216493"><ele></ele><time>2014-4-4T23:8:24Z</time></trkpt>
<trkpt lat="42.269345" lon="3.216487"><ele></ele><time>2014-4-4T23:8:27Z</time></trkpt>
<trkpt lat="42.269458" lon="3.216595"><ele></ele><time>2014-4-4T23:8:30Z</time></trkpt>
<trkpt lat="42.269630" lon="3.216758"><ele></ele><time>2014-4-4T23:8:33Z</time></trkpt>
<trkpt lat="42.269787" lon="3.216917"><ele></ele><time>2014-4-4T23:8:36Z</time></trkpt>
<trkpt lat="42.270038" lon="3.217140"><ele></ele><time>2014-4-4T23:8:39Z</time></trkpt>
<trkpt lat="42.270298" lon="3.217358"><ele></ele><time>2014-4-4T23:8:42Z</time></trkpt>
<trkpt lat="42.270503" lon="3.217447"><ele></ele><time>2014-4-4T23:8:45Z</time></trkpt>
<trkpt lat="42.270627" lon="3.217342"><ele></ele><time>2014-4-4T23:8:48Z</time></trkpt>
<trkpt lat="42.270718" lon="3.217240"><ele></ele><time>2014-4-4T23:8:51Z</time></trkpt>
<trkpt lat="42.270798" lon="3.217128"><ele></ele><time>2014-4-4T23:8:54Z</time></trkpt>
<trkpt lat="42.270882" lon="3.217018"><ele></ele><time>2014-4-4T23:8:57Z</time></trkpt>
<trkpt lat="42.270965" lon="3.216903"><ele></ele><time>2014-4-4T23:9:0Z</time></trkpt>
<trkpt lat="42.271042" lon="3.216773"><ele></ele><time>2014-4-4T23:9:3Z</time></trkpt>
<trkpt lat="42.271107" lon="3.216648"><ele></ele><time>2014-4-4T23:9:6Z</time></trkpt>
<trkpt lat="42.271172" lon="3.216525"><ele></ele><time>2014-4-4T23:9:9Z</time></trkpt>
<trkpt lat="42.271240" lon="3.216397"><ele></ele><time>2014-4-4T23:9:12Z</time></trkpt>
<trkpt lat="42.271305" lon="3.216283"><ele></ele><time>2014-4-4T23:9:15Z</time></trkpt>
<trkpt lat="42.271378" lon="3.216180"><ele></ele><time>2014-4-4T23:9:18Z</time></trkpt>
<trkpt lat="42.271458" lon="3.216085"><ele></ele><time>2014-4-4T23:9:21Z</time></trkpt>
<trkpt lat="42.271538" lon="3.215998"><ele></ele><time>2014-4-4T23:9:24Z</time></trkpt>
<trkpt lat="42.271625" lon="3.215908"><ele></ele><time>2014-4-4T23:9:27Z</time></trkpt>
<trkpt lat="42.271740" lon="3.215833"><ele></ele><time>2014-4-4T23:9:30Z</time></trkpt>
<trkpt lat="42.271862" lon="3.215810"><ele></ele><time>2014-4-4T23:9:33Z</time></trkpt>
<trkpt lat="42.271965" lon="3.215812"><ele></ele><time>2014-4-4T23:9:36Z</time></trkpt>
<trkpt lat="42.272087" lon="3.215790"><ele></ele><time>2014-4-4T23:9:39Z</time></trkpt>
<trkpt lat="42.272228" lon="3.215800"><ele></ele><time>2014-4-4T23:9:42Z</time></trkpt>
<trkpt lat="42.272412" lon="3.215752"><ele></ele><time>2014-4-4T23:9:45Z</time></trkpt>
<trkpt lat="42.272617" lon="3.215735"><ele></ele><time>2014-4-4T23:9:48Z</time></trkpt>
<trkpt lat="42.272842" lon="3.215747"><ele></ele><time>2014-4-4T23:9:51Z</time></trkpt>
<trkpt lat="42.273040" lon="3.215825"><ele></ele><time>2014-4-4T23:9:54Z</time></trkpt>
<trkpt lat="42.273202" lon="3.215917"><ele></ele><time>2014-4-4T23:9:57Z</time></trkpt>
<trkpt lat="42.273377" lon="3.216057"><ele></ele><time>2014-4-4T23:10:0Z</time></trkpt>
<trkpt lat="42.273555" lon="3.216243"><ele></ele><time>2014-4-4T23:10:3Z</time></trkpt>
<trkpt lat="42.273732" lon="3.216367"><ele></ele><time>2014-4-4T23:10:6Z</time></trkpt>
<trkpt lat="42.273888" lon="3.216435"><ele></ele><time>2014-4-4T23:10:9Z</time></trkpt>
<trkpt lat="42.273975" lon="3.216492"><ele></ele><time>2014-4-4T23:10:12Z</time></trkpt>
<trkpt lat="42.274040" lon="3.216538"><ele></ele><time>2014-4-4T23:10:15Z</time></trkpt>
<trkpt lat="42.274135" lon="3.216598"><ele></ele><time>2014-4-4T23:10:18Z</time></trkpt>
<trkpt lat="42.274250" lon="3.216663"><ele></ele><time>2014-4-4T23:10:21Z</time></trkpt>
<trkpt lat="42.274392" lon="3.216680"><ele></ele><time>2014-4-4T23:10:24Z</time></trkpt>
<trkpt lat="42.274593" lon="3.216702"><ele></ele><time>2014-4-4T23:10:27Z</time></trkpt>
<trkpt lat="42.274827" lon="3.216757"><ele></ele><time>2014-4-4T23:10:30Z</time></trkpt>
<trkpt lat="42.275043" lon="3.216880"><ele></ele><time>2014-4-4T23:10:33Z</time></trkpt>
<trkpt lat="42.275295" lon="3.216830"><ele></ele><time>2014-4-4T23:10:36Z</time></trkpt>
<trkpt lat="42.275567" lon="3.216713"><ele></ele><time>2014-4-4T23:10:39Z</time></trkpt>
<trkpt lat="42.275813" lon="3.216820"><ele></ele><time>2014-4-4T23:10:42Z</time></trkpt>
<trkpt lat="42.276032" lon="3.216887"><ele></ele><time>2014-4-4T23:10:45Z</time></trkpt>
<trkpt lat="42.276195" lon="3.216887"><ele></ele><time>2014-4-4T23:10:48Z</time></trkpt>
<trkpt lat="42.276337" lon="3.216878"><ele></ele><time>2014-4-4T23:10:51Z</time></trkpt>
<trkpt lat="42.276443" lon="3.216885"><ele></ele><time>2014-4-4T23:10:54Z</time></trkpt>
<trkpt lat="42.276490" lon="3.216978"><ele></ele><time>2014-4-4T23:10:57Z</time></trkpt>
<trkpt lat="42.276490" lon="3.217105"><ele></ele><time>2014-4-4T23:11:0Z</time></trkpt>
<trkpt lat="42.276497" lon="3.217220"><ele></ele><time>2014-4-4T23:11:3Z</time></trkpt>
<trkpt lat="42.276467" lon="3.217352"><ele></ele><time>2014-4-4T23:11:6Z</time></trkpt>
<trkpt lat="42.276455" lon="3.217480"><ele></ele><time>2014-4-4T23:11:9Z</time></trkpt>
<trkpt lat="42.276440" lon="3.217605"><ele></ele><time>2014-4-4T23:11:12Z</time></trkpt>
<trkpt lat="42.276425" lon="3.217723"><ele></ele><time>2014-4-4T23:11:15Z</time></trkpt>
<trkpt lat="42.276413" lon="3.217842"><ele></ele><time>2014-4-4T23:11:18Z</time></trkpt>
<trkpt lat="42.276393" lon="3.217960"><ele></ele><time>2014-4-4T23:11:21Z</time></trkpt>
<trkpt lat="42.276390" lon="3.218072"><ele></ele><time>2014-4-4T23:11:24Z</time></trkpt>
<trkpt lat="42.276378" lon="3.218197"><ele></ele><time>2014-4-4T23:11:27Z</time></trkpt>
<trkpt lat="42.276360" lon="3.218322"><ele></ele><time>2014-4-4T23:11:30Z</time></trkpt>
<trkpt lat="42.276345" lon="3.218450"><ele></ele><time>2014-4-4T23:11:33Z</time></trkpt>
<trkpt lat="42.276328" lon="3.218568"><ele></ele><time>2014-4-4T23:11:36Z</time></trkpt>
<trkpt lat="42.276310" lon="3.218698"><ele></ele><time>2014-4-4T23:11:39Z</time></trkpt>
<trkpt lat="42.276292" lon="3.218865"><ele></ele><time>2014-4-4T23:11:42Z</time></trkpt>
<trkpt lat="42.276275" lon="3.219037"><ele></ele><time>2014-4-4T23:11:45Z</time></trkpt>
<trkpt lat="42.276272" lon="3.219235"><ele></ele><time>2014-4-4T23:11:48Z</time></trkpt>
<trkpt lat="42.276275" lon="3.219443"><ele></ele><time>2014-4-4T23:11:51Z</time></trkpt>
<trkpt lat="42.276257" lon="3.219653"><ele></ele><time>2014-4-4T23:11:54Z</time></trkpt>
<trkpt lat="42.276253" lon="3.219855"><ele></ele><time>2014-4-4T23:11:57Z</time></trkpt>
<trkpt lat="42.276245" lon="3.220082"><ele></ele><time>2014-4-4T23:12:0Z</time></trkpt>
<trkpt lat="42.276230" lon="3.220305"><ele></ele><time>2014-4-4T23:12:3Z</time></trkpt>
<trkpt lat="42.276173" lon="3.220573"><ele></ele><time>2014-4-4T23:12:6Z</time></trkpt>
<trkpt lat="42.276088" lon="3.220873"><ele></ele><time>2014-4-4T23:12:9Z</time></trkpt>
<trkpt lat="42.275940" lon="3.221245"><ele></ele><time>2014-4-4T23:12:12Z</time></trkpt>
<trkpt lat="42.275780" lon="3.221642"><ele></ele><time>2014-4-4T23:12:15Z</time></trkpt>
<trkpt lat="42.275738" lon="3.222053"><ele></ele><time>2014-4-4T23:12:18Z</time></trkpt>
<trkpt lat="42.275623" lon="3.222370"><ele></ele><time>2014-4-4T23:12:21Z</time></trkpt>
<trkpt lat="42.275665" lon="3.222512"><ele></ele><time>2014-4-4T23:12:24Z</time></trkpt>
<trkpt lat="42.275787" lon="3.222498"><ele></ele><time>2014-4-4T23:12:27Z</time></trkpt>
<trkpt lat="42.275928" lon="3.222512"><ele></ele><time>2014-4-4T23:12:30Z</time></trkpt>
<trkpt lat="42.276065" lon="3.222623"><ele></ele><time>2014-4-4T23:12:33Z</time></trkpt>
<trkpt lat="42.276218" lon="3.222613"><ele></ele><time>2014-4-4T23:12:36Z</time></trkpt>
<trkpt lat="42.276302" lon="3.222492"><ele></ele><time>2014-4-4T23:12:39Z</time></trkpt>
<trkpt lat="42.276398" lon="3.222368"><ele></ele><time>2014-4-4T23:12:42Z</time></trkpt>
<trkpt lat="42.276493" lon="3.222265"><ele></ele><time>2014-4-4T23:12:45Z</time></trkpt>
<trkpt lat="42.276597" lon="3.222173"><ele></ele><time>2014-4-4T23:12:48Z</time></trkpt>
<trkpt lat="42.276710" lon="3.222140"><ele></ele><time>2014-4-4T23:12:51Z</time></trkpt>
<trkpt lat="42.276817" lon="3.222187"><ele></ele><time>2014-4-4T23:12:54Z</time></trkpt>
<trkpt lat="42.276908" lon="3.222287"><ele></ele><time>2014-4-4T23:12:57Z</time></trkpt>
<trkpt lat="42.276988" lon="3.222420"><ele></ele><time>2014-4-4T23:13:0Z</time></trkpt>
<trkpt lat="42.277035" lon="3.222572"><ele></ele><time>2014-4-4T23:13:3Z</time></trkpt>
<trkpt lat="42.277103" lon="3.222708"><ele></ele><time>2014-4-4T23:13:6Z</time></trkpt>
<trkpt lat="42.277180" lon="3.222863"><ele></ele><time>2014-4-4T23:13:9Z</time></trkpt>
<trkpt lat="42.277240" lon="3.223032"><ele></ele><time>2014-4-4T23:13:12Z</time></trkpt>
<trkpt lat="42.277248" lon="3.223227"><ele></ele><time>2014-4-4T23:13:15Z</time></trkpt>
<trkpt lat="42.277245" lon="3.223402"><ele></ele><time>2014-4-4T23:13:18Z</time></trkpt>
<trkpt lat="42.277230" lon="3.223565"><ele></ele><time>2014-4-4T23:13:21Z</time></trkpt>
<trkpt lat="42.277218" lon="3.223732"><ele></ele><time>2014-4-4T23:13:24Z</time></trkpt>
<trkpt lat="42.277187" lon="3.223912"><ele></ele><time>2014-4-4T23:13:27Z</time></trkpt>
<trkpt lat="42.277172" lon="3.224105"><ele></ele><time>2014-4-4T23:13:30Z</time></trkpt>
<trkpt lat="42.277160" lon="3.224287"><ele></ele><time>2014-4-4T23:13:33Z</time></trkpt>
<trkpt lat="42.277153" lon="3.224418"><ele></ele><time>2014-4-4T23:13:36Z</time></trkpt>
<trkpt lat="42.277153" lon="3.224612"><ele></ele><time>2014-4-4T23:13:39Z</time></trkpt>
<trkpt lat="42.277138" lon="3.224790"><ele></ele><time>2014-4-4T23:13:42Z</time></trkpt>
<trkpt lat="42.277153" lon="3.224995"><ele></ele><time>2014-4-4T23:13:45Z</time></trkpt>
<trkpt lat="42.277210" lon="3.225210"><ele></ele><time>2014-4-4T23:13:48Z</time></trkpt>
<trkpt lat="42.277397" lon="3.225328"><ele></ele><time>2014-4-4T23:13:51Z</time></trkpt>
<trkpt lat="42.277520" lon="3.225403"><ele></ele><time>2014-4-4T23:13:54Z</time></trkpt>
<trkpt lat="42.277610" lon="3.225545"><ele></ele><time>2014-4-4T23:13:57Z</time></trkpt>
<trkpt lat="42.277675" lon="3.225753"><ele></ele><time>2014-4-4T23:14:0Z</time></trkpt>
<trkpt lat="42.277695" lon="3.225873"><ele></ele><time>2014-4-4T23:14:3Z</time></trkpt>
<trkpt lat="42.277695" lon="3.225972"><ele></ele><time>2014-4-4T23:14:6Z</time></trkpt>
<trkpt lat="42.277695" lon="3.226060"><ele></ele><time>2014-4-4T23:14:9Z</time></trkpt>
<trkpt lat="42.277695" lon="3.226165"><ele></ele><time>2014-4-4T23:14:12Z</time></trkpt>
<trkpt lat="42.277772" lon="3.226273"><ele></ele><time>2014-4-4T23:14:15Z</time></trkpt>
<trkpt lat="42.277832" lon="3.226338"><ele></ele><time>2014-4-4T23:14:18Z</time></trkpt>
<trkpt lat="42.277893" lon="3.226405"><ele></ele><time>2014-4-4T23:14:21Z</time></trkpt>
<trkpt lat="42.277935" lon="3.226483"><ele></ele><time>2014-4-4T23:14:24Z</time></trkpt>
<trkpt lat="42.277950" lon="3.226523"><ele></ele><time>2014-4-4T23:14:27Z</time></trkpt>
<trkpt lat="42.277943" lon="3.226527"><ele></ele><time>2014-4-4T23:14:30Z</time></trkpt>
<trkpt lat="42.277950" lon="3.226527"><ele></ele><time>2014-4-4T23:14:33Z</time></trkpt>
<trkpt lat="42.277958" lon="3.226537"><ele></ele><time>2014-4-4T23:14:36Z</time></trkpt>
<trkpt lat="42.277958" lon="3.226545"><ele></ele><time>2014-4-4T23:14:39Z</time></trkpt>
<trkpt lat="42.277965" lon="3.226575"><ele></ele><time>2014-4-4T23:14:42Z</time></trkpt>
<trkpt lat="42.277973" lon="3.226598"><ele></ele><time>2014-4-4T23:14:45Z</time></trkpt>
<trkpt lat="42.278012" lon="3.226677"><ele></ele><time>2014-4-4T23:14:48Z</time></trkpt>
<trkpt lat="42.278077" lon="3.226747"><ele></ele><time>2014-4-4T23:14:51Z</time></trkpt>
<trkpt lat="42.278157" lon="3.226790"><ele></ele><time>2014-4-4T23:14:54Z</time></trkpt>
<trkpt lat="42.278225" lon="3.226842"><ele></ele><time>2014-4-4T23:14:57Z</time></trkpt>
<trkpt lat="42.278305" lon="3.226847"><ele></ele><time>2014-4-4T23:15:0Z</time></trkpt>
<trkpt lat="42.278388" lon="3.226725"><ele></ele><time>2014-4-4T23:15:3Z</time></trkpt>
<trkpt lat="42.278515" lon="3.226527"><ele></ele><time>2014-4-4T23:15:6Z</time></trkpt>
<trkpt lat="42.278672" lon="3.226292"><ele></ele><time>2014-4-4T23:15:9Z</time></trkpt>
<trkpt lat="42.278823" lon="3.226040"><ele></ele><time>2014-4-4T23:15:12Z</time></trkpt>
<trkpt lat="42.278995" lon="3.225758"><ele></ele><time>2014-4-4T23:15:15Z</time></trkpt>
<trkpt lat="42.279187" lon="3.225453"><ele></ele><time>2014-4-4T23:15:18Z</time></trkpt>
<trkpt lat="42.279392" lon="3.225100"><ele></ele><time>2014-4-4T23:15:21Z</time></trkpt>
<trkpt lat="42.279495" lon="3.224617"><ele></ele><time>2014-4-4T23:15:24Z</time></trkpt>
<trkpt lat="42.279758" lon="3.224198"><ele></ele><time>2014-4-4T23:15:27Z</time></trkpt>
<trkpt lat="42.280037" lon="3.223873"><ele></ele><time>2014-4-4T23:15:30Z</time></trkpt>
<trkpt lat="42.280270" lon="3.223587"><ele></ele><time>2014-4-4T23:15:33Z</time></trkpt>
<trkpt lat="42.280495" lon="3.223313"><ele></ele><time>2014-4-4T23:15:36Z</time></trkpt>
<trkpt lat="42.280693" lon="3.223080"><ele></ele><time>2014-4-4T23:15:39Z</time></trkpt>
<trkpt lat="42.280862" lon="3.222868"><ele></ele><time>2014-4-4T23:15:42Z</time></trkpt>
<trkpt lat="42.281022" lon="3.222627"><ele></ele><time>2014-4-4T23:15:45Z</time></trkpt>
<trkpt lat="42.281173" lon="3.222383"><ele></ele><time>2014-4-4T23:15:48Z</time></trkpt>
<trkpt lat="42.281262" lon="3.222250"><ele></ele><time>2014-4-4T23:15:51Z</time></trkpt>
<trkpt lat="42.281312" lon="3.222210"><ele></ele><time>2014-4-4T23:15:54Z</time></trkpt>
<trkpt lat="42.281350" lon="3.222223"><ele></ele><time>2014-4-4T23:15:57Z</time></trkpt>
<trkpt lat="42.281353" lon="3.222248"><ele></ele><time>2014-4-4T23:16:0Z</time></trkpt>
<trkpt lat="42.281353" lon="3.222263"><ele></ele><time>2014-4-4T23:16:3Z</time></trkpt>
<trkpt lat="42.281350" lon="3.222265"><ele></ele><time>2014-4-4T23:16:6Z</time></trkpt>
<trkpt lat="42.281350" lon="3.222268"><ele></ele><time>2014-4-4T23:16:9Z</time></trkpt>
<trkpt lat="42.281345" lon="3.222270"><ele></ele><time>2014-4-4T23:16:12Z</time></trkpt>
<trkpt lat="42.281345" lon="3.222272"><ele></ele><time>2014-4-4T23:16:15Z</time></trkpt>
<trkpt lat="42.281345" lon="3.222273"><ele></ele><time>2014-4-4T23:16:18Z</time></trkpt>
<trkpt lat="42.281342" lon="3.222275"><ele></ele><time>2014-4-4T23:16:21Z</time></trkpt>
<trkpt lat="42.281342" lon="3.222275"><ele></ele><time>2014-4-4T23:16:24Z</time></trkpt>
<trkpt lat="42.281342" lon="3.222275"><ele></ele><time>2014-4-4T23:16:27Z</time></trkpt>
<trkpt lat="42.281338" lon="3.222280"><ele></ele><time>2014-4-4T23:16:30Z</time></trkpt>
<trkpt lat="42.281338" lon="3.222282"><ele></ele><time>2014-4-4T23:16:33Z</time></trkpt>
<trkpt lat="42.281338" lon="3.222282"><ele></ele><time>2014-4-4T23:16:36Z</time></trkpt>
<trkpt lat="42.281338" lon="3.222283"><ele></ele><time>2014-4-4T23:16:39Z</time></trkpt>
<trkpt lat="42.281338" lon="3.222283"><ele></ele><time>2014-4-4T23:16:42Z</time></trkpt>
<trkpt lat="42.281338" lon="3.222283"><ele></ele><time>2014-4-4T23:16:45Z</time></trkpt>
<trkpt lat="42.281342" lon="3.222285"><ele></ele><time>2014-4-4T23:16:48Z</time></trkpt>
<trkpt lat="42.281350" lon="3.222285"><ele></ele><time>2014-4-4T23:16:51Z</time></trkpt>
<trkpt lat="42.281353" lon="3.222283"><ele></ele><time>2014-4-4T23:16:54Z</time></trkpt>
<trkpt lat="42.281350" lon="3.222285"><ele></ele><time>2014-4-4T23:16:57Z</time></trkpt>
<trkpt lat="42.281350" lon="3.222285"><ele></ele><time>2014-4-4T23:17:0Z</time></trkpt>
<trkpt lat="42.281350" lon="3.222295"><ele></ele><time>2014-4-4T23:17:3Z</time></trkpt>
<trkpt lat="42.281353" lon="3.222352"><ele></ele><time>2014-4-4T23:17:6Z</time></trkpt>
<trkpt lat="42.281365" lon="3.222473"><ele></ele><time>2014-4-4T23:17:9Z</time></trkpt>
<trkpt lat="42.281350" lon="3.222692"><ele></ele><time>2014-4-4T23:17:12Z</time></trkpt>
<trkpt lat="42.281327" lon="3.222930"><ele></ele><time>2014-4-4T23:17:15Z</time></trkpt>
<trkpt lat="42.281292" lon="3.223147"><ele></ele><time>2014-4-4T23:17:18Z</time></trkpt>
<trkpt lat="42.281250" lon="3.223368"><ele></ele><time>2014-4-4T23:17:21Z</time></trkpt>
<trkpt lat="42.281258" lon="3.223608"><ele></ele><time>2014-4-4T23:17:24Z</time></trkpt>
<trkpt lat="42.281285" lon="3.223865"><ele></ele><time>2014-4-4T23:17:27Z</time></trkpt>
<trkpt lat="42.281407" lon="3.224100"><ele></ele><time>2014-4-4T23:17:30Z</time></trkpt>
<trkpt lat="42.281570" lon="3.224320"><ele></ele><time>2014-4-4T23:17:33Z</time></trkpt>
<trkpt lat="42.281730" lon="3.224515"><ele></ele><time>2014-4-4T23:17:36Z</time></trkpt>
<trkpt lat="42.281857" lon="3.224657"><ele></ele><time>2014-4-4T23:17:39Z</time></trkpt>
<trkpt lat="42.282013" lon="3.224620"><ele></ele><time>2014-4-4T23:17:42Z</time></trkpt>
<trkpt lat="42.282197" lon="3.224593"><ele></ele><time>2014-4-4T23:17:45Z</time></trkpt>
<trkpt lat="42.282395" lon="3.224532"><ele></ele><time>2014-4-4T23:17:48Z</time></trkpt>
<trkpt lat="42.282578" lon="3.224407"><ele></ele><time>2014-4-4T23:17:51Z</time></trkpt>
<trkpt lat="42.282760" lon="3.224358"><ele></ele><time>2014-4-4T23:17:54Z</time></trkpt>
<trkpt lat="42.282917" lon="3.224443"><ele></ele><time>2014-4-4T23:17:57Z</time></trkpt>
<trkpt lat="42.282975" lon="3.224620"><ele></ele><time>2014-4-4T23:18:0Z</time></trkpt>
<trkpt lat="42.283012" lon="3.224788"><ele></ele><time>2014-4-4T23:18:3Z</time></trkpt>
<trkpt lat="42.283012" lon="3.224997"><ele></ele><time>2014-4-4T23:18:6Z</time></trkpt>
<trkpt lat="42.282948" lon="3.225197"><ele></ele><time>2014-4-4T23:18:9Z</time></trkpt>
<trkpt lat="42.282852" lon="3.225392"><ele></ele><time>2014-4-4T23:18:12Z</time></trkpt>
<trkpt lat="42.282742" lon="3.225515"><ele></ele><time>2014-4-4T23:18:15Z</time></trkpt>
<trkpt lat="42.282653" lon="3.225600"><ele></ele><time>2014-4-4T23:18:18Z</time></trkpt>
<trkpt lat="42.282612" lon="3.225670"><ele></ele><time>2014-4-4T23:18:21Z</time></trkpt>
<trkpt lat="42.282620" lon="3.225682"><ele></ele><time>2014-4-4T23:18:24Z</time></trkpt>
<trkpt lat="42.282627" lon="3.225707"><ele></ele><time>2014-4-4T23:18:27Z</time></trkpt>
<trkpt lat="42.282638" lon="3.225727"><ele></ele><time>2014-4-4T23:18:30Z</time></trkpt>
<trkpt lat="42.282665" lon="3.225748"><ele></ele><time>2014-4-4T23:18:33Z</time></trkpt>
<trkpt lat="42.282703" lon="3.225780"><ele></ele><time>2014-4-4T23:18:36Z</time></trkpt>
<trkpt lat="42.282738" lon="3.225818"><ele></ele><time>2014-4-4T23:18:39Z</time></trkpt>
<trkpt lat="42.282753" lon="3.225840"><ele></ele><time>2014-4-4T23:18:42Z</time></trkpt>
<trkpt lat="42.282757" lon="3.225843"><ele></ele><time>2014-4-4T23:18:45Z</time></trkpt>
<trkpt lat="42.282780" lon="3.225853"><ele></ele><time>2014-4-4T23:18:48Z</time></trkpt>
<trkpt lat="42.282863" lon="3.225862"><ele></ele><time>2014-4-4T23:18:51Z</time></trkpt>
<trkpt lat="42.282932" lon="3.225902"><ele></ele><time>2014-4-4T23:18:54Z</time></trkpt>
<trkpt lat="42.282955" lon="3.225908"><ele></ele><time>2014-4-4T23:18:57Z</time></trkpt>
<trkpt lat="42.282985" lon="3.225925"><ele></ele><time>2014-4-4T23:19:0Z</time></trkpt>
<trkpt lat="42.283065" lon="3.225945"><ele></ele><time>2014-4-4T23:19:3Z</time></trkpt>
<trkpt lat="42.283088" lon="3.225950"><ele></ele><time>2014-4-4T23:19:6Z</time></trkpt>
<trkpt lat="42.283135" lon="3.225962"><ele></ele><time>2014-4-4T23:19:9Z</time></trkpt>
<trkpt lat="42.283153" lon="3.225963"><ele></ele><time>2014-4-4T23:19:12Z</time></trkpt>
<trkpt lat="42.283180" lon="3.225970"><ele></ele><time>2014-4-4T23:19:15Z</time></trkpt>
<trkpt lat="42.283237" lon="3.225970"><ele></ele><time>2014-4-4T23:19:18Z</time></trkpt>
<trkpt lat="42.283333" lon="3.225998"><ele></ele><time>2014-4-4T23:19:21Z</time></trkpt>
<trkpt lat="42.283417" lon="3.226037"><ele></ele><time>2014-4-4T23:19:24Z</time></trkpt>
<trkpt lat="42.283467" lon="3.226115"><ele></ele><time>2014-4-4T23:19:27Z</time></trkpt>
<trkpt lat="42.283527" lon="3.226178"><ele></ele><time>2014-4-4T23:19:30Z</time></trkpt>
<trkpt lat="42.283600" lon="3.226257"><ele></ele><time>2014-4-4T23:19:33Z</time></trkpt>
<trkpt lat="42.283657" lon="3.226347"><ele></ele><time>2014-4-4T23:19:36Z</time></trkpt>
<trkpt lat="42.283725" lon="3.226423"><ele></ele><time>2014-4-4T23:19:39Z</time></trkpt>
<trkpt lat="42.283790" lon="3.226503"><ele></ele><time>2014-4-4T23:19:42Z</time></trkpt>
<trkpt lat="42.283870" lon="3.226567"><ele></ele><time>2014-4-4T23:19:45Z</time></trkpt>
<trkpt lat="42.283935" lon="3.226648"><ele></ele><time>2014-4-4T23:19:48Z</time></trkpt>
<trkpt lat="42.283988" lon="3.226728"><ele></ele><time>2014-4-4T23:19:51Z</time></trkpt>
<trkpt lat="42.284053" lon="3.226813"><ele></ele><time>2014-4-4T23:19:54Z</time></trkpt>
<trkpt lat="42.284122" lon="3.226893"><ele></ele><time>2014-4-4T23:19:57Z</time></trkpt>
<trkpt lat="42.284225" lon="3.226995"><ele></ele><time>2014-4-4T23:20:0Z</time></trkpt>
<trkpt lat="42.284287" lon="3.227095"><ele></ele><time>2014-4-4T23:20:3Z</time></trkpt>
<trkpt lat="42.284340" lon="3.227217"><ele></ele><time>2014-4-4T23:20:6Z</time></trkpt>
<trkpt lat="42.284382" lon="3.227352"><ele></ele><time>2014-4-4T23:20:9Z</time></trkpt>
<trkpt lat="42.284408" lon="3.227480"><ele></ele><time>2014-4-4T23:20:12Z</time></trkpt>
<trkpt lat="42.284455" lon="3.227677"><ele></ele><time>2014-4-4T23:20:15Z</time></trkpt>
<trkpt lat="42.284488" lon="3.227833"><ele></ele><time>2014-4-4T23:20:18Z</time></trkpt>
<trkpt lat="42.284512" lon="3.227952"><ele></ele><time>2014-4-4T23:20:21Z</time></trkpt>
<trkpt lat="42.284515" lon="3.227970"><ele></ele><time>2014-4-4T23:20:24Z</time></trkpt>
<trkpt lat="42.284542" lon="3.227990"><ele></ele><time>2014-4-4T23:20:27Z</time></trkpt>
<trkpt lat="42.284547" lon="3.228055"><ele></ele><time>2014-4-4T23:20:30Z</time></trkpt>
<trkpt lat="42.284553" lon="3.228098"><ele></ele><time>2014-4-4T23:20:33Z</time></trkpt>
<trkpt lat="42.284565" lon="3.228162"><ele></ele><time>2014-4-4T23:20:36Z</time></trkpt>
<trkpt lat="42.284603" lon="3.228232"><ele></ele><time>2014-4-4T23:20:39Z</time></trkpt>
<trkpt lat="42.284622" lon="3.228292"><ele></ele><time>2014-4-4T23:20:42Z</time></trkpt>
<trkpt lat="42.284637" lon="3.228358"><ele></ele><time>2014-4-4T23:20:45Z</time></trkpt>
<trkpt lat="42.284645" lon="3.228430"><ele></ele><time>2014-4-4T23:20:48Z</time></trkpt>
<trkpt lat="42.284660" lon="3.228502"><ele></ele><time>2014-4-4T23:20:51Z</time></trkpt>
<trkpt lat="42.284672" lon="3.228532"><ele></ele><time>2014-4-4T23:20:54Z</time></trkpt>
<trkpt lat="42.284672" lon="3.228545"><ele></ele><time>2014-4-4T23:20:57Z</time></trkpt>
<trkpt lat="42.284698" lon="3.228640"><ele></ele><time>2014-4-4T23:21:0Z</time></trkpt>
<trkpt lat="42.284710" lon="3.228737"><ele></ele><time>2014-4-4T23:21:3Z</time></trkpt>
<trkpt lat="42.284733" lon="3.228850"><ele></ele><time>2014-4-4T23:21:6Z</time></trkpt>
<trkpt lat="42.284733" lon="3.228952"><ele></ele><time>2014-4-4T23:21:9Z</time></trkpt>
<trkpt lat="42.284725" lon="3.229097"><ele></ele><time>2014-4-4T23:21:12Z</time></trkpt>
<trkpt lat="42.284722" lon="3.229267"><ele></ele><time>2014-4-4T23:21:15Z</time></trkpt>
<trkpt lat="42.284725" lon="3.229443"><ele></ele><time>2014-4-4T23:21:18Z</time></trkpt>
<trkpt lat="42.284692" lon="3.229660"><ele></ele><time>2014-4-4T23:21:21Z</time></trkpt>
<trkpt lat="42.284648" lon="3.229858"><ele></ele><time>2014-4-4T23:21:24Z</time></trkpt>
<trkpt lat="42.284642" lon="3.230037"><ele></ele><time>2014-4-4T23:21:27Z</time></trkpt>
<trkpt lat="42.284663" lon="3.230137"><ele></ele><time>2014-4-4T23:21:30Z</time></trkpt>
<trkpt lat="42.284642" lon="3.230283"><ele></ele><time>2014-4-4T23:21:33Z</time></trkpt>
<trkpt lat="42.284592" lon="3.230378"><ele></ele><time>2014-4-4T23:21:36Z</time></trkpt>
<trkpt lat="42.284530" lon="3.230475"><ele></ele><time>2014-4-4T23:21:39Z</time></trkpt>
<trkpt lat="42.284462" lon="3.230575"><ele></ele><time>2014-4-4T23:21:42Z</time></trkpt>
<trkpt lat="42.284420" lon="3.230723"><ele></ele><time>2014-4-4T23:21:45Z</time></trkpt>
<trkpt lat="42.284337" lon="3.230830"><ele></ele><time>2014-4-4T23:21:48Z</time></trkpt>
<trkpt lat="42.284230" lon="3.230938"><ele></ele><time>2014-4-4T23:21:51Z</time></trkpt>
<trkpt lat="42.284198" lon="3.230967"><ele></ele><time>2014-4-4T23:21:54Z</time></trkpt>
<trkpt lat="42.284187" lon="3.230977"><ele></ele><time>2014-4-4T23:21:57Z</time></trkpt>
<trkpt lat="42.284172" lon="3.230995"><ele></ele><time>2014-4-4T23:22:0Z</time></trkpt>
<trkpt lat="42.284160" lon="3.231030"><ele></ele><time>2014-4-4T23:22:3Z</time></trkpt>
<trkpt lat="42.284153" lon="3.231067"><ele></ele><time>2014-4-4T23:22:6Z</time></trkpt>
<trkpt lat="42.284150" lon="3.231112"><ele></ele><time>2014-4-4T23:22:9Z</time></trkpt>
<trkpt lat="42.284142" lon="3.231152"><ele></ele><time>2014-4-4T23:22:12Z</time></trkpt>
<trkpt lat="42.284127" lon="3.231195"><ele></ele><time>2014-4-4T23:22:15Z</time></trkpt>
<trkpt lat="42.284095" lon="3.231228"><ele></ele><time>2014-4-4T23:22:18Z</time></trkpt>
<trkpt lat="42.284068" lon="3.231245"><ele></ele><time>2014-4-4T23:22:21Z</time></trkpt>
<trkpt lat="42.284065" lon="3.231233"><ele></ele><time>2014-4-4T23:22:24Z</time></trkpt>
<trkpt lat="42.284005" lon="3.231333"><ele></ele><time>2014-4-4T23:22:27Z</time></trkpt>
<trkpt lat="42.283958" lon="3.231462"><ele></ele><time>2014-4-4T23:22:30Z</time></trkpt>
<trkpt lat="42.283890" lon="3.231568"><ele></ele><time>2014-4-4T23:22:33Z</time></trkpt>
<trkpt lat="42.283810" lon="3.231678"><ele></ele><time>2014-4-4T23:22:36Z</time></trkpt>
<trkpt lat="42.283718" lon="3.231785"><ele></ele><time>2014-4-4T23:22:39Z</time></trkpt>
<trkpt lat="42.283642" lon="3.231925"><ele></ele><time>2014-4-4T23:22:42Z</time></trkpt>
<trkpt lat="42.283600" lon="3.232002"><ele></ele><time>2014-4-4T23:22:45Z</time></trkpt>
<trkpt lat="42.283547" lon="3.232042"><ele></ele><time>2014-4-4T23:22:48Z</time></trkpt>
<trkpt lat="42.283535" lon="3.232053"><ele></ele><time>2014-4-4T23:22:51Z</time></trkpt>
<trkpt lat="42.283512" lon="3.232063"><ele></ele><time>2014-4-4T23:22:54Z</time></trkpt>
<trkpt lat="42.283473" lon="3.232082"><ele></ele><time>2014-4-4T23:22:57Z</time></trkpt>
<trkpt lat="42.283447" lon="3.232112"><ele></ele><time>2014-4-4T23:23:0Z</time></trkpt>
<trkpt lat="42.283425" lon="3.232145"><ele></ele><time>2014-4-4T23:23:3Z</time></trkpt>
<trkpt lat="42.283372" lon="3.232213"><ele></ele><time>2014-4-4T23:23:6Z</time></trkpt>
<trkpt lat="42.283345" lon="3.232268"><ele></ele><time>2014-4-4T23:23:9Z</time></trkpt>
<trkpt lat="42.283337" lon="3.232298"><ele></ele><time>2014-4-4T23:23:12Z</time></trkpt>
<trkpt lat="42.283348" lon="3.232313"><ele></ele><time>2014-4-4T23:23:15Z</time></trkpt>
<trkpt lat="42.283372" lon="3.232335"><ele></ele><time>2014-4-4T23:23:18Z</time></trkpt>
<trkpt lat="42.283408" lon="3.232350"><ele></ele><time>2014-4-4T23:23:21Z</time></trkpt>
<trkpt lat="42.283473" lon="3.232328"><ele></ele><time>2014-4-4T23:23:24Z</time></trkpt>
<trkpt lat="42.283543" lon="3.232353"><ele></ele><time>2014-4-4T23:23:27Z</time></trkpt>
<trkpt lat="42.283600" lon="3.232295"><ele></ele><time>2014-4-4T23:23:30Z</time></trkpt>
<trkpt lat="42.283672" lon="3.232300"><ele></ele><time>2014-4-4T23:23:33Z</time></trkpt>
<trkpt lat="42.283707" lon="3.232293"><ele></ele><time>2014-4-4T23:23:36Z</time></trkpt>
<trkpt lat="42.283742" lon="3.232290"><ele></ele><time>2014-4-4T23:23:39Z</time></trkpt>
<trkpt lat="42.283787" lon="3.232308"><ele></ele><time>2014-4-4T23:23:42Z</time></trkpt>
<trkpt lat="42.283840" lon="3.232317"><ele></ele><time>2014-4-4T23:23:45Z</time></trkpt>
<trkpt lat="42.283855" lon="3.232328"><ele></ele><time>2014-4-4T23:23:48Z</time></trkpt>
<trkpt lat="42.283848" lon="3.232325"><ele></ele><time>2014-4-4T23:23:51Z</time></trkpt>
<trkpt lat="42.283848" lon="3.232318"><ele></ele><time>2014-4-4T23:23:54Z</time></trkpt>
<trkpt lat="42.283860" lon="3.232333"><ele></ele><time>2014-4-4T23:23:57Z</time></trkpt>
<trkpt lat="42.283863" lon="3.232335"><ele></ele><time>2014-4-4T23:24:0Z</time></trkpt>
<trkpt lat="42.283863" lon="3.232333"><ele></ele><time>2014-4-4T23:24:3Z</time></trkpt>
<trkpt lat="42.283860" lon="3.232325"><ele></ele><time>2014-4-4T23:24:6Z</time></trkpt>
<trkpt lat="42.283860" lon="3.232325"><ele></ele><time>2014-4-4T23:24:9Z</time></trkpt>
<trkpt lat="42.283875" lon="3.232318"><ele></ele><time>2014-4-4T23:24:12Z</time></trkpt>
<trkpt lat="42.283897" lon="3.232320"><ele></ele><time>2014-4-4T23:24:15Z</time></trkpt>
<trkpt lat="42.283905" lon="3.232320"><ele></ele><time>2014-4-4T23:24:18Z</time></trkpt>
<trkpt lat="42.283908" lon="3.232318"><ele></ele><time>2014-4-4T23:24:21Z</time></trkpt>
<trkpt lat="42.283902" lon="3.232305"><ele></ele><time>2014-4-4T23:24:24Z</time></trkpt>
<trkpt lat="42.283897" lon="3.232305"><ele></ele><time>2014-4-4T23:24:27Z</time></trkpt>
<trkpt lat="42.283902" lon="3.232313"><ele></ele><time>2014-4-4T23:24:30Z</time></trkpt>
<trkpt lat="42.283897" lon="3.232305"><ele></ele><time>2014-4-4T23:24:33Z</time></trkpt>
<trkpt lat="42.283878" lon="3.232263"><ele></ele><time>2014-4-4T23:24:36Z</time></trkpt>
<trkpt lat="42.283863" lon="3.232242"><ele></ele><time>2014-4-4T23:24:39Z</time></trkpt>
<trkpt lat="42.283855" lon="3.232227"><ele></ele><time>2014-4-4T23:24:42Z</time></trkpt>
<trkpt lat="42.283848" lon="3.232218"><ele></ele><time>2014-4-4T23:24:45Z</time></trkpt>
<trkpt lat="42.283843" lon="3.232212"><ele></ele><time>2014-4-4T23:24:48Z</time></trkpt>
<trkpt lat="42.283840" lon="3.232210"><ele></ele><time>2014-4-4T23:24:51Z</time></trkpt>
<trkpt lat="42.283837" lon="3.232205"><ele></ele><time>2014-4-4T23:24:54Z</time></trkpt>
<trkpt lat="42.283837" lon="3.232205"><ele></ele><time>2014-4-4T23:24:57Z</time></trkpt>
<trkpt lat="42.283837" lon="3.232205"><ele></ele><time>2014-4-4T23:25:0Z</time></trkpt>
<trkpt lat="42.283837" lon="3.232210"><ele></ele><time>2014-4-4T23:25:3Z</time></trkpt>
<trkpt lat="42.283837" lon="3.232210"><ele></ele><time>2014-4-4T23:25:6Z</time></trkpt>
<trkpt lat="42.283837" lon="3.232217"><ele></ele><time>2014-4-4T23:25:9Z</time></trkpt>
<trkpt lat="42.283837" lon="3.232238"><ele></ele><time>2014-4-4T23:25:12Z</time></trkpt>
<trkpt lat="42.283833" lon="3.232240"><ele></ele><time>2014-4-4T23:25:15Z</time></trkpt>
<trkpt lat="42.283833" lon="3.232242"><ele></ele><time>2014-4-4T23:25:18Z</time></trkpt>
<trkpt lat="42.283833" lon="3.232243"><ele></ele><time>2014-4-4T23:25:21Z</time></trkpt>
<trkpt lat="42.283833" lon="3.232245"><ele></ele><time>2014-4-4T23:25:24Z</time></trkpt>
<trkpt lat="42.283837" lon="3.232248"><ele></ele><time>2014-4-4T23:25:27Z</time></trkpt>
<trkpt lat="42.283840" lon="3.232257"><ele></ele><time>2014-4-4T23:25:30Z</time></trkpt>
<trkpt lat="42.283840" lon="3.232248"><ele></ele><time>2014-4-4T23:25:33Z</time></trkpt>
<trkpt lat="42.283828" lon="3.232223"><ele></ele><time>2014-4-4T23:25:36Z</time></trkpt>
<trkpt lat="42.283825" lon="3.232205"><ele></ele><time>2014-4-4T23:25:39Z</time></trkpt>
<trkpt lat="42.283855" lon="3.232233"><ele></ele><time>2014-4-4T23:25:42Z</time></trkpt>
<trkpt lat="42.283935" lon="3.232230"><ele></ele><time>2014-4-4T23:25:45Z</time></trkpt>
<trkpt lat="42.284023" lon="3.232232"><ele></ele><time>2014-4-4T23:25:48Z</time></trkpt>
<trkpt lat="42.284107" lon="3.232230"><ele></ele><time>2014-4-4T23:25:51Z</time></trkpt>
<trkpt lat="42.284177" lon="3.232262"><ele></ele><time>2014-4-4T23:25:54Z</time></trkpt>
<trkpt lat="42.284272" lon="3.232320"><ele></ele><time>2014-4-4T23:25:57Z</time></trkpt>
<trkpt lat="42.284390" lon="3.232355"><ele></ele><time>2014-4-4T23:26:0Z</time></trkpt>
<trkpt lat="42.284477" lon="3.232408"><ele></ele><time>2014-4-4T23:26:3Z</time></trkpt>
<trkpt lat="42.284610" lon="3.232422"><ele></ele><time>2014-4-4T23:26:6Z</time></trkpt>
<trkpt lat="42.284710" lon="3.232462"><ele></ele><time>2014-4-4T23:26:9Z</time></trkpt>
<trkpt lat="42.284778" lon="3.232492"><ele></ele><time>2014-4-4T23:26:12Z</time></trkpt>
<trkpt lat="42.284802" lon="3.232513"><ele></ele><time>2014-4-4T23:26:15Z</time></trkpt>
<trkpt lat="42.284840" lon="3.232577"><ele></ele><time>2014-4-4T23:26:18Z</time></trkpt>
<trkpt lat="42.284932" lon="3.232663"><ele></ele><time>2014-4-4T23:26:21Z</time></trkpt>
<trkpt lat="42.285003" lon="3.232752"><ele></ele><time>2014-4-4T23:26:24Z</time></trkpt>
<trkpt lat="42.285057" lon="3.232845"><ele></ele><time>2014-4-4T23:26:27Z</time></trkpt>
<trkpt lat="42.285103" lon="3.232938"><ele></ele><time>2014-4-4T23:26:30Z</time></trkpt>
<trkpt lat="42.285142" lon="3.233028"><ele></ele><time>2014-4-4T23:26:33Z</time></trkpt>
<trkpt lat="42.285183" lon="3.233108"><ele></ele><time>2014-4-4T23:26:36Z</time></trkpt>
<trkpt lat="42.285252" lon="3.233163"><ele></ele><time>2014-4-4T23:26:39Z</time></trkpt>
<trkpt lat="42.285313" lon="3.233213"><ele></ele><time>2014-4-4T23:26:42Z</time></trkpt>
<trkpt lat="42.285373" lon="3.233270"><ele></ele><time>2014-4-4T23:26:45Z</time></trkpt>
<trkpt lat="42.285450" lon="3.233322"><ele></ele><time>2014-4-4T23:26:48Z</time></trkpt>
<trkpt lat="42.285527" lon="3.233383"><ele></ele><time>2014-4-4T23:26:51Z</time></trkpt>
<trkpt lat="42.285560" lon="3.233498"><ele></ele><time>2014-4-4T23:26:54Z</time></trkpt>
<trkpt lat="42.285618" lon="3.233617"><ele></ele><time>2014-4-4T23:26:57Z</time></trkpt>
<trkpt lat="42.285683" lon="3.233703"><ele></ele><time>2014-4-4T23:27:0Z</time></trkpt>
<trkpt lat="42.285687" lon="3.233793"><ele></ele><time>2014-4-4T23:27:3Z</time></trkpt>
<trkpt lat="42.285705" lon="3.233890"><ele></ele><time>2014-4-4T23:27:6Z</time></trkpt>
<trkpt lat="42.285702" lon="3.234002"><ele></ele><time>2014-4-4T23:27:9Z</time></trkpt>
<trkpt lat="42.285698" lon="3.234110"><ele></ele><time>2014-4-4T23:27:12Z</time></trkpt>
<trkpt lat="42.285667" lon="3.234215"><ele></ele><time>2014-4-4T23:27:15Z</time></trkpt>
<trkpt lat="42.285683" lon="3.234245"><ele></ele><time>2014-4-4T23:27:18Z</time></trkpt>
<trkpt lat="42.285717" lon="3.234252"><ele></ele><time>2014-4-4T23:27:21Z</time></trkpt>
<trkpt lat="42.285748" lon="3.234263"><ele></ele><time>2014-4-4T23:27:24Z</time></trkpt>
<trkpt lat="42.285755" lon="3.234270"><ele></ele><time>2014-4-4T23:27:27Z</time></trkpt>
<trkpt lat="42.285808" lon="3.234277"><ele></ele><time>2014-4-4T23:27:30Z</time></trkpt>
<trkpt lat="42.285882" lon="3.234293"><ele></ele><time>2014-4-4T23:27:33Z</time></trkpt>
<trkpt lat="42.285962" lon="3.234297"><ele></ele><time>2014-4-4T23:27:36Z</time></trkpt>
<trkpt lat="42.286042" lon="3.234282"><ele></ele><time>2014-4-4T23:27:39Z</time></trkpt>
<trkpt lat="42.286068" lon="3.234283"><ele></ele><time>2014-4-4T23:27:42Z</time></trkpt>
<trkpt lat="42.286087" lon="3.234293"><ele></ele><time>2014-4-4T23:27:45Z</time></trkpt>
<trkpt lat="42.286118" lon="3.234282"><ele></ele><time>2014-4-4T23:27:48Z</time></trkpt>
<trkpt lat="42.286178" lon="3.234272"><ele></ele><time>2014-4-4T23:27:51Z</time></trkpt>
<trkpt lat="42.286235" lon="3.234272"><ele></ele><time>2014-4-4T23:27:54Z</time></trkpt>
<trkpt lat="42.286263" lon="3.234270"><ele></ele><time>2014-4-4T23:27:57Z</time></trkpt>
<trkpt lat="42.286300" lon="3.234278"><ele></ele><time>2014-4-4T23:28:0Z</time></trkpt>
<trkpt lat="42.286347" lon="3.234278"><ele></ele><time>2014-4-4T23:28:3Z</time></trkpt>
<trkpt lat="42.286392" lon="3.234280"><ele></ele><time>2014-4-4T23:28:6Z</time></trkpt>
<trkpt lat="42.286400" lon="3.234285"><ele></ele><time>2014-4-4T23:28:9Z</time></trkpt>
<trkpt lat="42.286453" lon="3.234265"><ele></ele><time>2014-4-4T23:28:12Z</time></trkpt>
<trkpt lat="42.286525" lon="3.234248"><ele></ele><time>2014-4-4T23:28:15Z</time></trkpt>
<trkpt lat="42.286590" lon="3.234283"><ele></ele><time>2014-4-4T23:28:18Z</time></trkpt>
<trkpt lat="42.286663" lon="3.234290"><ele></ele><time>2014-4-4T23:28:21Z</time></trkpt>
<trkpt lat="42.286728" lon="3.234307"><ele></ele><time>2014-4-4T23:28:24Z</time></trkpt>
<trkpt lat="42.286793" lon="3.234347"><ele></ele><time>2014-4-4T23:28:27Z</time></trkpt>
<trkpt lat="42.286873" lon="3.234370"><ele></ele><time>2014-4-4T23:28:30Z</time></trkpt>
<trkpt lat="42.286945" lon="3.234412"><ele></ele><time>2014-4-4T23:28:33Z</time></trkpt>
<trkpt lat="42.287010" lon="3.234468"><ele></ele><time>2014-4-4T23:28:36Z</time></trkpt>
<trkpt lat="42.287052" lon="3.234522"><ele></ele><time>2014-4-4T23:28:39Z</time></trkpt>
<trkpt lat="42.287060" lon="3.234522"><ele></ele><time>2014-4-4T23:28:42Z</time></trkpt>
<trkpt lat="42.287060" lon="3.234523"><ele></ele><time>2014-4-4T23:28:45Z</time></trkpt>
<trkpt lat="42.287060" lon="3.234518"><ele></ele><time>2014-4-4T23:28:48Z</time></trkpt>
<trkpt lat="42.287060" lon="3.234523"><ele></ele><time>2014-4-4T23:28:51Z</time></trkpt>
<trkpt lat="42.287063" lon="3.234532"><ele></ele><time>2014-4-4T23:28:54Z</time></trkpt>
<trkpt lat="42.287060" lon="3.234538"><ele></ele><time>2014-4-4T23:28:57Z</time></trkpt>
<trkpt lat="42.287057" lon="3.234540"><ele></ele><time>2014-4-4T23:29:0Z</time></trkpt>
<trkpt lat="42.287057" lon="3.234542"><ele></ele><time>2014-4-4T23:29:3Z</time></trkpt>
<trkpt lat="42.287057" lon="3.234542"><ele></ele><time>2014-4-4T23:29:6Z</time></trkpt>
<trkpt lat="42.287060" lon="3.234540"><ele></ele><time>2014-4-4T23:29:9Z</time></trkpt>
<trkpt lat="42.287063" lon="3.234540"><ele></ele><time>2014-4-4T23:29:12Z</time></trkpt>
<trkpt lat="42.287063" lon="3.234542"><ele></ele><time>2014-4-4T23:29:15Z</time></trkpt>
<trkpt lat="42.287060" lon="3.234545"><ele></ele><time>2014-4-4T23:29:18Z</time></trkpt>
<trkpt lat="42.287063" lon="3.234543"><ele></ele><time>2014-4-4T23:29:21Z</time></trkpt>
<trkpt lat="42.287063" lon="3.234540"><ele></ele><time>2014-4-4T23:29:24Z</time></trkpt>
<trkpt lat="42.287060" lon="3.234547"><ele></ele><time>2014-4-4T23:29:27Z</time></trkpt>
<trkpt lat="42.287057" lon="3.234548"><ele></ele><time>2014-4-4T23:29:30Z</time></trkpt>
<trkpt lat="42.287063" lon="3.234552"><ele></ele><time>2014-4-4T23:29:33Z</time></trkpt>
<trkpt lat="42.287117" lon="3.234567"><ele></ele><time>2014-4-4T23:29:36Z</time></trkpt>
<trkpt lat="42.287190" lon="3.234657"><ele></ele><time>2014-4-4T23:29:39Z</time></trkpt>
<trkpt lat="42.287255" lon="3.234742"><ele></ele><time>2014-4-4T23:29:42Z</time></trkpt>
<trkpt lat="42.287320" lon="3.234815"><ele></ele><time>2014-4-4T23:29:45Z</time></trkpt>
<trkpt lat="42.287347" lon="3.234920"><ele></ele><time>2014-4-4T23:29:48Z</time></trkpt>
<trkpt lat="42.287377" lon="3.235023"><ele></ele><time>2014-4-4T23:29:51Z</time></trkpt>
<trkpt lat="42.287403" lon="3.235092"><ele></ele><time>2014-4-4T23:29:54Z</time></trkpt>
<trkpt lat="42.287433" lon="3.235170"><ele></ele><time>2014-4-4T23:29:57Z</time></trkpt>
<trkpt lat="42.287460" lon="3.235265"><ele></ele><time>2014-4-4T23:30:0Z</time></trkpt>
<trkpt lat="42.287475" lon="3.235392"><ele></ele><time>2014-4-4T23:30:3Z</time></trkpt>
<trkpt lat="42.287480" lon="3.235492"><ele></ele><time>2014-4-4T23:30:6Z</time></trkpt>
<trkpt lat="42.287510" lon="3.235608"><ele></ele><time>2014-4-4T23:30:9Z</time></trkpt>
<trkpt lat="42.287545" lon="3.235710"><ele></ele><time>2014-4-4T23:30:12Z</time></trkpt>
<trkpt lat="42.287563" lon="3.235772"><ele></ele><time>2014-4-4T23:30:15Z</time></trkpt>
<trkpt lat="42.287578" lon="3.235878"><ele></ele><time>2014-4-4T23:30:18Z</time></trkpt>
<trkpt lat="42.287593" lon="3.235990"><ele></ele><time>2014-4-4T23:30:21Z</time></trkpt>
<trkpt lat="42.287617" lon="3.236113"><ele></ele><time>2014-4-4T23:30:24Z</time></trkpt>
<trkpt lat="42.287640" lon="3.236198"><ele></ele><time>2014-4-4T23:30:27Z</time></trkpt>
<trkpt lat="42.287640" lon="3.236227"><ele></ele><time>2014-4-4T23:30:30Z</time></trkpt>
<trkpt lat="42.287628" lon="3.236228"><ele></ele><time>2014-4-4T23:30:33Z</time></trkpt>
<trkpt lat="42.287628" lon="3.236227"><ele></ele><time>2014-4-4T23:30:36Z</time></trkpt>
<trkpt lat="42.287628" lon="3.236225"><ele></ele><time>2014-4-4T23:30:39Z</time></trkpt>
<trkpt lat="42.287640" lon="3.236248"><ele></ele><time>2014-4-4T23:30:42Z</time></trkpt>
<trkpt lat="42.287673" lon="3.236298"><ele></ele><time>2014-4-4T23:30:45Z</time></trkpt>
<trkpt lat="42.287670" lon="3.236298"><ele></ele><time>2014-4-4T23:30:48Z</time></trkpt>
<trkpt lat="42.287663" lon="3.236362"><ele></ele><time>2014-4-4T23:30:51Z</time></trkpt>
<trkpt lat="42.287663" lon="3.236435"><ele></ele><time>2014-4-4T23:30:54Z</time></trkpt>
<trkpt lat="42.287678" lon="3.236527"><ele></ele><time>2014-4-4T23:30:57Z</time></trkpt>
<trkpt lat="42.287693" lon="3.236615"><ele></ele><time>2014-4-4T23:31:0Z</time></trkpt>
<trkpt lat="42.287720" lon="3.236643"><ele></ele><time>2014-4-4T23:31:3Z</time></trkpt>
<trkpt lat="42.287747" lon="3.236638"><ele></ele><time>2014-4-4T23:31:6Z</time></trkpt>
<trkpt lat="42.287750" lon="3.236648"><ele></ele><time>2014-4-4T23:31:9Z</time></trkpt>
<trkpt lat="42.287765" lon="3.236648"><ele></ele><time>2014-4-4T23:31:12Z</time></trkpt>
<trkpt lat="42.287800" lon="3.236658"><ele></ele><time>2014-4-4T23:31:15Z</time></trkpt>
<trkpt lat="42.287857" lon="3.236658"><ele></ele><time>2014-4-4T23:31:18Z</time></trkpt>
<trkpt lat="42.287877" lon="3.236665"><ele></ele><time>2014-4-4T23:31:21Z</time></trkpt>
<trkpt lat="42.287895" lon="3.236657"><ele></ele><time>2014-4-4T23:31:24Z</time></trkpt>
<trkpt lat="42.287968" lon="3.236638"><ele></ele><time>2014-4-4T23:31:27Z</time></trkpt>
<trkpt lat="42.288043" lon="3.236660"><ele></ele><time>2014-4-4T23:31:30Z</time></trkpt>
<trkpt lat="42.288123" lon="3.236672"><ele></ele><time>2014-4-4T23:31:33Z</time></trkpt>
<trkpt lat="42.288205" lon="3.236680"><ele></ele><time>2014-4-4T23:31:36Z</time></trkpt>
<trkpt lat="42.288285" lon="3.236677"><ele></ele><time>2014-4-4T23:31:39Z</time></trkpt>
<trkpt lat="42.288338" lon="3.236675"><ele></ele><time>2014-4-4T23:31:42Z</time></trkpt>
<trkpt lat="42.288418" lon="3.236657"><ele></ele><time>2014-4-4T23:31:45Z</time></trkpt>
<trkpt lat="42.288493" lon="3.236647"><ele></ele><time>2014-4-4T23:31:48Z</time></trkpt>
<trkpt lat="42.288593" lon="3.236597"><ele></ele><time>2014-4-4T23:31:51Z</time></trkpt>
<trkpt lat="42.288650" lon="3.236590"><ele></ele><time>2014-4-4T23:31:54Z</time></trkpt>
<trkpt lat="42.288685" lon="3.236590"><ele></ele><time>2014-4-4T23:31:57Z</time></trkpt>
<trkpt lat="42.288768" lon="3.236548"><ele></ele><time>2014-4-4T23:32:0Z</time></trkpt>
<trkpt lat="42.288845" lon="3.236530"><ele></ele><time>2014-4-4T23:32:3Z</time></trkpt>
<trkpt lat="42.288933" lon="3.236492"><ele></ele><time>2014-4-4T23:32:6Z</time></trkpt>
<trkpt lat="42.289008" lon="3.236458"><ele></ele><time>2014-4-4T23:32:9Z</time></trkpt>
<trkpt lat="42.289082" lon="3.236420"><ele></ele><time>2014-4-4T23:32:12Z</time></trkpt>
<trkpt lat="42.289173" lon="3.236367"><ele></ele><time>2014-4-4T23:32:15Z</time></trkpt>
<trkpt lat="42.289245" lon="3.236308"><ele></ele><time>2014-4-4T23:32:18Z</time></trkpt>
<trkpt lat="42.289333" lon="3.236267"><ele></ele><time>2014-4-4T23:32:21Z</time></trkpt>
<trkpt lat="42.289410" lon="3.236218"><ele></ele><time>2014-4-4T23:32:24Z</time></trkpt>
<trkpt lat="42.289502" lon="3.236173"><ele></ele><time>2014-4-4T23:32:27Z</time></trkpt>
<trkpt lat="42.289632" lon="3.236148"><ele></ele><time>2014-4-4T23:32:30Z</time></trkpt>
<trkpt lat="42.289813" lon="3.236083"><ele></ele><time>2014-4-4T23:32:33Z</time></trkpt>
<trkpt lat="42.290008" lon="3.236075"><ele></ele><time>2014-4-4T23:32:36Z</time></trkpt>
<trkpt lat="42.290123" lon="3.235990"><ele></ele><time>2014-4-4T23:32:39Z</time></trkpt>
<trkpt lat="42.290200" lon="3.235883"><ele></ele><time>2014-4-4T23:32:42Z</time></trkpt>
<trkpt lat="42.290280" lon="3.235770"><ele></ele><time>2014-4-4T23:32:45Z</time></trkpt>
<trkpt lat="42.290382" lon="3.235657"><ele></ele><time>2014-4-4T23:32:48Z</time></trkpt>
<trkpt lat="42.290532" lon="3.235555"><ele></ele><time>2014-4-4T23:32:51Z</time></trkpt>
<trkpt lat="42.290680" lon="3.235440"><ele></ele><time>2014-4-4T23:32:54Z</time></trkpt>
<trkpt lat="42.290843" lon="3.235415"><ele></ele><time>2014-4-4T23:32:57Z</time></trkpt>
<trkpt lat="42.290973" lon="3.235413"><ele></ele><time>2014-4-4T23:33:0Z</time></trkpt>
<trkpt lat="42.291095" lon="3.235403"><ele></ele><time>2014-4-4T23:33:3Z</time></trkpt>
<trkpt lat="42.291248" lon="3.235407"><ele></ele><time>2014-4-4T23:33:6Z</time></trkpt>
<trkpt lat="42.291420" lon="3.235397"><ele></ele><time>2014-4-4T23:33:9Z</time></trkpt>
<trkpt lat="42.291562" lon="3.235418"><ele></ele><time>2014-4-4T23:33:12Z</time></trkpt>
<trkpt lat="42.291713" lon="3.235420"><ele></ele><time>2014-4-4T23:33:15Z</time></trkpt>
<trkpt lat="42.291878" lon="3.235423"><ele></ele><time>2014-4-4T23:33:18Z</time></trkpt>
<trkpt lat="42.292030" lon="3.235423"><ele></ele><time>2014-4-4T23:33:21Z</time></trkpt>
<trkpt lat="42.292168" lon="3.235432"><ele></ele><time>2014-4-4T23:33:24Z</time></trkpt>
<trkpt lat="42.292332" lon="3.235447"><ele></ele><time>2014-4-4T23:33:27Z</time></trkpt>
<trkpt lat="42.292488" lon="3.235445"><ele></ele><time>2014-4-4T23:33:30Z</time></trkpt>
<trkpt lat="42.292633" lon="3.235437"><ele></ele><time>2014-4-4T23:33:33Z</time></trkpt>
<trkpt lat="42.292767" lon="3.235470"><ele></ele><time>2014-4-4T23:33:36Z</time></trkpt>
<trkpt lat="42.292885" lon="3.235560"><ele></ele><time>2014-4-4T23:33:39Z</time></trkpt>
<trkpt lat="42.293022" lon="3.235682"><ele></ele><time>2014-4-4T23:33:42Z</time></trkpt>
<trkpt lat="42.293125" lon="3.235822"><ele></ele><time>2014-4-4T23:33:45Z</time></trkpt>
<trkpt lat="42.293193" lon="3.235937"><ele></ele><time>2014-4-4T23:33:48Z</time></trkpt>
<trkpt lat="42.293208" lon="3.236068"><ele></ele><time>2014-4-4T23:33:51Z</time></trkpt>
<trkpt lat="42.293278" lon="3.236188"><ele></ele><time>2014-4-4T23:33:54Z</time></trkpt>
<trkpt lat="42.293365" lon="3.236325"><ele></ele><time>2014-4-4T23:33:57Z</time></trkpt>
<trkpt lat="42.293418" lon="3.236397"><ele></ele><time>2014-4-4T23:34:0Z</time></trkpt>
<trkpt lat="42.293423" lon="3.236392"><ele></ele><time>2014-4-4T23:34:3Z</time></trkpt>
<trkpt lat="42.293423" lon="3.236387"><ele></ele><time>2014-4-4T23:34:6Z</time></trkpt>
<trkpt lat="42.293418" lon="3.236385"><ele></ele><time>2014-4-4T23:34:9Z</time></trkpt>
<trkpt lat="42.293418" lon="3.236382"><ele></ele><time>2014-4-4T23:34:12Z</time></trkpt>
<trkpt lat="42.293423" lon="3.236380"><ele></ele><time>2014-4-4T23:34:15Z</time></trkpt>
<trkpt lat="42.293418" lon="3.236378"><ele></ele><time>2014-4-4T23:34:18Z</time></trkpt>
<trkpt lat="42.293418" lon="3.236380"><ele></ele><time>2014-4-4T23:34:21Z</time></trkpt>
<trkpt lat="42.293418" lon="3.236382"><ele></ele><time>2014-4-4T23:34:24Z</time></trkpt>
<trkpt lat="42.293418" lon="3.236382"><ele></ele><time>2014-4-4T23:34:27Z</time></trkpt>
<trkpt lat="42.293423" lon="3.236382"><ele></ele><time>2014-4-4T23:34:30Z</time></trkpt>
<trkpt lat="42.293423" lon="3.236380"><ele></ele><time>2014-4-4T23:34:33Z</time></trkpt>
<trkpt lat="42.293423" lon="3.236382"><ele></ele><time>2014-4-4T23:34:36Z</time></trkpt>
<trkpt lat="42.293423" lon="3.236382"><ele></ele><time>2014-4-4T23:34:39Z</time></trkpt>
<trkpt lat="42.293427" lon="3.236385"><ele></ele><time>2014-4-4T23:34:42Z</time></trkpt>
<trkpt lat="42.293427" lon="3.236388"><ele></ele><time>2014-4-4T23:34:45Z</time></trkpt>
<trkpt lat="42.293430" lon="3.236388"><ele></ele><time>2014-4-4T23:34:48Z</time></trkpt>
<trkpt lat="42.293433" lon="3.236388"><ele></ele><time>2014-4-4T23:34:51Z</time></trkpt>
<trkpt lat="42.293433" lon="3.236387"><ele></ele><time>2014-4-4T23:34:54Z</time></trkpt>
<trkpt lat="42.293433" lon="3.236385"><ele></ele><time>2014-4-4T23:34:57Z</time></trkpt>
<trkpt lat="42.293433" lon="3.236388"><ele></ele><time>2014-4-4T23:35:0Z</time></trkpt>
<trkpt lat="42.293483" lon="3.236402"><ele></ele><time>2014-4-4T23:35:3Z</time></trkpt>
<trkpt lat="42.293572" lon="3.236378"><ele></ele><time>2014-4-4T23:35:6Z</time></trkpt>
<trkpt lat="42.293717" lon="3.236345"><ele></ele><time>2014-4-4T23:35:9Z</time></trkpt>
<trkpt lat="42.293835" lon="3.236297"><ele></ele><time>2014-4-4T23:35:12Z</time></trkpt>
<trkpt lat="42.293915" lon="3.236293"><ele></ele><time>2014-4-4T23:35:15Z</time></trkpt>
<trkpt lat="42.293992" lon="3.236270"><ele></ele><time>2014-4-4T23:35:18Z</time></trkpt>
<trkpt lat="42.294093" lon="3.236258"><ele></ele><time>2014-4-4T23:35:21Z</time></trkpt>
<trkpt lat="42.294262" lon="3.236252"><ele></ele><time>2014-4-4T23:35:24Z</time></trkpt>
<trkpt lat="42.294460" lon="3.236260"><ele></ele><time>2014-4-4T23:35:27Z</time></trkpt>
<trkpt lat="42.294717" lon="3.236257"><ele></ele><time>2014-4-4T23:35:30Z</time></trkpt>
<trkpt lat="42.295010" lon="3.236253"><ele></ele><time>2014-4-4T23:35:33Z</time></trkpt>
<trkpt lat="42.295288" lon="3.236345"><ele></ele><time>2014-4-4T23:35:36Z</time></trkpt>
<trkpt lat="42.295483" lon="3.236433"><ele></ele><time>2014-4-4T23:35:39Z</time></trkpt>
<trkpt lat="42.295520" lon="3.236455"><ele></ele><time>2014-4-4T23:35:42Z</time></trkpt>
<trkpt lat="42.295517" lon="3.236457"><ele></ele><time>2014-4-4T23:35:45Z</time></trkpt>
<trkpt lat="42.295517" lon="3.236457"><ele></ele><time>2014-4-4T23:35:48Z</time></trkpt>
<trkpt lat="42.295517" lon="3.236458"><ele></ele><time>2014-4-4T23:35:51Z</time></trkpt>
<trkpt lat="42.295513" lon="3.236460"><ele></ele><time>2014-4-4T23:35:54Z</time></trkpt>
<trkpt lat="42.295517" lon="3.236458"><ele></ele><time>2014-4-4T23:35:57Z</time></trkpt>
<trkpt lat="42.295517" lon="3.236457"><ele></ele><time>2014-4-4T23:36:0Z</time></trkpt>
<trkpt lat="42.295517" lon="3.236458"><ele></ele><time>2014-4-4T23:36:3Z</time></trkpt>
<trkpt lat="42.295517" lon="3.236458"><ele></ele><time>2014-4-4T23:36:6Z</time></trkpt>
<trkpt lat="42.295517" lon="3.236460"><ele></ele><time>2014-4-4T23:36:9Z</time></trkpt>
<trkpt lat="42.295520" lon="3.236465"><ele></ele><time>2014-4-4T23:36:12Z</time></trkpt>
<trkpt lat="42.295563" lon="3.236490"><ele></ele><time>2014-4-4T23:36:15Z</time></trkpt>
<trkpt lat="42.295643" lon="3.236547"><ele></ele><time>2014-4-4T23:36:18Z</time></trkpt>
<trkpt lat="42.295727" lon="3.236595"><ele></ele><time>2014-4-4T23:36:21Z</time></trkpt>
<trkpt lat="42.295842" lon="3.236683"><ele></ele><time>2014-4-4T23:36:24Z</time></trkpt>
<trkpt lat="42.295982" lon="3.236790"><ele></ele><time>2014-4-4T23:36:27Z</time></trkpt>
<trkpt lat="42.296120" lon="3.236890"><ele></ele><time>2014-4-4T23:36:30Z</time></trkpt>
<trkpt lat="42.296212" lon="3.236952"><ele></ele><time>2014-4-4T23:36:33Z</time></trkpt>
<trkpt lat="42.296227" lon="3.236960"><ele></ele><time>2014-4-4T23:36:36Z</time></trkpt>
<trkpt lat="42.296223" lon="3.236957"><ele></ele><time>2014-4-4T23:36:39Z</time></trkpt>
<trkpt lat="42.296223" lon="3.236952"><ele></ele><time>2014-4-4T23:36:42Z</time></trkpt>
<trkpt lat="42.296223" lon="3.236953"><ele></ele><time>2014-4-4T23:36:45Z</time></trkpt>
<trkpt lat="42.296250" lon="3.236968"><ele></ele><time>2014-4-4T23:36:48Z</time></trkpt>
<trkpt lat="42.296363" lon="3.237057"><ele></ele><time>2014-4-4T23:36:51Z</time></trkpt>
<trkpt lat="42.296402" lon="3.237082"><ele></ele><time>2014-4-4T23:36:54Z</time></trkpt>
<trkpt lat="42.296402" lon="3.237083"><ele></ele><time>2014-4-4T23:36:57Z</time></trkpt>
<trkpt lat="42.296402" lon="3.237083"><ele></ele><time>2014-4-4T23:37:0Z</time></trkpt>
<trkpt lat="42.296405" lon="3.237088"><ele></ele><time>2014-4-4T23:37:3Z</time></trkpt>
<trkpt lat="42.296493" lon="3.237017"><ele></ele><time>2014-4-4T23:37:6Z</time></trkpt>
<trkpt lat="42.296547" lon="3.236862"><ele></ele><time>2014-4-4T23:37:9Z</time></trkpt>
<trkpt lat="42.296603" lon="3.236692"><ele></ele><time>2014-4-4T23:37:12Z</time></trkpt>
<trkpt lat="42.296692" lon="3.236563"><ele></ele><time>2014-4-4T23:37:15Z</time></trkpt>
<trkpt lat="42.296807" lon="3.236542"><ele></ele><time>2014-4-4T23:37:18Z</time></trkpt>
<trkpt lat="42.296860" lon="3.236628"><ele></ele><time>2014-4-4T23:37:21Z</time></trkpt>
<trkpt lat="42.296860" lon="3.236635"><ele></ele><time>2014-4-4T23:37:24Z</time></trkpt>
<trkpt lat="42.296857" lon="3.236632"><ele></ele><time>2014-4-4T23:37:27Z</time></trkpt>
<trkpt lat="42.296857" lon="3.236630"><ele></ele><time>2014-4-4T23:37:30Z</time></trkpt>
<trkpt lat="42.296857" lon="3.236630"><ele></ele><time>2014-4-4T23:37:33Z</time></trkpt>
<trkpt lat="42.296857" lon="3.236632"><ele></ele><time>2014-4-4T23:37:36Z</time></trkpt>
<trkpt lat="42.296857" lon="3.236633"><ele></ele><time>2014-4-4T23:37:39Z</time></trkpt>
<trkpt lat="42.296807" lon="3.236740"><ele></ele><time>2014-4-4T23:37:42Z</time></trkpt>
<trkpt lat="42.296688" lon="3.236833"><ele></ele><time>2014-4-4T23:37:45Z</time></trkpt>
<trkpt lat="42.296597" lon="3.236958"><ele></ele><time>2014-4-4T23:37:48Z</time></trkpt>
<trkpt lat="42.296540" lon="3.237102"><ele></ele><time>2014-4-4T23:37:51Z</time></trkpt>
<trkpt lat="42.296520" lon="3.237257"><ele></ele><time>2014-4-4T23:37:54Z</time></trkpt>
<trkpt lat="42.296612" lon="3.237333"><ele></ele><time>2014-4-4T23:37:57Z</time></trkpt>
<trkpt lat="42.296715" lon="3.237278"><ele></ele><time>2014-4-4T23:38:0Z</time></trkpt>
<trkpt lat="42.296813" lon="3.237258"><ele></ele><time>2014-4-4T23:38:3Z</time></trkpt>
<trkpt lat="42.296913" lon="3.237298"><ele></ele><time>2014-4-4T23:38:6Z</time></trkpt>
<trkpt lat="42.296990" lon="3.237415"><ele></ele><time>2014-4-4T23:38:9Z</time></trkpt>
<trkpt lat="42.297047" lon="3.237560"><ele></ele><time>2014-4-4T23:38:12Z</time></trkpt>
<trkpt lat="42.297112" lon="3.237705"><ele></ele><time>2014-4-4T23:38:15Z</time></trkpt>
<trkpt lat="42.297173" lon="3.237842"><ele></ele><time>2014-4-4T23:38:18Z</time></trkpt>
<trkpt lat="42.297237" lon="3.237972"><ele></ele><time>2014-4-4T23:38:21Z</time></trkpt>
<trkpt lat="42.297322" lon="3.238085"><ele></ele><time>2014-4-4T23:38:24Z</time></trkpt>
<trkpt lat="42.297413" lon="3.238193"><ele></ele><time>2014-4-4T23:38:27Z</time></trkpt>
<trkpt lat="42.297488" lon="3.238290"><ele></ele><time>2014-4-4T23:38:30Z</time></trkpt>
<trkpt lat="42.297573" lon="3.238385"><ele></ele><time>2014-4-4T23:38:33Z</time></trkpt>
<trkpt lat="42.297650" lon="3.238497"><ele></ele><time>2014-4-4T23:38:36Z</time></trkpt>
<trkpt lat="42.297733" lon="3.238613"><ele></ele><time>2014-4-4T23:38:39Z</time></trkpt>
<trkpt lat="42.297810" lon="3.238743"><ele></ele><time>2014-4-4T23:38:42Z</time></trkpt>
<trkpt lat="42.297878" lon="3.238888"><ele></ele><time>2014-4-4T23:38:45Z</time></trkpt>
<trkpt lat="42.297943" lon="3.239053"><ele></ele><time>2014-4-4T23:38:48Z</time></trkpt>
<trkpt lat="42.298008" lon="3.239223"><ele></ele><time>2014-4-4T23:38:51Z</time></trkpt>
<trkpt lat="42.298085" lon="3.239382"><ele></ele><time>2014-4-4T23:38:54Z</time></trkpt>
<trkpt lat="42.298168" lon="3.239527"><ele></ele><time>2014-4-4T23:38:57Z</time></trkpt>
<trkpt lat="42.298248" lon="3.239665"><ele></ele><time>2014-4-4T23:39:0Z</time></trkpt>
<trkpt lat="42.298325" lon="3.239805"><ele></ele><time>2014-4-4T23:39:3Z</time></trkpt>
<trkpt lat="42.298408" lon="3.239942"><ele></ele><time>2014-4-4T23:39:6Z</time></trkpt>
<trkpt lat="42.298465" lon="3.240040"><ele></ele><time>2014-4-4T23:39:9Z</time></trkpt>
<trkpt lat="42.298515" lon="3.240138"><ele></ele><time>2014-4-4T23:39:12Z</time></trkpt>
<trkpt lat="42.298568" lon="3.240217"><ele></ele><time>2014-4-4T23:39:15Z</time></trkpt>
<trkpt lat="42.298627" lon="3.240317"><ele></ele><time>2014-4-4T23:39:18Z</time></trkpt>
<trkpt lat="42.298660" lon="3.240405"><ele></ele><time>2014-4-4T23:39:21Z</time></trkpt>
<trkpt lat="42.298660" lon="3.240408"><ele></ele><time>2014-4-4T23:39:24Z</time></trkpt>
<trkpt lat="42.298660" lon="3.240422"><ele></ele><time>2014-4-4T23:39:27Z</time></trkpt>
<trkpt lat="42.298663" lon="3.240437"><ele></ele><time>2014-4-4T23:39:30Z</time></trkpt>
<trkpt lat="42.298717" lon="3.240545"><ele></ele><time>2014-4-4T23:39:33Z</time></trkpt>
<trkpt lat="42.298755" lon="3.240660"><ele></ele><time>2014-4-4T23:39:36Z</time></trkpt>
<trkpt lat="42.298793" lon="3.240767"><ele></ele><time>2014-4-4T23:39:39Z</time></trkpt>
<trkpt lat="42.298828" lon="3.240888"><ele></ele><time>2014-4-4T23:39:42Z</time></trkpt>
<trkpt lat="42.298882" lon="3.241027"><ele></ele><time>2014-4-4T23:39:45Z</time></trkpt>
<trkpt lat="42.299012" lon="3.241028"><ele></ele><time>2014-4-4T23:39:48Z</time></trkpt>
<trkpt lat="42.299092" lon="3.240878"><ele></ele><time>2014-4-4T23:39:51Z</time></trkpt>
<trkpt lat="42.299133" lon="3.240705"><ele></ele><time>2014-4-4T23:39:54Z</time></trkpt>
<trkpt lat="42.299175" lon="3.240548"><ele></ele><time>2014-4-4T23:39:57Z</time></trkpt>
<trkpt lat="42.299217" lon="3.240392"><ele></ele><time>2014-4-4T23:40:0Z</time></trkpt>
<trkpt lat="42.299248" lon="3.240220"><ele></ele><time>2014-4-4T23:40:3Z</time></trkpt>
<trkpt lat="42.299270" lon="3.240050"><ele></ele><time>2014-4-4T23:40:6Z</time></trkpt>
<trkpt lat="42.299287" lon="3.239882"><ele></ele><time>2014-4-4T23:40:9Z</time></trkpt>
<trkpt lat="42.299260" lon="3.239712"><ele></ele><time>2014-4-4T23:40:12Z</time></trkpt>
<trkpt lat="42.299213" lon="3.239552"><ele></ele><time>2014-4-4T23:40:15Z</time></trkpt>
<trkpt lat="42.299175" lon="3.239383"><ele></ele><time>2014-4-4T23:40:18Z</time></trkpt>
<trkpt lat="42.299148" lon="3.239202"><ele></ele><time>2014-4-4T23:40:21Z</time></trkpt>
<trkpt lat="42.299133" lon="3.239007"><ele></ele><time>2014-4-4T23:40:24Z</time></trkpt>
<trkpt lat="42.299133" lon="3.238797"><ele></ele><time>2014-4-4T23:40:27Z</time></trkpt>
<trkpt lat="42.299152" lon="3.238595"><ele></ele><time>2014-4-4T23:40:30Z</time></trkpt>
<trkpt lat="42.299213" lon="3.238413"><ele></ele><time>2014-4-4T23:40:33Z</time></trkpt>
<trkpt lat="42.299287" lon="3.238238"><ele></ele><time>2014-4-4T23:40:36Z</time></trkpt>
<trkpt lat="42.299373" lon="3.238078"><ele></ele><time>2014-4-4T23:40:39Z</time></trkpt>
<trkpt lat="42.299492" lon="3.237948"><ele></ele><time>2014-4-4T23:40:42Z</time></trkpt>
<trkpt lat="42.299640" lon="3.237850"><ele></ele><time>2014-4-4T23:40:45Z</time></trkpt>
<trkpt lat="42.299823" lon="3.237777"><ele></ele><time>2014-4-4T23:40:48Z</time></trkpt>
<trkpt lat="42.300027" lon="3.237703"><ele></ele><time>2014-4-4T23:40:51Z</time></trkpt>
<trkpt lat="42.300228" lon="3.237665"><ele></ele><time>2014-4-4T23:40:54Z</time></trkpt>
<trkpt lat="42.300445" lon="3.237708"><ele></ele><time>2014-4-4T23:40:57Z</time></trkpt>
<trkpt lat="42.300670" lon="3.237707"><ele></ele><time>2014-4-4T23:41:0Z</time></trkpt>
<trkpt lat="42.300877" lon="3.237547"><ele></ele><time>2014-4-4T23:41:3Z</time></trkpt>
<trkpt lat="42.301075" lon="3.237353"><ele></ele><time>2014-4-4T23:41:6Z</time></trkpt>
<trkpt lat="42.301270" lon="3.237153"><ele></ele><time>2014-4-4T23:41:9Z</time></trkpt>
<trkpt lat="42.301498" lon="3.236975"><ele></ele><time>2014-4-4T23:41:12Z</time></trkpt>
<trkpt lat="42.301792" lon="3.236818"><ele></ele><time>2014-4-4T23:41:15Z</time></trkpt>
<trkpt lat="42.302120" lon="3.236553"><ele></ele><time>2014-4-4T23:41:18Z</time></trkpt>
<trkpt lat="42.302520" lon="3.236267"><ele></ele><time>2014-4-4T23:41:21Z</time></trkpt>
<trkpt lat="42.302833" lon="3.236162"><ele></ele><time>2014-4-4T23:41:24Z</time></trkpt>
<trkpt lat="42.303097" lon="3.236220"><ele></ele><time>2014-4-4T23:41:27Z</time></trkpt>
<trkpt lat="42.303233" lon="3.236572"><ele></ele><time>2014-4-4T23:41:30Z</time></trkpt>
<trkpt lat="42.303260" lon="3.236995"><ele></ele><time>2014-4-4T23:41:33Z</time></trkpt>
<trkpt lat="42.303223" lon="3.237415"><ele></ele><time>2014-4-4T23:41:36Z</time></trkpt>
<trkpt lat="42.303223" lon="3.237683"><ele></ele><time>2014-4-4T23:41:39Z</time></trkpt>
<trkpt lat="42.303422" lon="3.237508"><ele></ele><time>2014-4-4T23:41:42Z</time></trkpt>
<trkpt lat="42.303597" lon="3.237190"><ele></ele><time>2014-4-4T23:41:45Z</time></trkpt>
<trkpt lat="42.303765" lon="3.236885"><ele></ele><time>2014-4-4T23:41:48Z</time></trkpt>
<trkpt lat="42.303973" lon="3.236623"><ele></ele><time>2014-4-4T23:41:51Z</time></trkpt>
<trkpt lat="42.304215" lon="3.236495"><ele></ele><time>2014-4-4T23:41:54Z</time></trkpt>
<trkpt lat="42.304378" lon="3.236730"><ele></ele><time>2014-4-4T23:41:57Z</time></trkpt>
<trkpt lat="42.304322" lon="3.237210"><ele></ele><time>2014-4-4T23:42:0Z</time></trkpt>
<trkpt lat="42.304283" lon="3.237635"><ele></ele><time>2014-4-4T23:42:3Z</time></trkpt>
<trkpt lat="42.304352" lon="3.237920"><ele></ele><time>2014-4-4T23:42:6Z</time></trkpt>
<trkpt lat="42.304488" lon="3.237893"><ele></ele><time>2014-4-4T23:42:9Z</time></trkpt>
<trkpt lat="42.304562" lon="3.237688"><ele></ele><time>2014-4-4T23:42:12Z</time></trkpt>
<trkpt lat="42.304645" lon="3.237507"><ele></ele><time>2014-4-4T23:42:15Z</time></trkpt>
<trkpt lat="42.304772" lon="3.237352"><ele></ele><time>2014-4-4T23:42:18Z</time></trkpt>
<trkpt lat="42.304908" lon="3.237223"><ele></ele><time>2014-4-4T23:42:21Z</time></trkpt>
<trkpt lat="42.305012" lon="3.237045"><ele></ele><time>2014-4-4T23:42:24Z</time></trkpt>
<trkpt lat="42.305080" lon="3.236848"><ele></ele><time>2014-4-4T23:42:27Z</time></trkpt>
<trkpt lat="42.305148" lon="3.236650"><ele></ele><time>2014-4-4T23:42:30Z</time></trkpt>
<trkpt lat="42.305218" lon="3.236480"><ele></ele><time>2014-4-4T23:42:33Z</time></trkpt>
<trkpt lat="42.305310" lon="3.236327"><ele></ele><time>2014-4-4T23:42:36Z</time></trkpt>
<trkpt lat="42.305408" lon="3.236202"><ele></ele><time>2014-4-4T23:42:39Z</time></trkpt>
<trkpt lat="42.305515" lon="3.236080"><ele></ele><time>2014-4-4T23:42:42Z</time></trkpt>
<trkpt lat="42.305630" lon="3.235975"><ele></ele><time>2014-4-4T23:42:45Z</time></trkpt>
<trkpt lat="42.305745" lon="3.235878"><ele></ele><time>2014-4-4T23:42:48Z</time></trkpt>
<trkpt lat="42.305855" lon="3.235763"><ele></ele><time>2014-4-4T23:42:51Z</time></trkpt>
<trkpt lat="42.305962" lon="3.235627"><ele></ele><time>2014-4-4T23:42:54Z</time></trkpt>
<trkpt lat="42.306083" lon="3.235628"><ele></ele><time>2014-4-4T23:42:57Z</time></trkpt>
<trkpt lat="42.306065" lon="3.235833"><ele></ele><time>2014-4-4T23:43:0Z</time></trkpt>
<trkpt lat="42.305980" lon="3.235998"><ele></ele><time>2014-4-4T23:43:3Z</time></trkpt>
<trkpt lat="42.305897" lon="3.236193"><ele></ele><time>2014-4-4T23:43:6Z</time></trkpt>
<trkpt lat="42.305798" lon="3.236405"><ele></ele><time>2014-4-4T23:43:9Z</time></trkpt>
<trkpt lat="42.305690" lon="3.236618"><ele></ele><time>2014-4-4T23:43:12Z</time></trkpt>
<trkpt lat="42.305607" lon="3.236855"><ele></ele><time>2014-4-4T23:43:15Z</time></trkpt>
<trkpt lat="42.305527" lon="3.237125"><ele></ele><time>2014-4-4T23:43:18Z</time></trkpt>
<trkpt lat="42.305557" lon="3.237385"><ele></ele><time>2014-4-4T23:43:21Z</time></trkpt>
<trkpt lat="42.305767" lon="3.237487"><ele></ele><time>2014-4-4T23:43:24Z</time></trkpt>
<trkpt lat="42.305938" lon="3.237635"><ele></ele><time>2014-4-4T23:43:27Z</time></trkpt>
<trkpt lat="42.306042" lon="3.237895"><ele></ele><time>2014-4-4T23:43:30Z</time></trkpt>
<trkpt lat="42.306202" lon="3.237983"><ele></ele><time>2014-4-4T23:43:33Z</time></trkpt>
<trkpt lat="42.306305" lon="3.237788"><ele></ele><time>2014-4-4T23:43:36Z</time></trkpt>
<trkpt lat="42.306435" lon="3.237587"><ele></ele><time>2014-4-4T23:43:39Z</time></trkpt>
<trkpt lat="42.306622" lon="3.237393"><ele></ele><time>2014-4-4T23:43:42Z</time></trkpt>
<trkpt lat="42.306847" lon="3.237275"><ele></ele><time>2014-4-4T23:43:45Z</time></trkpt>
<trkpt lat="42.307072" lon="3.237117"><ele></ele><time>2014-4-4T23:43:48Z</time></trkpt>
<trkpt lat="42.307278" lon="3.236895"><ele></ele><time>2014-4-4T23:43:51Z</time></trkpt>
<trkpt lat="42.307492" lon="3.236675"><ele></ele><time>2014-4-4T23:43:54Z</time></trkpt>
<trkpt lat="42.307687" lon="3.236448"><ele></ele><time>2014-4-4T23:43:57Z</time></trkpt>
<trkpt lat="42.307853" lon="3.236242"><ele></ele><time>2014-4-4T23:44:0Z</time></trkpt>
<trkpt lat="42.308007" lon="3.236072"><ele></ele><time>2014-4-4T23:44:3Z</time></trkpt>
<trkpt lat="42.308158" lon="3.235913"><ele></ele><time>2014-4-4T23:44:6Z</time></trkpt>
<trkpt lat="42.308330" lon="3.235797"><ele></ele><time>2014-4-4T23:44:9Z</time></trkpt>
<trkpt lat="42.308498" lon="3.235710"><ele></ele><time>2014-4-4T23:44:12Z</time></trkpt>
<trkpt lat="42.308647" lon="3.235725"><ele></ele><time>2014-4-4T23:44:15Z</time></trkpt>
<trkpt lat="42.308670" lon="3.235905"><ele></ele><time>2014-4-4T23:44:18Z</time></trkpt>
<trkpt lat="42.308602" lon="3.236097"><ele></ele><time>2014-4-4T23:44:21Z</time></trkpt>
<trkpt lat="42.308490" lon="3.236283"><ele></ele><time>2014-4-4T23:44:24Z</time></trkpt>
<trkpt lat="42.308365" lon="3.236452"><ele></ele><time>2014-4-4T23:44:27Z</time></trkpt>
<trkpt lat="42.308262" lon="3.236633"><ele></ele><time>2014-4-4T23:44:30Z</time></trkpt>
<trkpt lat="42.308173" lon="3.236802"><ele></ele><time>2014-4-4T23:44:33Z</time></trkpt>
<trkpt lat="42.308087" lon="3.236900"><ele></ele><time>2014-4-4T23:44:36Z</time></trkpt>
<trkpt lat="42.308002" lon="3.236997"><ele></ele><time>2014-4-4T23:44:39Z</time></trkpt>
<trkpt lat="42.307945" lon="3.237122"><ele></ele><time>2014-4-4T23:44:42Z</time></trkpt>
<trkpt lat="42.307880" lon="3.237217"><ele></ele><time>2014-4-4T23:44:45Z</time></trkpt>
<trkpt lat="42.307830" lon="3.237317"><ele></ele><time>2014-4-4T23:44:48Z</time></trkpt>
<trkpt lat="42.307820" lon="3.237413"><ele></ele><time>2014-4-4T23:44:51Z</time></trkpt>
<trkpt lat="42.307850" lon="3.237493"><ele></ele><time>2014-4-4T23:44:54Z</time></trkpt>
<trkpt lat="42.307877" lon="3.237587"><ele></ele><time>2014-4-4T23:44:57Z</time></trkpt>
<trkpt lat="42.307877" lon="3.237633"><ele></ele><time>2014-4-4T23:45:0Z</time></trkpt>
<trkpt lat="42.307880" lon="3.237680"><ele></ele><time>2014-4-4T23:45:3Z</time></trkpt>
<trkpt lat="42.307915" lon="3.237708"><ele></ele><time>2014-4-4T23:45:6Z</time></trkpt>
<trkpt lat="42.307933" lon="3.237733"><ele></ele><time>2014-4-4T23:45:9Z</time></trkpt>
<trkpt lat="42.307995" lon="3.237745"><ele></ele><time>2014-4-4T23:45:12Z</time></trkpt>
<trkpt lat="42.308078" lon="3.237707"><ele></ele><time>2014-4-4T23:45:15Z</time></trkpt>
<trkpt lat="42.308173" lon="3.237638"><ele></ele><time>2014-4-4T23:45:18Z</time></trkpt>
<trkpt lat="42.308282" lon="3.237665"><ele></ele><time>2014-4-4T23:45:21Z</time></trkpt>
<trkpt lat="42.308368" lon="3.237743"><ele></ele><time>2014-4-4T23:45:24Z</time></trkpt>
<trkpt lat="42.308448" lon="3.237842"><ele></ele><time>2014-4-4T23:45:27Z</time></trkpt>
<trkpt lat="42.308525" lon="3.237943"><ele></ele><time>2014-4-4T23:45:30Z</time></trkpt>
<trkpt lat="42.308602" lon="3.238043"><ele></ele><time>2014-4-4T23:45:33Z</time></trkpt>
<trkpt lat="42.308682" lon="3.238160"><ele></ele><time>2014-4-4T23:45:36Z</time></trkpt>
<trkpt lat="42.308750" lon="3.238283"><ele></ele><time>2014-4-4T23:45:39Z</time></trkpt>
<trkpt lat="42.308777" lon="3.238423"><ele></ele><time>2014-4-4T23:45:42Z</time></trkpt>
<trkpt lat="42.308750" lon="3.238570"><ele></ele><time>2014-4-4T23:45:45Z</time></trkpt>
<trkpt lat="42.308715" lon="3.238723"><ele></ele><time>2014-4-4T23:45:48Z</time></trkpt>
<trkpt lat="42.308670" lon="3.238888"><ele></ele><time>2014-4-4T23:45:51Z</time></trkpt>
<trkpt lat="42.308658" lon="3.239068"><ele></ele><time>2014-4-4T23:45:54Z</time></trkpt>
<trkpt lat="42.308705" lon="3.239297"><ele></ele><time>2014-4-4T23:45:57Z</time></trkpt>
<trkpt lat="42.308770" lon="3.239548"><ele></ele><time>2014-4-4T23:46:0Z</time></trkpt>
<trkpt lat="42.308797" lon="3.239790"><ele></ele><time>2014-4-4T23:46:3Z</time></trkpt>
<trkpt lat="42.308833" lon="3.239993"><ele></ele><time>2014-4-4T23:46:6Z</time></trkpt>
<trkpt lat="42.308833" lon="3.240025"><ele></ele><time>2014-4-4T23:46:9Z</time></trkpt>
<trkpt lat="42.308833" lon="3.240025"><ele></ele><time>2014-4-4T23:46:12Z</time></trkpt>
<trkpt lat="42.308850" lon="3.240083"><ele></ele><time>2014-4-4T23:46:15Z</time></trkpt>
<trkpt lat="42.308857" lon="3.240287"><ele></ele><time>2014-4-4T23:46:18Z</time></trkpt>
<trkpt lat="42.308892" lon="3.240495"><ele></ele><time>2014-4-4T23:46:21Z</time></trkpt>
<trkpt lat="42.308963" lon="3.240730"><ele></ele><time>2014-4-4T23:46:24Z</time></trkpt>
<trkpt lat="42.309043" lon="3.240920"><ele></ele><time>2014-4-4T23:46:27Z</time></trkpt>
<trkpt lat="42.309208" lon="3.241057"><ele></ele><time>2014-4-4T23:46:30Z</time></trkpt>
<trkpt lat="42.309422" lon="3.241113"><ele></ele><time>2014-4-4T23:46:33Z</time></trkpt>
<trkpt lat="42.309597" lon="3.241138"><ele></ele><time>2014-4-4T23:46:36Z</time></trkpt>
<trkpt lat="42.309830" lon="3.241088"><ele></ele><time>2014-4-4T23:46:39Z</time></trkpt>
<trkpt lat="42.310035" lon="3.240968"><ele></ele><time>2014-4-4T23:46:42Z</time></trkpt>
<trkpt lat="42.310200" lon="3.240808"><ele></ele><time>2014-4-4T23:46:45Z</time></trkpt>
<trkpt lat="42.310440" lon="3.240677"><ele></ele><time>2014-4-4T23:46:48Z</time></trkpt>
<trkpt lat="42.310658" lon="3.240582"><ele></ele><time>2014-4-4T23:46:51Z</time></trkpt>
<trkpt lat="42.310875" lon="3.240437"><ele></ele><time>2014-4-4T23:46:54Z</time></trkpt>
<trkpt lat="42.311065" lon="3.240352"><ele></ele><time>2014-4-4T23:46:57Z</time></trkpt>
<trkpt lat="42.311287" lon="3.240272"><ele></ele><time>2014-4-4T23:47:0Z</time></trkpt>
<trkpt lat="42.311520" lon="3.240333"><ele></ele><time>2014-4-4T23:47:3Z</time></trkpt>
<trkpt lat="42.311730" lon="3.240325"><ele></ele><time>2014-4-4T23:47:6Z</time></trkpt>
<trkpt lat="42.311962" lon="3.240332"><ele></ele><time>2014-4-4T23:47:9Z</time></trkpt>
<trkpt lat="42.312195" lon="3.240402"><ele></ele><time>2014-4-4T23:47:12Z</time></trkpt>
<trkpt lat="42.312417" lon="3.240507"><ele></ele><time>2014-4-4T23:47:15Z</time></trkpt>
<trkpt lat="42.312603" lon="3.240652"><ele></ele><time>2014-4-4T23:47:18Z</time></trkpt>
<trkpt lat="42.312660" lon="3.240770"><ele></ele><time>2014-4-4T23:47:21Z</time></trkpt>
<trkpt lat="42.312660" lon="3.240843"><ele></ele><time>2014-4-4T23:47:24Z</time></trkpt>
<trkpt lat="42.312600" lon="3.240998"><ele></ele><time>2014-4-4T23:47:27Z</time></trkpt>
<trkpt lat="42.312508" lon="3.241127"><ele></ele><time>2014-4-4T23:47:30Z</time></trkpt>
<trkpt lat="42.312443" lon="3.241227"><ele></ele><time>2014-4-4T23:47:33Z</time></trkpt>
<trkpt lat="42.312370" lon="3.241347"><ele></ele><time>2014-4-4T23:47:36Z</time></trkpt>
<trkpt lat="42.312257" lon="3.241483"><ele></ele><time>2014-4-4T23:47:39Z</time></trkpt>
<trkpt lat="42.312127" lon="3.241608"><ele></ele><time>2014-4-4T23:47:42Z</time></trkpt>
<trkpt lat="42.311993" lon="3.241792"><ele></ele><time>2014-4-4T23:47:45Z</time></trkpt>
<trkpt lat="42.311902" lon="3.241908"><ele></ele><time>2014-4-4T23:47:48Z</time></trkpt>
<trkpt lat="42.311790" lon="3.242042"><ele></ele><time>2014-4-4T23:47:51Z</time></trkpt>
<trkpt lat="42.311660" lon="3.242180"><ele></ele><time>2014-4-4T23:47:54Z</time></trkpt>
<trkpt lat="42.311512" lon="3.242295"><ele></ele><time>2014-4-4T23:47:57Z</time></trkpt>
<trkpt lat="42.311405" lon="3.242388"><ele></ele><time>2014-4-4T23:48:0Z</time></trkpt>
<trkpt lat="42.311393" lon="3.242403"><ele></ele><time>2014-4-4T23:48:3Z</time></trkpt>
<trkpt lat="42.311322" lon="3.242452"><ele></ele><time>2014-4-4T23:48:6Z</time></trkpt>
<trkpt lat="42.311195" lon="3.242520"><ele></ele><time>2014-4-4T23:48:9Z</time></trkpt>
<trkpt lat="42.311038" lon="3.242532"><ele></ele><time>2014-4-4T23:48:12Z</time></trkpt>
<trkpt lat="42.310878" lon="3.242482"><ele></ele><time>2014-4-4T23:48:15Z</time></trkpt>
<trkpt lat="42.310787" lon="3.242453"><ele></ele><time>2014-4-4T23:48:18Z</time></trkpt>
<trkpt lat="42.310712" lon="3.242595"><ele></ele><time>2014-4-4T23:48:21Z</time></trkpt>
<trkpt lat="42.310638" lon="3.242772"><ele></ele><time>2014-4-4T23:48:24Z</time></trkpt>
<trkpt lat="42.310577" lon="3.242928"><ele></ele><time>2014-4-4T23:48:27Z</time></trkpt>
<trkpt lat="42.310493" lon="3.243152"><ele></ele><time>2014-4-4T23:48:30Z</time></trkpt>
<trkpt lat="42.310390" lon="3.243382"><ele></ele><time>2014-4-4T23:48:33Z</time></trkpt>
<trkpt lat="42.310257" lon="3.243695"><ele></ele><time>2014-4-4T23:48:36Z</time></trkpt>
<trkpt lat="42.310147" lon="3.243988"><ele></ele><time>2014-4-4T23:48:39Z</time></trkpt>
<trkpt lat="42.310108" lon="3.244250"><ele></ele><time>2014-4-4T23:48:42Z</time></trkpt>
<trkpt lat="42.310020" lon="3.244495"><ele></ele><time>2014-4-4T23:48:45Z</time></trkpt>
<trkpt lat="42.309845" lon="3.244697"><ele></ele><time>2014-4-4T23:48:48Z</time></trkpt>
<trkpt lat="42.309723" lon="3.244853"><ele></ele><time>2014-4-4T23:48:51Z</time></trkpt>
<trkpt lat="42.309735" lon="3.245123"><ele></ele><time>2014-4-4T23:48:54Z</time></trkpt>
<trkpt lat="42.309585" lon="3.245348"><ele></ele><time>2014-4-4T23:48:57Z</time></trkpt>
<trkpt lat="42.309452" lon="3.245548"><ele></ele><time>2014-4-4T23:49:0Z</time></trkpt>
<trkpt lat="42.309345" lon="3.245783"><ele></ele><time>2014-4-4T23:49:3Z</time></trkpt>
<trkpt lat="42.309162" lon="3.245948"><ele></ele><time>2014-4-4T23:49:6Z</time></trkpt>
<trkpt lat="42.309040" lon="3.246138"><ele></ele><time>2014-4-4T23:49:9Z</time></trkpt>
<trkpt lat="42.308830" lon="3.246273"><ele></ele><time>2014-4-4T23:49:12Z</time></trkpt>
<trkpt lat="42.308602" lon="3.246323"><ele></ele><time>2014-4-4T23:49:15Z</time></trkpt>
<trkpt lat="42.308593" lon="3.246440"><ele></ele><time>2014-4-4T23:49:18Z</time></trkpt>
<trkpt lat="42.308693" lon="3.246568"><ele></ele><time>2014-4-4T23:49:21Z</time></trkpt>
<trkpt lat="42.308792" lon="3.246725"><ele></ele><time>2014-4-4T23:49:24Z</time></trkpt>
<trkpt lat="42.308833" lon="3.246945"><ele></ele><time>2014-4-4T23:49:27Z</time></trkpt>
<trkpt lat="42.308827" lon="3.247118"><ele></ele><time>2014-4-4T23:49:30Z</time></trkpt>
<trkpt lat="42.308753" lon="3.247283"><ele></ele><time>2014-4-4T23:49:33Z</time></trkpt>
<trkpt lat="42.308652" lon="3.247507"><ele></ele><time>2014-4-4T23:49:36Z</time></trkpt>
<trkpt lat="42.308513" lon="3.247770"><ele></ele><time>2014-4-4T23:49:39Z</time></trkpt>
<trkpt lat="42.308297" lon="3.247913"><ele></ele><time>2014-4-4T23:49:42Z</time></trkpt>
<trkpt lat="42.308083" lon="3.248000"><ele></ele><time>2014-4-4T23:49:45Z</time></trkpt>
<trkpt lat="42.308147" lon="3.248238"><ele></ele><time>2014-4-4T23:49:48Z</time></trkpt>
<trkpt lat="42.308208" lon="3.248508"><ele></ele><time>2014-4-4T23:49:51Z</time></trkpt>
<trkpt lat="42.308167" lon="3.248778"><ele></ele><time>2014-4-4T23:49:54Z</time></trkpt>
<trkpt lat="42.307983" lon="3.248932"><ele></ele><time>2014-4-4T23:49:57Z</time></trkpt>
<trkpt lat="42.307743" lon="3.248915"><ele></ele><time>2014-4-4T23:50:0Z</time></trkpt>
<trkpt lat="42.307522" lon="3.248943"><ele></ele><time>2014-4-4T23:50:3Z</time></trkpt>
<trkpt lat="42.307288" lon="3.248800"><ele></ele><time>2014-4-4T23:50:6Z</time></trkpt>
<trkpt lat="42.307037" lon="3.248727"><ele></ele><time>2014-4-4T23:50:9Z</time></trkpt>
<trkpt lat="42.306817" lon="3.248795"><ele></ele><time>2014-4-4T23:50:12Z</time></trkpt>
<trkpt lat="42.306808" lon="3.249052"><ele></ele><time>2014-4-4T23:50:15Z</time></trkpt>
<trkpt lat="42.306743" lon="3.249293"><ele></ele><time>2014-4-4T23:50:18Z</time></trkpt>
<trkpt lat="42.306778" lon="3.249513"><ele></ele><time>2014-4-4T23:50:21Z</time></trkpt>
<trkpt lat="42.306767" lon="3.249680"><ele></ele><time>2014-4-4T23:50:24Z</time></trkpt>
<trkpt lat="42.306752" lon="3.249807"><ele></ele><time>2014-4-4T23:50:27Z</time></trkpt>
<trkpt lat="42.306755" lon="3.249832"><ele></ele><time>2014-4-4T23:50:30Z</time></trkpt>
<trkpt lat="42.306747" lon="3.249912"><ele></ele><time>2014-4-4T23:50:33Z</time></trkpt>
<trkpt lat="42.306740" lon="3.250035"><ele></ele><time>2014-4-4T23:50:36Z</time></trkpt>
<trkpt lat="42.306687" lon="3.250202"><ele></ele><time>2014-4-4T23:50:39Z</time></trkpt>
<trkpt lat="42.306580" lon="3.250443"><ele></ele><time>2014-4-4T23:50:42Z</time></trkpt>
<trkpt lat="42.306640" lon="3.250625"><ele></ele><time>2014-4-4T23:50:45Z</time></trkpt>
<trkpt lat="42.306702" lon="3.250825"><ele></ele><time>2014-4-4T23:50:48Z</time></trkpt>
<trkpt lat="42.306812" lon="3.251025"><ele></ele><time>2014-4-4T23:50:51Z</time></trkpt>
<trkpt lat="42.307030" lon="3.251158"><ele></ele><time>2014-4-4T23:50:54Z</time></trkpt>
<trkpt lat="42.307282" lon="3.251323"><ele></ele><time>2014-4-4T23:50:57Z</time></trkpt>
<trkpt lat="42.307537" lon="3.251507"><ele></ele><time>2014-4-4T23:51:0Z</time></trkpt>
<trkpt lat="42.307782" lon="3.251743"><ele></ele><time>2014-4-4T23:51:3Z</time></trkpt>
<trkpt lat="42.308063" lon="3.252003"><ele></ele><time>2014-4-4T23:51:6Z</time></trkpt>
<trkpt lat="42.308342" lon="3.252080"><ele></ele><time>2014-4-4T23:51:9Z</time></trkpt>
<trkpt lat="42.308437" lon="3.252290"><ele></ele><time>2014-4-4T23:51:12Z</time></trkpt>
<trkpt lat="42.308318" lon="3.252622"><ele></ele><time>2014-4-4T23:51:15Z</time></trkpt>
<trkpt lat="42.308173" lon="3.252933"><ele></ele><time>2014-4-4T23:51:18Z</time></trkpt>
<trkpt lat="42.308033" lon="3.253200"><ele></ele><time>2014-4-4T23:51:21Z</time></trkpt>
<trkpt lat="42.307800" lon="3.253353"><ele></ele><time>2014-4-4T23:51:24Z</time></trkpt>
<trkpt lat="42.307510" lon="3.253377"><ele></ele><time>2014-4-4T23:51:27Z</time></trkpt>
<trkpt lat="42.307232" lon="3.253455"><ele></ele><time>2014-4-4T23:51:30Z</time></trkpt>
<trkpt lat="42.306995" lon="3.253652"><ele></ele><time>2014-4-4T23:51:33Z</time></trkpt>
<trkpt lat="42.306797" lon="3.253678"><ele></ele><time>2014-4-4T23:51:36Z</time></trkpt>
<trkpt lat="42.306568" lon="3.253705"><ele></ele><time>2014-4-4T23:51:39Z</time></trkpt>
<trkpt lat="42.306442" lon="3.254042"><ele></ele><time>2014-4-4T23:51:42Z</time></trkpt>
<trkpt lat="42.306232" lon="3.254305"><ele></ele><time>2014-4-4T23:51:45Z</time></trkpt>
<trkpt lat="42.305950" lon="3.254365"><ele></ele><time>2014-4-4T23:51:48Z</time></trkpt>
<trkpt lat="42.305867" lon="3.254598"><ele></ele><time>2014-4-4T23:51:51Z</time></trkpt>
<trkpt lat="42.305740" lon="3.254960"><ele></ele><time>2014-4-4T23:51:54Z</time></trkpt>
<trkpt lat="42.305508" lon="3.255285"><ele></ele><time>2014-4-4T23:51:57Z</time></trkpt>
<trkpt lat="42.305218" lon="3.255417"><ele></ele><time>2014-4-4T23:52:0Z</time></trkpt>
<trkpt lat="42.304913" lon="3.255270"><ele></ele><time>2014-4-4T23:52:3Z</time></trkpt>
<trkpt lat="42.304630" lon="3.255170"><ele></ele><time>2014-4-4T23:52:6Z</time></trkpt>
<trkpt lat="42.304577" lon="3.255313"><ele></ele><time>2014-4-4T23:52:9Z</time></trkpt>
<trkpt lat="42.304882" lon="3.255542"><ele></ele><time>2014-4-4T23:52:12Z</time></trkpt>
<trkpt lat="42.304928" lon="3.255775"><ele></ele><time>2014-4-4T23:52:15Z</time></trkpt>
<trkpt lat="42.304855" lon="3.255883"><ele></ele><time>2014-4-4T23:52:18Z</time></trkpt>
<trkpt lat="42.304867" lon="3.255985"><ele></ele><time>2014-4-4T23:52:21Z</time></trkpt>
<trkpt lat="42.305015" lon="3.256018"><ele></ele><time>2014-4-4T23:52:24Z</time></trkpt>
<trkpt lat="42.305145" lon="3.256127"><ele></ele><time>2014-4-4T23:52:27Z</time></trkpt>
<trkpt lat="42.305302" lon="3.256270"><ele></ele><time>2014-4-4T23:52:30Z</time></trkpt>
<trkpt lat="42.305465" lon="3.256332"><ele></ele><time>2014-4-4T23:52:33Z</time></trkpt>
<trkpt lat="42.305603" lon="3.256208"><ele></ele><time>2014-4-4T23:52:36Z</time></trkpt>
<trkpt lat="42.305825" lon="3.256130"><ele></ele><time>2014-4-4T23:52:39Z</time></trkpt>
<trkpt lat="42.306087" lon="3.256123"><ele></ele><time>2014-4-4T23:52:42Z</time></trkpt>
<trkpt lat="42.306308" lon="3.256102"><ele></ele><time>2014-4-4T23:52:45Z</time></trkpt>
<trkpt lat="42.306548" lon="3.256150"><ele></ele><time>2014-4-4T23:52:48Z</time></trkpt>
<trkpt lat="42.306812" lon="3.256205"><ele></ele><time>2014-4-4T23:52:51Z</time></trkpt>
<trkpt lat="42.307033" lon="3.256385"><ele></ele><time>2014-4-4T23:52:54Z</time></trkpt>
<trkpt lat="42.307240" lon="3.256622"><ele></ele><time>2014-4-4T23:52:57Z</time></trkpt>
<trkpt lat="42.307460" lon="3.256825"><ele></ele><time>2014-4-4T23:53:0Z</time></trkpt>
<trkpt lat="42.307617" lon="3.256995"><ele></ele><time>2014-4-4T23:53:3Z</time></trkpt>
<trkpt lat="42.307628" lon="3.257255"><ele></ele><time>2014-4-4T23:53:6Z</time></trkpt>
<trkpt lat="42.307515" lon="3.257490"><ele></ele><time>2014-4-4T23:53:9Z</time></trkpt>
<trkpt lat="42.307388" lon="3.257705"><ele></ele><time>2014-4-4T23:53:12Z</time></trkpt>
<trkpt lat="42.307262" lon="3.257900"><ele></ele><time>2014-4-4T23:53:15Z</time></trkpt>
<trkpt lat="42.307133" lon="3.258090"><ele></ele><time>2014-4-4T23:53:18Z</time></trkpt>
<trkpt lat="42.306950" lon="3.258240"><ele></ele><time>2014-4-4T23:53:21Z</time></trkpt>
<trkpt lat="42.306758" lon="3.258397"><ele></ele><time>2014-4-4T23:53:24Z</time></trkpt>
<trkpt lat="42.306598" lon="3.258612"><ele></ele><time>2014-4-4T23:53:27Z</time></trkpt>
<trkpt lat="42.306492" lon="3.258782"><ele></ele><time>2014-4-4T23:53:30Z</time></trkpt>
<trkpt lat="42.306397" lon="3.258885"><ele></ele><time>2014-4-4T23:53:33Z</time></trkpt>
<trkpt lat="42.306290" lon="3.258975"><ele></ele><time>2014-4-4T23:53:36Z</time></trkpt>
<trkpt lat="42.306168" lon="3.259050"><ele></ele><time>2014-4-4T23:53:39Z</time></trkpt>
<trkpt lat="42.306038" lon="3.259142"><ele></ele><time>2014-4-4T23:53:42Z</time></trkpt>
<trkpt lat="42.305935" lon="3.259228"><ele></ele><time>2014-4-4T23:53:45Z</time></trkpt>
<trkpt lat="42.305870" lon="3.259320"><ele></ele><time>2014-4-4T23:53:48Z</time></trkpt>
<trkpt lat="42.305793" lon="3.259408"><ele></ele><time>2014-4-4T23:53:51Z</time></trkpt>
<trkpt lat="42.305687" lon="3.259503"><ele></ele><time>2014-4-4T23:53:54Z</time></trkpt>
<trkpt lat="42.305568" lon="3.259590"><ele></ele><time>2014-4-4T23:53:57Z</time></trkpt>
<trkpt lat="42.305423" lon="3.259655"><ele></ele><time>2014-4-4T23:54:0Z</time></trkpt>
<trkpt lat="42.305278" lon="3.259662"><ele></ele><time>2014-4-4T23:54:3Z</time></trkpt>
<trkpt lat="42.305168" lon="3.259750"><ele></ele><time>2014-4-4T23:54:6Z</time></trkpt>
<trkpt lat="42.305160" lon="3.259973"><ele></ele><time>2014-4-4T23:54:9Z</time></trkpt>
<trkpt lat="42.305180" lon="3.260092"><ele></ele><time>2014-4-4T23:54:12Z</time></trkpt>
<trkpt lat="42.305148" lon="3.260298"><ele></ele><time>2014-4-4T23:54:15Z</time></trkpt>
<trkpt lat="42.305047" lon="3.260432"><ele></ele><time>2014-4-4T23:54:18Z</time></trkpt>
<trkpt lat="42.304928" lon="3.260538"><ele></ele><time>2014-4-4T23:54:21Z</time></trkpt>
<trkpt lat="42.304837" lon="3.260675"><ele></ele><time>2014-4-4T23:54:24Z</time></trkpt>
<trkpt lat="42.304778" lon="3.260833"><ele></ele><time>2014-4-4T23:54:27Z</time></trkpt>
<trkpt lat="42.304763" lon="3.261013"><ele></ele><time>2014-4-4T23:54:30Z</time></trkpt>
<trkpt lat="42.304805" lon="3.261190"><ele></ele><time>2014-4-4T23:54:33Z</time></trkpt>
<trkpt lat="42.304768" lon="3.261348"><ele></ele><time>2014-4-4T23:54:36Z</time></trkpt>
<trkpt lat="42.304730" lon="3.261522"><ele></ele><time>2014-4-4T23:54:39Z</time></trkpt>
<trkpt lat="42.304763" lon="3.261657"><ele></ele><time>2014-4-4T23:54:42Z</time></trkpt>
<trkpt lat="42.304760" lon="3.261667"><ele></ele><time>2014-4-4T23:54:45Z</time></trkpt>
<trkpt lat="42.304760" lon="3.261663"><ele></ele><time>2014-4-4T23:54:48Z</time></trkpt>
<trkpt lat="42.304757" lon="3.261660"><ele></ele><time>2014-4-4T23:54:51Z</time></trkpt>
<trkpt lat="42.304757" lon="3.261657"><ele></ele><time>2014-4-4T23:54:54Z</time></trkpt>
<trkpt lat="42.304722" lon="3.261728"><ele></ele><time>2014-4-4T23:54:57Z</time></trkpt>
<trkpt lat="42.304618" lon="3.261852"><ele></ele><time>2014-4-4T23:55:0Z</time></trkpt>
<trkpt lat="42.304505" lon="3.261972"><ele></ele><time>2014-4-4T23:55:3Z</time></trkpt>
<trkpt lat="42.304360" lon="3.262112"><ele></ele><time>2014-4-4T23:55:6Z</time></trkpt>
<trkpt lat="42.304222" lon="3.262255"><ele></ele><time>2014-4-4T23:55:9Z</time></trkpt>
<trkpt lat="42.304082" lon="3.262398"><ele></ele><time>2014-4-4T23:55:12Z</time></trkpt>
<trkpt lat="42.303952" lon="3.262477"><ele></ele><time>2014-4-4T23:55:15Z</time></trkpt>
<trkpt lat="42.303802" lon="3.262622"><ele></ele><time>2014-4-4T23:55:18Z</time></trkpt>
<trkpt lat="42.303742" lon="3.262895"><ele></ele><time>2014-4-4T23:55:21Z</time></trkpt>
<trkpt lat="42.303692" lon="3.263228"><ele></ele><time>2014-4-4T23:55:24Z</time></trkpt>
<trkpt lat="42.303668" lon="3.263277"><ele></ele><time>2014-4-4T23:55:27Z</time></trkpt>
<trkpt lat="42.303668" lon="3.263322"><ele></ele><time>2014-4-4T23:55:30Z</time></trkpt>
<trkpt lat="42.303570" lon="3.263572"><ele></ele><time>2014-4-4T23:55:33Z</time></trkpt>
<trkpt lat="42.303487" lon="3.263952"><ele></ele><time>2014-4-4T23:55:36Z</time></trkpt>
<trkpt lat="42.303375" lon="3.264242"><ele></ele><time>2014-4-4T23:55:39Z</time></trkpt>
<trkpt lat="42.303368" lon="3.264410"><ele></ele><time>2014-4-4T23:55:42Z</time></trkpt>
<trkpt lat="42.303543" lon="3.264500"><ele></ele><time>2014-4-4T23:55:45Z</time></trkpt>
<trkpt lat="42.303692" lon="3.264522"><ele></ele><time>2014-4-4T23:55:48Z</time></trkpt>
<trkpt lat="42.303840" lon="3.264552"><ele></ele><time>2014-4-4T23:55:51Z</time></trkpt>
<trkpt lat="42.303955" lon="3.264570"><ele></ele><time>2014-4-4T23:55:54Z</time></trkpt>
<trkpt lat="42.304092" lon="3.264620"><ele></ele><time>2014-4-4T23:55:57Z</time></trkpt>
<trkpt lat="42.304263" lon="3.264693"><ele></ele><time>2014-4-4T23:56:0Z</time></trkpt>
<trkpt lat="42.304432" lon="3.264752"><ele></ele><time>2014-4-4T23:56:3Z</time></trkpt>
<trkpt lat="42.304618" lon="3.264772"><ele></ele><time>2014-4-4T23:56:6Z</time></trkpt>
<trkpt lat="42.304822" lon="3.264762"><ele></ele><time>2014-4-4T23:56:9Z</time></trkpt>
<trkpt lat="42.304985" lon="3.264860"><ele></ele><time>2014-4-4T23:56:12Z</time></trkpt>
<trkpt lat="42.305003" lon="3.265110"><ele></ele><time>2014-4-4T23:56:15Z</time></trkpt>
<trkpt lat="42.305003" lon="3.265353"><ele></ele><time>2014-4-4T23:56:18Z</time></trkpt>
<trkpt lat="42.305027" lon="3.265500"><ele></ele><time>2014-4-4T23:56:21Z</time></trkpt>
<trkpt lat="42.304997" lon="3.265500"><ele></ele><time>2014-4-4T23:56:24Z</time></trkpt>
<trkpt lat="42.304997" lon="3.265498"><ele></ele><time>2014-4-4T23:56:27Z</time></trkpt>
<trkpt lat="42.304993" lon="3.265493"><ele></ele><time>2014-4-4T23:56:30Z</time></trkpt>
<trkpt lat="42.304988" lon="3.265485"><ele></ele><time>2014-4-4T23:56:33Z</time></trkpt>
<trkpt lat="42.304863" lon="3.265472"><ele></ele><time>2014-4-4T23:56:36Z</time></trkpt>
<trkpt lat="42.304645" lon="3.265565"><ele></ele><time>2014-4-4T23:56:39Z</time></trkpt>
<trkpt lat="42.304382" lon="3.265675"><ele></ele><time>2014-4-4T23:56:42Z</time></trkpt>
<trkpt lat="42.304047" lon="3.265830"><ele></ele><time>2014-4-4T23:56:45Z</time></trkpt>
<trkpt lat="42.303775" lon="3.265880"><ele></ele><time>2014-4-4T23:56:48Z</time></trkpt>
<trkpt lat="42.303513" lon="3.265898"><ele></ele><time>2014-4-4T23:56:51Z</time></trkpt>
<trkpt lat="42.303277" lon="3.265855"><ele></ele><time>2014-4-4T23:56:54Z</time></trkpt>
<trkpt lat="42.303025" lon="3.265817"><ele></ele><time>2014-4-4T23:56:57Z</time></trkpt>
<trkpt lat="42.302887" lon="3.266060"><ele></ele><time>2014-4-4T23:57:0Z</time></trkpt>
<trkpt lat="42.302768" lon="3.266383"><ele></ele><time>2014-4-4T23:57:3Z</time></trkpt>
<trkpt lat="42.302517" lon="3.266708"><ele></ele><time>2014-4-4T23:57:6Z</time></trkpt>
<trkpt lat="42.302295" lon="3.267060"><ele></ele><time>2014-4-4T23:57:9Z</time></trkpt>
<trkpt lat="42.302087" lon="3.267460"><ele></ele><time>2014-4-4T23:57:12Z</time></trkpt>
<trkpt lat="42.301907" lon="3.267728"><ele></ele><time>2014-4-4T23:57:15Z</time></trkpt>
<trkpt lat="42.301670" lon="3.267783"><ele></ele><time>2014-4-4T23:57:18Z</time></trkpt>
<trkpt lat="42.301400" lon="3.267875"><ele></ele><time>2014-4-4T23:57:21Z</time></trkpt>
<trkpt lat="42.301205" lon="3.267887"><ele></ele><time>2014-4-4T23:57:24Z</time></trkpt>
<trkpt lat="42.301105" lon="3.267822"><ele></ele><time>2014-4-4T23:57:27Z</time></trkpt>
<trkpt lat="42.301013" lon="3.267683"><ele></ele><time>2014-4-4T23:57:30Z</time></trkpt>
<trkpt lat="42.300933" lon="3.267483"><ele></ele><time>2014-4-4T23:57:33Z</time></trkpt>
<trkpt lat="42.300797" lon="3.267352"><ele></ele><time>2014-4-4T23:57:36Z</time></trkpt>
<trkpt lat="42.300682" lon="3.267298"><ele></ele><time>2014-4-4T23:57:39Z</time></trkpt>
<trkpt lat="42.300587" lon="3.267310"><ele></ele><time>2014-4-4T23:57:42Z</time></trkpt>
<trkpt lat="42.300483" lon="3.267365"><ele></ele><time>2014-4-4T23:57:45Z</time></trkpt>
<trkpt lat="42.300388" lon="3.267353"><ele></ele><time>2014-4-4T23:57:48Z</time></trkpt>
<trkpt lat="42.300305" lon="3.267217"><ele></ele><time>2014-4-4T23:57:51Z</time></trkpt>
<trkpt lat="42.300190" lon="3.267257"><ele></ele><time>2014-4-4T23:57:54Z</time></trkpt>
<trkpt lat="42.300107" lon="3.267352"><ele></ele><time>2014-4-4T23:57:57Z</time></trkpt>
<trkpt lat="42.300033" lon="3.267483"><ele></ele><time>2014-4-4T23:58:0Z</time></trkpt>
<trkpt lat="42.299957" lon="3.267645"><ele></ele><time>2014-4-4T23:58:3Z</time></trkpt>
<trkpt lat="42.299865" lon="3.267787"><ele></ele><time>2014-4-4T23:58:6Z</time></trkpt>
<trkpt lat="42.299770" lon="3.267953"><ele></ele><time>2014-4-4T23:58:9Z</time></trkpt>
<trkpt lat="42.299648" lon="3.268123"><ele></ele><time>2014-4-4T23:58:12Z</time></trkpt>
<trkpt lat="42.299587" lon="3.268345"><ele></ele><time>2014-4-4T23:58:15Z</time></trkpt>
<trkpt lat="42.299568" lon="3.268555"><ele></ele><time>2014-4-4T23:58:18Z</time></trkpt>
<trkpt lat="42.299453" lon="3.268797"><ele></ele><time>2014-4-4T23:58:21Z</time></trkpt>
<trkpt lat="42.299282" lon="3.269080"><ele></ele><time>2014-4-4T23:58:24Z</time></trkpt>
<trkpt lat="42.299072" lon="3.269283"><ele></ele><time>2014-4-4T23:58:27Z</time></trkpt>
<trkpt lat="42.298927" lon="3.269523"><ele></ele><time>2014-4-4T23:58:30Z</time></trkpt>
<trkpt lat="42.298752" lon="3.269773"><ele></ele><time>2014-4-4T23:58:33Z</time></trkpt>
<trkpt lat="42.298595" lon="3.270077"><ele></ele><time>2014-4-4T23:58:36Z</time></trkpt>
<trkpt lat="42.298458" lon="3.270328"><ele></ele><time>2014-4-4T23:58:39Z</time></trkpt>
<trkpt lat="42.298260" lon="3.270547"><ele></ele><time>2014-4-4T23:58:42Z</time></trkpt>
<trkpt lat="42.298012" lon="3.270693"><ele></ele><time>2014-4-4T23:58:45Z</time></trkpt>
<trkpt lat="42.297867" lon="3.270682"><ele></ele><time>2014-4-4T23:58:48Z</time></trkpt>
<trkpt lat="42.297757" lon="3.270753"><ele></ele><time>2014-4-4T23:58:51Z</time></trkpt>
<trkpt lat="42.297562" lon="3.270912"><ele></ele><time>2014-4-4T23:58:54Z</time></trkpt>
<trkpt lat="42.297295" lon="3.271145"><ele></ele><time>2014-4-4T23:58:57Z</time></trkpt>
<trkpt lat="42.297073" lon="3.271430"><ele></ele><time>2014-4-4T23:59:0Z</time></trkpt>
<trkpt lat="42.296875" lon="3.271688"><ele></ele><time>2014-4-4T23:59:3Z</time></trkpt>
<trkpt lat="42.296673" lon="3.271825"><ele></ele><time>2014-4-4T23:59:6Z</time></trkpt>
<trkpt lat="42.296508" lon="3.271962"><ele></ele><time>2014-4-4T23:59:9Z</time></trkpt>
<trkpt lat="42.296405" lon="3.272052"><ele></ele><time>2014-4-4T23:59:12Z</time></trkpt>
<trkpt lat="42.296303" lon="3.272223"><ele></ele><time>2014-4-4T23:59:15Z</time></trkpt>
<trkpt lat="42.296197" lon="3.272353"><ele></ele><time>2014-4-4T23:59:18Z</time></trkpt>
<trkpt lat="42.296052" lon="3.272527"><ele></ele><time>2014-4-4T23:59:21Z</time></trkpt>
<trkpt lat="42.295898" lon="3.272675"><ele></ele><time>2014-4-4T23:59:24Z</time></trkpt>
<trkpt lat="42.295830" lon="3.272732"><ele></ele><time>2014-4-4T23:59:27Z</time></trkpt>
<trkpt lat="42.295830" lon="3.272730"><ele></ele><time>2014-4-4T23:59:30Z</time></trkpt>
<trkpt lat="42.295800" lon="3.272757"><ele></ele><time>2014-4-4T23:59:33Z</time></trkpt>
<trkpt lat="42.295692" lon="3.272847"><ele></ele><time>2014-4-4T23:59:36Z</time></trkpt>
<trkpt lat="42.295502" lon="3.272925"><ele></ele><time>2014-4-4T23:59:39Z</time></trkpt>
<trkpt lat="42.295277" lon="3.273100"><ele></ele><time>2014-4-4T23:59:42Z</time></trkpt>
<trkpt lat="42.295078" lon="3.273337"><ele></ele><time>2014-4-4T23:59:45Z</time></trkpt>
<trkpt lat="42.294910" lon="3.273512"><ele></ele><time>2014-4-4T23:59:48Z</time></trkpt>
<trkpt lat="42.294732" lon="3.273703"><ele></ele><time>2014-4-4T23:59:51Z</time></trkpt>
<trkpt lat="42.294567" lon="3.274013"><ele></ele><time>2014-4-4T23:59:54Z</time></trkpt>
<trkpt lat="42.294445" lon="3.274342"><ele></ele><time>2014-4-4T23:59:57Z</time></trkpt>
<trkpt lat="42.294258" lon="3.274562"><ele></ele><time>2014-4-5T0:0:0Z</time></trkpt>
<trkpt lat="42.294060" lon="3.274732"><ele></ele><time>2014-4-5T0:0:3Z</time></trkpt>
<trkpt lat="42.293892" lon="3.274980"><ele></ele><time>2014-4-5T0:0:6Z</time></trkpt>
<trkpt lat="42.293758" lon="3.275300"><ele></ele><time>2014-4-5T0:0:9Z</time></trkpt>
<trkpt lat="42.293602" lon="3.275552"><ele></ele><time>2014-4-5T0:0:12Z</time></trkpt>
<trkpt lat="42.293370" lon="3.275648"><ele></ele><time>2014-4-5T0:0:15Z</time></trkpt>
<trkpt lat="42.293098" lon="3.275662"><ele></ele><time>2014-4-5T0:0:18Z</time></trkpt>
<trkpt lat="42.292855" lon="3.275642"><ele></ele><time>2014-4-5T0:0:21Z</time></trkpt>
<trkpt lat="42.292645" lon="3.275630"><ele></ele><time>2014-4-5T0:0:24Z</time></trkpt>
<trkpt lat="42.292565" lon="3.275657"><ele></ele><time>2014-4-5T0:0:27Z</time></trkpt>
<trkpt lat="42.292565" lon="3.275657"><ele></ele><time>2014-4-5T0:0:30Z</time></trkpt>
<trkpt lat="42.292565" lon="3.275650"><ele></ele><time>2014-4-5T0:0:33Z</time></trkpt>
<trkpt lat="42.292545" lon="3.275653"><ele></ele><time>2014-4-5T0:0:36Z</time></trkpt>
<trkpt lat="42.292400" lon="3.275733"><ele></ele><time>2014-4-5T0:0:39Z</time></trkpt>
<trkpt lat="42.292290" lon="3.275882"><ele></ele><time>2014-4-5T0:0:42Z</time></trkpt>
<trkpt lat="42.292213" lon="3.276065"><ele></ele><time>2014-4-5T0:0:45Z</time></trkpt>
<trkpt lat="42.292202" lon="3.276225"><ele></ele><time>2014-4-5T0:0:48Z</time></trkpt>
<trkpt lat="42.292198" lon="3.276222"><ele></ele><time>2014-4-5T0:0:51Z</time></trkpt>
<trkpt lat="42.292195" lon="3.276227"><ele></ele><time>2014-4-5T0:0:54Z</time></trkpt>
<trkpt lat="42.292183" lon="3.276455"><ele></ele><time>2014-4-5T0:0:57Z</time></trkpt>
<trkpt lat="42.292233" lon="3.276843"><ele></ele><time>2014-4-5T0:1:0Z</time></trkpt>
<trkpt lat="42.292343" lon="3.277223"><ele></ele><time>2014-4-5T0:1:3Z</time></trkpt>
<trkpt lat="42.292610" lon="3.277433"><ele></ele><time>2014-4-5T0:1:6Z</time></trkpt>
<trkpt lat="42.292923" lon="3.277537"><ele></ele><time>2014-4-5T0:1:9Z</time></trkpt>
<trkpt lat="42.293247" lon="3.277610"><ele></ele><time>2014-4-5T0:1:12Z</time></trkpt>
<trkpt lat="42.293317" lon="3.277922"><ele></ele><time>2014-4-5T0:1:15Z</time></trkpt>
<trkpt lat="42.293083" lon="3.278215"><ele></ele><time>2014-4-5T0:1:18Z</time></trkpt>
<trkpt lat="42.292797" lon="3.278435"><ele></ele><time>2014-4-5T0:1:21Z</time></trkpt>
<trkpt lat="42.292492" lon="3.278570"><ele></ele><time>2014-4-5T0:1:24Z</time></trkpt>
<trkpt lat="42.292287" lon="3.278887"><ele></ele><time>2014-4-5T0:1:27Z</time></trkpt>
<trkpt lat="42.292137" lon="3.279270"><ele></ele><time>2014-4-5T0:1:30Z</time></trkpt>
<trkpt lat="42.292018" lon="3.279690"><ele></ele><time>2014-4-5T0:1:33Z</time></trkpt>
<trkpt lat="42.291927" lon="3.280073"><ele></ele><time>2014-4-5T0:1:36Z</time></trkpt>
<trkpt lat="42.291755" lon="3.280427"><ele></ele><time>2014-4-5T0:1:39Z</time></trkpt>
<trkpt lat="42.291562" lon="3.280752"><ele></ele><time>2014-4-5T0:1:42Z</time></trkpt>
<trkpt lat="42.291390" lon="3.280735"><ele></ele><time>2014-4-5T0:1:45Z</time></trkpt>
<trkpt lat="42.291077" lon="3.280573"><ele></ele><time>2014-4-5T0:1:48Z</time></trkpt>
<trkpt lat="42.290970" lon="3.280257"><ele></ele><time>2014-4-5T0:1:51Z</time></trkpt>
<trkpt lat="42.291138" lon="3.279798"><ele></ele><time>2014-4-5T0:1:54Z</time></trkpt>
<trkpt lat="42.291272" lon="3.279448"><ele></ele><time>2014-4-5T0:1:57Z</time></trkpt>
<trkpt lat="42.291115" lon="3.279225"><ele></ele><time>2014-4-5T0:2:0Z</time></trkpt>
<trkpt lat="42.290837" lon="3.279078"><ele></ele><time>2014-4-5T0:2:3Z</time></trkpt>
<trkpt lat="42.290562" lon="3.279072"><ele></ele><time>2014-4-5T0:2:6Z</time></trkpt>
<trkpt lat="42.290478" lon="3.279032"><ele></ele><time>2014-4-5T0:2:9Z</time></trkpt>
<trkpt lat="42.290398" lon="3.279005"><ele></ele><time>2014-4-5T0:2:12Z</time></trkpt>
<trkpt lat="42.290280" lon="3.279135"><ele></ele><time>2014-4-5T0:2:15Z</time></trkpt>
<trkpt lat="42.290127" lon="3.279242"><ele></ele><time>2014-4-5T0:2:18Z</time></trkpt>
<trkpt lat="42.289975" lon="3.279312"><ele></ele><time>2014-4-5T0:2:21Z</time></trkpt>
<trkpt lat="42.289833" lon="3.279403"><ele></ele><time>2014-4-5T0:2:24Z</time></trkpt>
<trkpt lat="42.289760" lon="3.279457"><ele></ele><time>2014-4-5T0:2:27Z</time></trkpt>
<trkpt lat="42.289730" lon="3.279368"><ele></ele><time>2014-4-5T0:2:30Z</time></trkpt>
<trkpt lat="42.289715" lon="3.279327"><ele></ele><time>2014-4-5T0:2:33Z</time></trkpt>
<trkpt lat="42.289748" lon="3.279383"><ele></ele><time>2014-4-5T0:2:36Z</time></trkpt>
<trkpt lat="42.289748" lon="3.279398"><ele></ele><time>2014-4-5T0:2:39Z</time></trkpt>
<trkpt lat="42.289760" lon="3.279458"><ele></ele><time>2014-4-5T0:2:42Z</time></trkpt>
<trkpt lat="42.289772" lon="3.279467"><ele></ele><time>2014-4-5T0:2:45Z</time></trkpt>
<trkpt lat="42.289753" lon="3.279432"><ele></ele><time>2014-4-5T0:2:48Z</time></trkpt>
<trkpt lat="42.289738" lon="3.279412"><ele></ele><time>2014-4-5T0:2:51Z</time></trkpt>
<trkpt lat="42.289757" lon="3.279413"><ele></ele><time>2014-4-5T0:2:54Z</time></trkpt>
<trkpt lat="42.289748" lon="3.279327"><ele></ele><time>2014-4-5T0:2:57Z</time></trkpt>
<trkpt lat="42.289772" lon="3.279393"><ele></ele><time>2014-4-5T0:3:0Z</time></trkpt>
<trkpt lat="42.289792" lon="3.279408"><ele></ele><time>2014-4-5T0:3:3Z</time></trkpt>
<trkpt lat="42.289807" lon="3.279470"><ele></ele><time>2014-4-5T0:3:6Z</time></trkpt>
<trkpt lat="42.289772" lon="3.279605"><ele></ele><time>2014-4-5T0:3:9Z</time></trkpt>
<trkpt lat="42.289685" lon="3.279648"><ele></ele><time>2014-4-5T0:3:12Z</time></trkpt>
<trkpt lat="42.289662" lon="3.279645"><ele></ele><time>2014-4-5T0:3:15Z</time></trkpt>
<trkpt lat="42.289715" lon="3.279658"><ele></ele><time>2014-4-5T0:3:18Z</time></trkpt>
<trkpt lat="42.289783" lon="3.279558"><ele></ele><time>2014-4-5T0:3:21Z</time></trkpt>
<trkpt lat="42.289857" lon="3.279727"><ele></ele><time>2014-4-5T0:3:24Z</time></trkpt>
<trkpt lat="42.289830" lon="3.279718"><ele></ele><time>2014-4-5T0:3:27Z</time></trkpt>
<trkpt lat="42.289753" lon="3.279617"><ele></ele><time>2014-4-5T0:3:30Z</time></trkpt>
<trkpt lat="42.289722" lon="3.279657"><ele></ele><time>2014-4-5T0:3:33Z</time></trkpt>
<trkpt lat="42.289760" lon="3.279618"><ele></ele><time>2014-4-5T0:3:36Z</time></trkpt>
<trkpt lat="42.289745" lon="3.279552"><ele></ele><time>2014-4-5T0:3:39Z</time></trkpt>
<trkpt lat="42.289722" lon="3.279458"><ele></ele><time>2014-4-5T0:3:42Z</time></trkpt>
<trkpt lat="42.289707" lon="3.279265"><ele></ele><time>2014-4-5T0:3:45Z</time></trkpt>
<trkpt lat="42.289760" lon="3.279442"><ele></ele><time>2014-4-5T0:3:48Z</time></trkpt>
<trkpt lat="42.289860" lon="3.279617"><ele></ele><time>2014-4-5T0:3:51Z</time></trkpt>
<trkpt lat="42.289848" lon="3.279538"><ele></ele><time>2014-4-5T0:3:54Z</time></trkpt>
<trkpt lat="42.289818" lon="3.279383"><ele></ele><time>2014-4-5T0:3:57Z</time></trkpt>
<trkpt lat="42.289727" lon="3.279287"><ele></ele><time>2014-4-5T0:4:0Z</time></trkpt>
<trkpt lat="42.289738" lon="3.279235"><ele></ele><time>2014-4-5T0:4:3Z</time></trkpt>
<trkpt lat="42.289730" lon="3.279332"><ele></ele><time>2014-4-5T0:4:6Z</time></trkpt>
<trkpt lat="42.289722" lon="3.279385"><ele></ele><time>2014-4-5T0:4:9Z</time></trkpt>
<trkpt lat="42.289695" lon="3.279477"><ele></ele><time>2014-4-5T0:4:12Z</time></trkpt>
<trkpt lat="42.289653" lon="3.279498"><ele></ele><time>2014-4-5T0:4:15Z</time></trkpt>
<trkpt lat="42.289688" lon="3.279482"><ele></ele><time>2014-4-5T0:4:18Z</time></trkpt>
<trkpt lat="42.289718" lon="3.279375"><ele></ele><time>2014-4-5T0:4:21Z</time></trkpt>
<trkpt lat="42.289760" lon="3.279347"><ele></ele><time>2014-4-5T0:4:24Z</time></trkpt>
<trkpt lat="42.289777" lon="3.279428"><ele></ele><time>2014-4-5T0:4:27Z</time></trkpt>
<trkpt lat="42.289760" lon="3.279475"><ele></ele><time>2014-4-5T0:4:30Z</time></trkpt>
<trkpt lat="42.289753" lon="3.279500"><ele></ele><time>2014-4-5T0:4:33Z</time></trkpt>
<trkpt lat="42.289760" lon="3.279570"><ele></ele><time>2014-4-5T0:4:36Z</time></trkpt>
<trkpt lat="42.289742" lon="3.279647"><ele></ele><time>2014-4-5T0:4:39Z</time></trkpt>
<trkpt lat="42.289760" lon="3.279740"><ele></ele><time>2014-4-5T0:4:42Z</time></trkpt>
</trkseg></trk></gpx>